[[{"header":{"parameterUnit":"m.s-1","parameterCategory":1,"la1":31.0,"la2":29.5877,"lo1":-88.7671,"lo2":-86.6584,"dy":0.0162,"dx":0.0185,"nx":115,"ny":88,"refTime":"2023-04-21T12:00:00:Z","depth":0,"parameterNumber":2,"parameterNumberName":"U-component_of_WINDS"},"data":[0.0,0.0,0.0,0.0,0.0,0.0,0.0,0.0,0.0,0.0,0.0,0.0,0.0,0.0,0.0,0.0,0.0,0.0,0.0,0.0,0.0,0.0,0.0,0.0,0.0,0.0,0.0,0.0,0.0,0.0,0.0,0.0,0.0,0.0,0.0,0.0,0.0,0.0,0.0,0.0,0.0,0.0,0.0,0.0,0.0,0.0,0.0,0.0,0.0,0.0,0.0,0.0,0.0,0.0,0.0,0.0,0.0,0.0,0.0,0.0,0.0,0.0,0.0,0.0,0.0,0.0,0.0,0.0,0.0,0.0,0.0,0.0,0.0,0.0,0.0,0.0,0.0,0.0,0.0,0.0,0.0,0.0,0.0,0.0,0.0,0.0,0.0,0.0,0.0,0.0,0.0,0.0,0.0,0.0,0.0,0.0,0.0,0.0,0.0,0.0,0.0,0.0,0.0,0.0,0.0,0.0,0.0,0.0,0.0,0.0,0.0,0.0,0.0,0.0,0.0,0.0,0.0,0.0,0.0,0.0,0.0,0.0,0.0,0.0,0.0,0.0,0.0,0.0,0.0,0.0,0.0,0.0,0.0,0.0,0.0,0.0,0.0,0.0,0.0,0.0,0.0,0.0,0.0,0.0,0.0,0.0,0.0,0.0,0.0,0.0,0.0,0.0,0.0,0.0,0.0,0.0,0.0,0.0,0.0,0.0,0.0,0.0,0.0,0.0,0.0,0.0,0.0,0.0,0.0,0.0,0.0,0.0,0.0,0.0,0.0,0.0,0.0,0.0,0.0,0.0,0.0,0.0,0.0,0.0,0.0,0.0,0.0,0.0,0.0,0.0,0.0,0.0,0.0,0.0,0.0,0.0,0.0,0.0,0.0,0.0,0.0,0.0,0.0,0.0,0.0,0.0,0.0,0.0,0.0,0.0,0.0,0.0,0.0,0.0,0.0,0.0,0.0,0.0,0.0,0.0,0.0,0.0,0.0,0.0,0.0,0.0,0.0,0.0,0.0,0.0,0.0,0.0,0.0,0.0,0.0,0.0,0.0,0.0,0.0,0.0,0.0,0.0,0.0,0.0,0.0,0.0,0.0,0.0,0.0,0.0,0.0,0.0,0.0,0.0,0.0,0.0,0.0,0.0,0.0,0.0,0.0,0.0,0.0,0.0,0.0,0.0,0.0,0.0,0.0,0.0,0.0,0.0,0.0,0.0,0.0,0.0,0.0,0.0,0.0,0.0,0.0,0.0,0.0,0.0,0.0,0.0,0.0,0.0,0.0,0.0,0.0,0.0,0.0,0.0,0.0,0.0,0.0,0.0,0.0,0.0,0.0,0.0,0.0,0.0,0.0,0.0,0.0,0.0,0.0,0.0,0.0,0.0,0.0,0.0,0.0,0.0,0.0,0.0,0.0,0.0,0.0,0.0,0.0,0.0,0.0,0.0,0.0,0.0,0.0,0.0,0.0,0.0,0.0,0.0,0.0,0.0,0.0,0.0,0.0,0.0,0.0,0.0,0.0,0.0,0.0,0.0,0.0,0.0,0.0,0.0,0.0,0.0,0.0,0.0,0.0,0.0,0.0,0.0,0.0,0.0,0.0,0.0,0.0,0.0,0.0,0.0,0.0,0.0,0.0,0.0,0.0,0.0,0.0,0.0,0.0,0.0,0.0,0.0,0.0,0.0,0.0,0.0,0.0,0.0,0.0,0.0,0.0,0.0,0.0,0.0,0.0,0.0,0.0,0.0,0.0,0.0,0.0,0.0,0.0,0.0,0.0,0.0,0.0,0.0,0.0,0.0,0.0,0.0,0.0,0.0,0.0,0.0,0.0,0.0,0.0,0.0,0.0,0.0,0.0,0.0,0.0,0.0,0.0,0.0,0.0,0.0,0.0,0.0,0.0,0.0,0.0,0.0,0.0,0.0,0.0,0.0,0.0,0.0,0.0,0.0,0.0,0.0,0.0,0.0,0.0,0.0,0.0,0.0,0.0,0.0,0.0,0.0,0.0,0.0,0.0,0.0,0.0,0.0,0.0,0.0,0.0,0.0,0.0,0.0,0.0,0.0,0.0,0.0,0.0,0.0,0.0,0.0,0.0,0.0,0.0,0.0,0.0,0.0,0.0,0.0,0.0,0.0,0.0,0.0,0.0,0.0,0.0,0.0,0.0,0.0,0.0,0.0,0.0,0.0,0.0,0.0,0.0,0.0,0.0,0.0,0.0,0.0,0.0,0.0,0.0,0.0,0.0,0.0,0.0,0.0,0.0,0.0,0.0,0.0,0.0,0.0,0.0,0.0,0.0,0.0,0.0,0.0,0.0,0.0,0.0,0.0,0.0,0.0,0.0,0.0,0.0,0.0,0.0,0.0,0.0,0.0,0.0,0.0,0.0,0.0,0.0,0.0,0.0,0.0,0.0,0.0,0.0,0.0,0.0,0.0,0.0,0.0,0.0,0.0,0.0,0.0,0.0,0.0,0.0,0.0,0.0,0.0,0.0,0.0,0.0,0.0,0.0,0.0,0.0,0.0,0.0,0.0,0.0,0.0,0.0,0.0,0.0,0.0,0.0,0.0,0.0,0.0,0.0,0.0,0.0,0.0,0.0,0.0,0.0,0.0,0.0,0.0,0.0,0.0,0.0,0.0,0.0,0.0,0.0,0.0,0.0,0.0,0.0,0.0,0.0,0.0,0.0,0.0,0.0,0.0,0.0,0.0,0.0,0.0,0.0,0.0,0.0,0.0,0.0,0.0,0.0,0.0,0.0,0.0,0.0,0.0,0.0,0.0,0.0,0.0,0.0,0.0,0.0,0.0,0.0,0.0,0.0,0.0,0.0,0.0,0.0,0.0,0.0,0.0,0.0,0.0,0.0,0.0,0.0,0.0,0.0,0.0,0.0,0.0,0.0,0.0,0.0,0.0,0.0,0.0,0.0,0.0,0.0,0.0,0.0,0.0,0.0,0.0,0.0,0.0,0.0,0.0,0.0,0.0,0.0,0.0,0.0,0.0,0.0,0.0,0.0,0.0,0.0,0.0,0.0,0.0,0.0,0.0,0.0,0.0,0.0,0.0,0.0,0.0,0.0,0.0,0.0,0.0,0.0,0.0,0.0,0.0,0.0,0.0,0.0,0.0,0.0,0.0,0.0,0.0,0.0,0.0,0.0,0.0,0.0,0.0,0.0,0.0,0.0,0.0,0.0,0.0,0.0,0.0,0.0,0.0,0.0,0.0,0.0,0.0,0.0,0.0,0.0,0.0,0.0,0.0,0.0,0.0,0.0,0.0,0.0,0.0,0.0,0.0,0.0,0.0,0.0,0.0,0.0,0.0,0.0,0.0,0.0,0.0,0.0,0.0,0.0,0.0,0.0,0.0,0.0,0.0,0.0,0.0,0.0,0.0,0.0,0.0,0.0,0.0,0.0,0.0,0.0,0.0,0.0,0.0,0.0,0.0,0.0,0.0,0.0,0.0,0.0,0.0,0.0,0.0,0.0,0.0,0.0,0.0,0.0,0.0,0.0,0.0,0.0,0.0,0.0,0.0,0.0,0.0,0.0,0.0,0.0,0.0,0.0,0.0,0.0,0.0,0.0,0.0,0.0,0.0,0.0,0.0,0.0,0.0,0.0,0.0,0.0,0.0,0.0,0.0,0.0,0.0,0.0,0.0,0.0,0.0,0.0,0.0,0.0,0.0,0.0,0.0,0.0,0.0,0.0,0.0,0.0,0.0,0.0,0.0,0.0,0.0,0.0,0.0,0.0,0.0,0.0,0.0,0.0,0.0,0.0,0.0,0.0,0.0,0.0,0.0,0.0,0.0,0.0,0.0,0.0,0.0,0.0,0.0,0.0,0.0,0.0,0.0,0.0,0.0,0.0,0.0,0.0,0.0,0.0,0.0,0.0,0.0,0.0,0.0,0.0,0.0,0.0,0.0,0.0,0.0,0.0,0.0,0.0,0.0,0.0,0.0,0.0,0.0,0.0,0.0,0.0,0.0,0.0,0.0,0.0,0.0,0.0,0.0,0.0,0.0,0.0,0.0,0.0,0.0,0.0,0.0,0.0,0.0,0.0,0.0,0.0,0.0,0.0,0.0,0.0,0.0,0.0,0.0,0.0,0.0,0.0,0.0,0.0,0.0,0.0,0.0,0.0,0.0,0.0,0.0,0.0,0.0,0.0,0.0,0.0,0.0,0.0,0.0,0.0,0.0,0.0,0.0,0.0,0.0,0.0,0.0,0.0,0.0,0.0,0.0,0.0,0.0,0.0,0.0,0.0,0.0,0.0,0.0,1.8364,0.0,0.0,0.0,0.0,0.0,0.0,0.0,0.0,0.0,0.0,0.0,0.0,0.0,0.0,0.0,0.0,0.0,0.0,0.0,0.0,0.0,0.0,0.0,0.0,0.0,0.0,0.0,0.0,0.0,0.0,0.0,0.0,0.0,0.0,0.0,0.0,0.0,0.0,0.0,0.0,0.0,0.0,0.0,0.0,0.0,0.0,0.0,0.0,0.0,0.0,0.0,0.0,0.0,0.0,0.0,0.0,0.0,0.0,0.0,0.0,0.0,0.0,0.0,0.0,0.0,0.0,0.0,0.0,0.0,0.0,0.0,0.0,0.0,0.0,0.0,0.0,0.0,0.0,0.0,0.0,0.0,0.0,0.0,0.0,0.0,0.0,0.0,0.0,0.0,0.0,0.0,0.0,0.0,0.0,0.0,0.0,0.0,0.0,0.0,0.0,0.0,0.0,0.0,0.0,0.0,0.0,0.0,0.0,0.0,0.0,1.8176,1.8503,1.8519,1.8383,1.8017,0.0,0.0,0.0,0.0,0.0,0.0,0.0,0.0,0.0,0.0,0.0,0.0,0.0,0.0,0.0,0.0,0.0,0.0,0.0,0.0,0.0,0.0,0.0,0.0,0.0,0.0,0.0,0.0,0.0,0.0,0.0,0.0,0.0,0.0,0.0,0.0,0.0,0.0,0.0,0.0,0.0,0.0,0.0,0.0,0.0,0.0,0.0,0.0,0.0,0.0,0.0,0.0,0.0,0.0,0.0,0.0,0.0,0.0,0.0,0.0,0.0,0.0,0.0,0.0,0.0,0.0,0.0,0.0,0.0,0.0,0.0,0.0,0.0,0.0,0.0,0.0,0.0,0.0,0.0,0.0,0.0,0.0,0.0,0.0,0.0,0.0,0.0,0.0,0.0,0.0,0.0,0.0,0.0,0.0,0.0,0.0,0.0,0.0,0.0,0.0,0.0,0.0,0.0,0.0,0.0,0.0,0.0,0.0,0.0,0.0,0.0,0.0,1.8166,1.8052,1.7689,0.0,0.0,0.0,0.0,0.0,0.0,0.0,0.0,0.0,0.0,0.0,0.0,0.0,0.0,0.0,0.0,0.0,0.0,0.0,0.0,0.0,0.0,0.0,0.0,0.0,0.0,0.0,0.0,0.0,0.0,0.0,0.0,0.0,0.0,0.0,0.0,0.0,0.0,0.0,0.0,0.0,0.0,0.0,0.0,0.0,0.0,0.0,0.0,0.0,0.0,0.0,0.0,0.0,0.0,0.0,0.0,0.0,0.0,0.0,0.0,0.0,0.0,0.0,0.0,0.0,0.0,0.0,0.0,0.0,0.0,0.0,0.0,0.0,0.0,0.0,0.0,0.0,0.0,0.0,0.0,0.0,0.0,0.0,0.0,0.0,0.0,0.0,0.0,0.0,0.0,0.0,0.0,0.0,0.0,0.0,0.0,0.0,0.0,0.0,0.0,0.0,0.0,0.0,0.0,0.0,0.0,0.0,0.0,0.0,0.0,1.7314,1.7558,1.781,0.0,1.735,0.0,0.0,0.0,0.0,0.0,0.0,0.0,0.0,0.0,0.0,0.0,0.0,0.0,0.0,0.0,0.0,0.0,0.0,0.0,0.0,0.0,0.0,0.0,0.0,0.0,0.0,0.0,0.0,0.0,0.0,0.0,0.0,0.0,0.0,0.0,0.0,0.0,0.0,0.0,0.0,0.0,0.0,0.0,0.0,0.0,0.0,0.0,0.0,0.0,0.0,0.0,0.0,0.0,0.0,0.0,0.0,0.0,0.0,0.0,0.0,0.0,0.0,0.0,0.0,0.0,0.0,0.0,0.0,0.0,0.0,0.0,0.0,0.0,0.0,0.0,0.0,0.0,0.0,0.0,0.0,0.0,0.0,0.0,0.0,0.0,0.0,0.0,0.0,0.0,0.0,0.0,0.0,0.0,0.0,0.0,0.0,0.0,0.0,0.0,0.0,0.0,0.0,0.0,0.0,0.0,0.0,0.0,0.0,0.0,0.0,1.6746,1.6977,1.7079,1.6946,0.0,0.0,0.0,0.0,0.0,0.0,0.0,0.0,0.0,0.0,0.0,0.0,0.0,0.0,0.0,0.0,0.0,0.0,0.0,0.0,0.0,0.0,0.0,0.0,0.0,0.0,0.0,0.0,0.0,0.0,0.0,0.0,0.0,0.0,0.0,0.0,0.0,0.0,0.0,0.0,0.0,0.0,0.0,0.0,0.0,0.0,0.0,0.0,0.0,0.0,0.0,0.0,0.0,0.0,0.0,0.0,0.0,0.0,0.0,0.0,0.0,0.0,0.0,0.0,0.0,0.0,0.0,0.0,0.0,0.0,0.0,0.0,0.0,0.0,0.0,0.0,0.0,0.0,0.0,0.0,0.0,0.0,0.0,0.0,0.0,0.0,0.0,0.0,0.0,0.0,0.0,0.0,0.0,0.0,0.0,0.0,0.0,0.0,0.0,0.0,0.0,0.0,0.0,0.0,0.0,0.0,0.0,0.0,0.0,0.0,1.5731,1.6056,1.6313,1.6287,1.6163,1.5922,0.0,0.0,0.0,0.0,0.0,0.0,0.0,0.0,0.0,0.0,0.0,0.0,0.0,0.0,0.0,0.0,0.0,0.0,0.0,0.0,0.0,0.0,0.0,0.0,0.0,0.0,0.0,0.0,0.0,0.0,0.0,0.0,0.0,0.0,0.0,0.0,0.0,0.0,0.0,0.0,0.0,0.0,0.0,0.0,0.0,0.0,0.0,0.0,0.0,0.0,0.0,0.0,0.0,0.0,0.0,0.0,0.0,0.0,0.0,0.0,0.0,0.0,0.0,0.0,0.0,0.0,0.0,0.0,0.0,0.0,0.0,0.0,0.0,0.0,0.0,0.0,0.0,0.0,0.0,0.0,0.0,0.0,0.0,0.0,0.0,0.0,0.0,0.0,0.0,0.0,0.0,0.0,0.0,0.0,0.0,0.0,0.0,0.0,0.0,0.0,0.0,0.0,0.0,0.0,0.0,0.0,0.0,0.0,1.4468,1.4786,1.5181,1.5612,1.5536,1.545,0.0,0.0,0.0,0.0,0.0,0.0,0.0,0.0,0.0,0.0,0.0,0.0,0.0,0.0,0.0,0.0,0.0,0.0,0.0,0.0,0.0,0.0,0.0,0.0,0.0,0.0,0.0,0.0,0.0,0.0,0.0,0.0,0.0,0.0,0.0,0.0,0.0,0.0,0.0,0.0,0.0,0.0,0.0,0.0,0.0,0.0,0.0,0.0,0.0,0.0,0.0,0.0,0.0,0.0,0.0,0.0,0.0,0.0,0.0,0.0,0.0,0.0,0.0,0.0,0.0,0.0,0.0,0.0,0.0,0.0,0.0,0.0,0.0,0.0,0.0,0.0,0.0,0.0,0.0,0.0,0.0,0.0,0.0,0.0,0.0,0.0,0.0,0.0,0.0,0.0,0.0,0.0,0.0,0.0,0.0,0.0,0.0,0.0,0.0,0.0,0.0,0.0,0.0,0.0,0.0,0.0,0.0,0.0,0.0,1.3752,1.4154,1.4455,1.4647,1.4586,1.458,0.0,0.0,0.0,0.0,0.0,0.0,0.0,0.0,0.0,0.0,0.0,0.0,0.0,0.0,0.0,0.0,0.0,0.0,0.0,0.0,0.0,0.0,0.0,0.0,0.0,0.0,0.0,0.0,0.0,0.0,0.0,0.0,0.0,0.0,0.0,0.0,0.0,0.0,0.0,0.0,0.0,0.0,0.0,0.0,0.0,0.0,0.0,0.0,0.0,0.0,0.0,0.0,0.0,0.0,0.0,0.0,0.0,0.0,0.0,0.0,0.0,0.0,0.0,0.0,0.0,0.0,0.0,0.0,0.0,0.0,0.0,0.0,0.0,0.0,0.0,0.0,0.0,0.0,0.0,0.0,0.0,0.0,0.0,0.0,0.0,0.0,0.0,0.0,0.0,0.0,0.0,0.0,0.0,0.0,0.0,0.0,0.0,0.0,0.0,0.0,0.0,0.0,0.0,0.0,0.0,0.0,0.0,0.0,0.0,1.3073,0.0,1.3659,1.3659,1.3646,1.3654,0.0,0.0,0.0,0.0,0.0,0.0,0.0,0.0,0.0,0.0,0.0,0.0,0.0,0.0,0.0,0.0,0.0,0.0,0.0,0.0,0.0,0.0,0.0,0.0,0.0,0.0,0.0,0.0,0.0,0.0,0.0,0.0,0.0,0.0,0.0,0.0,0.0,0.0,0.0,0.0,0.0,0.0,0.0,0.0,0.0,0.0,0.0,0.0,0.0,0.0,0.0,0.0,0.0,0.0,0.0,0.0,0.0,0.0,0.0,0.0,0.0,0.0,0.0,0.0,0.0,0.0,0.0,0.0,0.0,0.0,0.0,0.0,0.0,0.0,0.0,0.0,0.0,0.0,0.0,0.0,0.0,0.0,0.0,0.0,0.0,0.0,0.0,0.0,0.0,0.0,0.0,0.0,0.0,0.0,0.0,0.0,0.0,0.0,0.0,0.0,0.0,0.0,0.0,0.0,0.0,0.0,0.0,0.0,1.2123,1.2369,1.2595,1.2726,1.2711,1.2701,1.2689,0.0,0.0,0.0,0.0,0.0,0.0,0.0,0.0,0.0,0.0,0.0,0.0,0.0,0.0,0.0,0.0,0.0,0.0,0.0,0.0,0.0,0.0,0.0,0.0,0.0,0.0,0.0,0.0,0.0,0.0,0.0,0.0,0.0,0.0,0.0,0.0,0.0,0.0,0.0,0.0,0.0,0.0,0.0,0.0,0.0,0.0,0.0,0.0,0.0,0.0,0.0,0.0,0.0,0.0,0.0,0.0,0.0,0.0,0.0,0.0,0.0,0.0,0.0,0.0,0.0,0.0,0.0,0.0,0.0,0.0,0.0,0.0,0.0,0.0,0.0,0.0,0.0,0.0,0.0,0.0,0.0,0.0,0.0,0.0,0.0,0.0,0.0,0.0,0.0,0.0,0.0,0.0,0.0,0.0,0.0,0.0,0.0,0.0,0.0,0.0,0.0,0.0,0.0,0.0,0.0,0.0,0.0,0.0,0.0,1.1629,1.2026,1.2226,1.2215,1.2037,1.1926,0.0,0.0,0.0,0.0,0.0,0.0,0.0,0.0,0.0,0.0,0.0,0.0,0.0,0.0,0.0,0.0,0.0,0.0,0.0,0.0,0.0,0.0,0.0,0.0,0.0,0.0,0.0,0.0,0.0,0.0,0.0,0.0,0.0,0.0,0.0,0.0,0.0,0.0,0.0,0.0,0.0,0.0,0.0,0.0,0.0,0.0,0.0,0.0,0.0,0.0,0.0,0.0,0.0,0.0,0.0,0.0,0.0,0.0,0.0,0.0,0.0,0.0,0.0,0.0,0.0,0.0,0.0,0.0,0.0,0.0,0.0,0.0,0.0,0.0,0.0,0.0,0.0,0.0,0.0,0.0,0.0,0.0,0.0,0.0,0.0,0.0,0.0,0.0,0.0,0.0,0.0,0.0,0.0,0.0,0.0,0.0,0.0,0.0,0.0,0.0,0.0,0.0,0.0,0.0,0.0,0.0,0.0,0.0,0.0,1.0866,1.1444,1.174,1.175,1.158,1.1443,1.1381,0.0,0.0,0.0,0.0,0.0,0.0,0.0,0.0,0.0,0.0,0.0,0.0,0.0,0.0,0.0,0.0,0.0,0.0,0.0,0.0,0.0,0.0,0.0,0.0,0.0,0.0,0.0,0.0,0.0,0.0,0.0,0.0,0.0,0.0,0.0,0.0,0.0,0.0,0.0,0.0,0.0,0.0,0.0,0.0,0.0,0.0,0.0,0.0,0.0,0.0,0.0,0.0,0.0,0.0,0.0,0.0,0.0,0.0,0.0,0.0,0.0,0.0,0.0,0.0,0.0,0.0,0.0,0.0,0.0,0.0,0.0,0.0,0.0,0.0,0.0,0.0,0.0,0.0,0.0,0.0,0.0,0.0,0.0,0.0,0.0,0.0,0.0,0.0,0.0,0.0,0.0,0.0,0.0,0.0,0.0,0.0,0.0,0.0,0.0,0.0,0.0,0.0,0.0,0.0,0.0,0.0,0.0,0.0,1.0077,1.0801,1.1215,1.1261,1.1218,1.1131,0.0,0.0,0.0,0.0,0.0,0.0,0.0,0.0,0.0,0.0,0.0,0.0,0.0,0.0,0.0,0.0,0.0,0.0,0.0,0.0,0.0,0.0,0.0,0.0,0.0,0.0,0.0,0.0,0.0,0.0,0.0,0.0,0.0,0.0,0.0,0.0,0.0,0.0,0.0,0.0,0.0,0.0,0.0,0.0,0.0,0.0,0.0,0.0,0.0,0.0,0.0,0.0,0.0,0.0,0.0,0.0,0.0,0.0,0.0,0.0,0.0,0.0,0.0,0.0,0.0,0.0,0.0,0.0,0.0,0.0,0.0,0.0,0.0,0.0,0.0,0.0,0.0,0.0,0.0,0.0,0.0,0.0,0.0,0.0,0.0,0.0,0.0,0.0,0.0,0.0,0.0,0.0,0.0,0.0,0.0,0.0,0.0,0.0,0.0,0.0,0.0,0.0,0.0,0.0,0.0,0.0,0.0,0.0,0.0,0.9722,0.9949,1.023,1.0618,1.0505,1.0308,0.0,0.0,0.0,0.0,0.0,0.0,0.0,0.0,0.0,0.0,0.0,0.0,0.0,0.0,0.0,0.0,0.0,0.0,0.0,0.0,0.0,0.0,0.0,0.0,0.0,0.0,0.0,0.0,0.0,0.0,0.0,0.0,0.0,0.0,0.0,0.0,0.0,0.0,0.0,0.0,0.0,0.0,0.0,0.0,0.0,0.0,0.0,0.0,0.0,0.0,0.0,0.0,0.0,0.0,0.0,0.0,0.0,0.0,0.0,0.0,0.0,0.0,0.0,0.0,0.0,0.0,0.0,0.0,0.0,0.0,0.0,0.0,0.0,0.0,0.0,0.0,0.0,0.0,0.0,0.0,0.0,0.0,0.0,0.0,0.0,0.0,0.0,0.0,0.0,0.0,0.0,0.0,0.0,0.0,0.0,0.0,0.0,0.0,0.0,0.0,0.0,0.0,0.0,0.0,0.0,0.0,0.0,0.0,0.871,0.8775,0.8857,0.908,0.9369,0.9698,0.9798,0.0,0.0,0.0,0.0,0.0,0.0,0.0,0.0,0.0,0.0,0.0,0.0,0.0,0.0,0.0,0.0,0.0,0.0,0.0,0.0,0.0,0.0,0.0,0.0,0.0,0.0,0.0,0.0,0.0,0.0,0.0,0.0,0.0,0.0,0.0,0.0,0.0,0.0,0.0,0.0,0.0,0.0,0.0,0.0,0.0,0.0,0.0,0.0,0.0,0.0,0.0,0.0,0.0,0.0,0.0,0.0,0.0,0.0,0.0,0.0,0.0,0.0,0.0,0.0,0.0,0.0,0.0,0.0,0.0,0.0,0.0,0.0,0.0,0.0,0.0,0.0,0.0,0.0,0.0,0.0,0.0,0.0,0.0,0.0,0.0,0.0,0.0,0.0,0.0,0.0,0.0,0.0,0.0,0.0,0.0,0.0,0.0,0.0,0.0,0.0,0.0,0.0,0.0,0.0,0.0,0.0,0.0,0.0,0.7602,0.7478,0.769,0.7839,0.7864,0.8857,0.9314,0.0,0.0,0.0,0.0,0.0,0.0,0.0,0.0,0.0,0.0,0.0,0.0,0.0,0.0,0.0,0.0,0.0,0.0,0.0,0.0,0.0,0.0,0.0,0.0,0.0,0.0,0.0,0.0,0.0,0.0,0.0,0.0,0.0,0.0,0.0,0.0,0.0,0.0,0.0,0.0,0.0,0.0,0.0,0.0,0.0,0.0,0.0,0.0,0.0,0.0,0.0,0.0,0.0,0.0,0.0,0.0,0.0,0.0,0.0,0.0,0.0,0.0,0.0,0.0,0.0,0.0,0.0,0.0,0.0,0.0,0.0,0.0,0.0,0.0,0.0,0.0,0.0,0.0,0.0,0.0,0.0,0.0,0.0,0.0,0.0,0.0,0.0,0.0,0.0,0.0,0.0,0.0,0.0,0.0,0.0,0.0,0.0,0.0,0.0,0.0,0.0,0.0,0.0,0.0,0.0,0.0,0.0,0.0,0.6683,0.6661,0.6711,0.6736,0.6736,0.7584,0.8037,0.0,0.0,0.0,0.0,0.0,0.0,0.0,0.0,0.0,0.0,0.0,0.0,0.0,0.0,0.0,0.0,0.0,0.0,0.0,0.0,0.0,0.0,0.0,0.0,0.0,0.0,0.0,0.0,0.0,0.0,0.0,0.0,0.0,0.0,0.0,0.0,0.0,0.0,0.0,0.0,0.0,0.0,0.0,0.0,0.0,0.0,0.0,0.0,0.7785,0.0,0.0,0.0,0.0,0.0,0.0,0.0,0.0,0.0,0.0,0.0,0.0,0.0,0.0,0.0,0.0,0.0,0.0,0.0,0.0,0.0,0.0,0.0,0.0,0.0,0.0,0.0,0.0,0.0,0.0,0.0,0.0,0.0,0.0,0.0,0.0,0.0,0.0,0.0,0.0,0.0,0.0,0.0,0.0,0.0,0.0,0.0,0.0,0.0,0.0,0.0,0.0,0.0,0.0,0.0,0.0,0.0,0.0,0.0,0.5912,0.5661,0.5762,0.5787,0.5687,0.5937,0.6429,0.0,0.0,0.0,0.0,0.0,0.0,0.0,0.0,0.0,0.0,0.0,0.0,0.0,0.0,0.0,0.0,0.0,0.0,0.0,0.0,0.0,0.0,0.0,0.0,0.0,0.0,0.0,0.0,0.0,0.0,0.0,0.0,0.0,0.0,0.0,0.0,0.0,0.0,0.0,0.0,0.0,0.0,0.0,0.0,0.0,0.0,0.0,0.0,0.0,0.0,0.0,0.0,0.0,0.0,0.0,0.0,0.0,0.0,0.0,0.0,0.0,0.0,0.0,0.0,0.0,0.0,0.0,0.0,0.0,0.0,0.0,0.0,0.0,0.0,0.0,0.0,0.0,0.0,0.0,0.0,0.0,0.0,0.0,0.0,0.0,0.0,0.0,0.0,0.0,0.0,0.0,0.0,0.0,0.0,0.0,0.0,0.0,0.0,0.0,0.0,0.0,0.0,0.0,0.0,0.0,0.0,0.0,0.5295,0.5186,0.4709,0.4864,0.4864,0.4634,0.4311,0.4684,0.5782,0.0,0.0,0.0,0.0,0.0,0.0,0.0,0.0,0.0,0.0,0.0,0.0,0.0,0.0,0.0,0.0,0.0,0.0,0.0,0.0,0.0,0.0,0.0,0.0,0.0,0.0,0.0,0.0,0.0,0.0,0.0,0.0,0.0,0.0,0.0,0.0,0.0,0.0,0.6032,0.6185,0.0,0.0,0.0,0.0,0.0,0.0,0.0,0.0,0.6112,0.0,0.0,0.0,0.0,0.0,0.0,0.0,0.0,0.0,0.0,0.0,0.0,0.0,0.0,0.0,0.0,0.0,0.0,0.0,0.0,0.0,0.0,0.0,0.0,0.0,0.0,0.0,0.0,0.0,0.0,0.0,0.0,0.0,0.0,0.0,0.0,0.0,0.0,0.0,0.0,0.0,0.0,0.0,0.0,0.0,0.0,0.0,0.0,0.0,0.0,0.0,0.0,0.0,0.0,0.0,0.0,0.4514,0.4555,0.4462,0.4157,0.3956,0.383,0.378,0.333,0.3176,0.3399,0.0,0.0,0.0,0.0,0.0,0.0,0.0,0.0,0.0,0.0,0.0,0.0,0.0,0.0,0.0,0.0,0.0,0.0,0.0,0.0,0.0,0.0,0.0,0.0,0.0,0.0,0.0,0.0,0.0,0.0,0.0,0.0,0.0,0.0,0.0,0.0,0.0,0.0,0.0,0.4735,0.4816,0.0,0.0,0.0,0.0,0.0,0.0,0.0,0.0,0.4926,0.0,0.0,0.0,0.0,0.0,0.0,0.0,0.0,0.0,0.0,0.0,0.0,0.0,0.0,0.0,0.0,0.0,0.0,0.0,0.0,0.0,0.0,0.0,0.0,0.0,0.0,0.0,0.0,0.0,0.0,0.0,0.0,0.0,0.0,0.0,0.0,0.0,0.0,0.0,0.0,0.0,0.0,0.0,0.0,0.0,0.0,0.0,0.0,0.0,0.0,0.0,0.0,0.0,0.0,0.0,0.4383,0.4135,0.3858,0.3581,0.3201,0.2924,0.2773,0.2242,0.1967,0.0,0.0,0.0,0.0,0.0,0.0,0.0,0.0,0.0,0.0,0.0,0.0,0.0,0.0,0.0,0.0,0.0,0.0,0.0,0.0,0.0,0.0,0.0,0.0,0.0,0.0,0.0,0.0,0.0,0.0,0.0,0.0,0.0,0.0,0.0,0.0,0.0,0.0,0.0,0.0,0.3457,0.3461,0.3164,0.0,0.0,0.0,0.0,0.0,0.0,0.4176,0.4269,0.0,0.0,0.0,0.0,0.0,0.0,0.0,0.0,0.0,0.0,0.0,0.0,0.0,0.0,0.0,0.0,0.0,0.0,0.0,0.0,0.0,0.0,0.0,0.0,0.0,0.0,0.0,0.0,0.0,0.0,0.0,0.0,0.0,0.0,0.0,0.0,0.0,0.0,0.0,0.0,0.0,0.0,0.0,0.0,0.0,0.0,0.0,0.0,0.0,0.0,0.0,0.0,0.0,0.0,0.0,0.416,0.3729,0.3352,0.2952,0.2446,0.2019,0.1765,0.121,0.0882,0.0,0.0,0.0,0.0,0.0,0.0,0.0,0.0,0.0,0.0,0.0,0.0,0.0,0.0,0.0,0.0,0.0,0.0,0.0,0.0,0.0,0.0,0.0,0.0,0.0,0.0,0.0,0.0,0.0,0.0,0.0,0.0,0.0,0.0,0.0,0.0,0.0,0.0,0.0,0.0,0.0,0.2069,0.1789,0.1932,0.0,0.0,0.0,0.0,0.3273,0.3406,0.0,0.0,0.0,0.0,0.0,0.0,0.0,0.0,0.0,0.0,0.0,0.0,0.0,0.0,0.0,0.0,0.0,0.0,0.0,0.0,0.0,0.0,0.0,0.0,0.0,0.0,0.0,0.0,0.0,0.0,0.0,0.0,0.0,0.0,0.0,0.0,0.0,0.0,0.0,0.0,0.0,0.0,0.0,0.0,0.0,0.0,0.0,0.0,0.0,0.0,0.0,0.0,0.0,0.0,0.0,0.0,0.3358,0.3282,0.2876,0.2169,0.1615,0.1212,0.0934,0.0177,-0.0202,0.0,0.0,0.0,0.0,0.0,0.0,0.0,0.0,0.0,0.0,0.0,0.0,0.0,0.0,0.0,0.0,0.0,0.0,0.0,0.0,0.0,0.0,0.0,0.0,0.0,0.0,0.0,0.0,0.0,0.0,0.0,0.0,0.0,0.0,0.0,0.0,0.0,0.0,0.0,0.0,0.0,0.0559,0.028,0.0276,0.0382,0.0,0.0,0.1224,0.1784,0.2103,0.0,0.0,0.0,0.0,0.0,0.0,0.0,0.0,0.0,0.0,0.0,0.0,0.0,0.0,0.0,0.0,0.0,0.0,0.0,0.0,0.0,0.0,0.0,0.0,0.0,0.0,0.0,0.0,0.0,0.0,0.0,0.0,0.0,0.0,0.0,0.0,0.0,0.0,0.0,0.0,0.0,0.0,0.0,0.0,0.0,0.0,0.0,0.0,0.0,0.0,0.0,0.0,0.0,0.0,0.0,0.343,0.3206,0.275,0.2269,0.1792,0.0959,0.0454,0.0353,-0.0429,-0.0858,0.0,0.0,0.0,0.0,0.0,0.0,0.0,0.0,0.0,0.0,0.0,0.0,0.0,0.0,0.0,0.0,0.0,0.0,0.0,0.0,0.0,0.0,0.0,0.0,0.0,0.0,0.0,0.0,0.0,0.0,0.0,0.0,0.0,0.0,0.0,0.0,0.0,0.0,0.0,0.0,0.0,0.0,-0.0488,-0.0512,0.0,0.0,0.0,0.0334,0.1085,0.0,0.0,0.0,0.0,0.0,0.0,0.0,0.0,0.0,0.0,0.0,0.0,0.0,0.0,0.0,0.0,0.0,0.0,0.0,0.0,0.0,0.0,0.0,0.0,0.0,0.0,0.0,0.0,0.0,0.0,0.0,0.0,0.0,0.0,0.0,0.0,0.0,0.0,0.0,0.0,0.0,0.0,0.0,0.0,0.0,0.0,0.0,0.0,0.0,0.0,0.0,0.0,0.0,0.0,0.0,0.0,0.0,0.2977,0.2269,0.1716,0.1289,0.0379,-0.0177,-0.0303,-0.0959,0.0,0.0,0.0,0.0,0.0,0.0,0.0,0.0,0.0,0.0,0.0,0.0,0.0,0.0,0.0,0.0,0.0,0.0,0.0,0.0,0.0,0.0,0.0,0.0,0.0,0.0,0.0,-0.0618,0.0,0.0,0.0,0.0,0.0,0.0,0.0,0.0,0.0,0.0,0.0,0.0,0.0,0.0,-0.1112,-0.1135,-0.113,-0.107,0.0,0.0,-0.046,0.0316,0.051,0.0776,0.0,0.0,0.0,0.0,0.0,0.0,0.0,0.0,0.0,0.0,0.0,0.0,0.0,0.0,0.0,0.0,0.0,0.0,0.0,0.0,0.0,0.0,0.0,0.0,0.0,0.0,0.0,0.0,0.0,0.0,0.0,0.0,0.0,0.0,0.0,0.0,0.0,0.0,0.0,0.0,0.0,0.0,0.0,0.0,0.0,0.0,0.0,0.0,0.0,0.0,0.0,0.0,0.0,0.0,0.2448,0.2421,0.1918,0.1263,0.0505,-0.0076,-0.0606,-0.1112,-0.1415,-0.1566,0.0,0.0,0.0,0.0,0.0,0.0,0.0,0.0,0.0,0.0,0.0,0.0,0.0,0.0,0.0,0.0,0.0,0.0,0.0,0.0,0.0,0.0,0.0,0.0,0.0,0.0,0.0,0.0,0.0,0.0,0.0,0.0,0.0,0.0,0.0,0.0,0.0,0.0,0.0,0.0,0.0,-0.1745,-0.1749,-0.1755,-0.1765,0.0,-0.154,-0.1208,-0.0833,-0.051,-0.0028,0.0723,0.0,0.0,0.0,0.0,0.0,0.0,0.0,0.0,0.0,0.0,0.0,0.0,0.0,0.0,0.0,0.0,0.0,0.0,0.0,0.0,0.0,0.0,0.0,0.0,0.0,0.0,0.0,0.0,0.0,0.0,0.0,0.0,0.0,0.0,0.0,0.0,0.0,0.0,0.0,0.0,0.0,0.0,0.0,0.0,0.0,0.0,0.0,0.0,0.0,0.0,0.0,0.0,0.0,0.2333,0.2154,0.1617,0.0982,0.0183,-0.0362,-0.0848,-0.1259,-0.1474,-0.1592,0.0,0.0,0.0,0.0,0.0,0.0,0.0,0.0,0.0,0.0,0.0,0.0,0.0,0.0,0.0,0.0,0.0,0.0,0.0,0.0,0.0,0.0,0.0,0.0,0.0,0.0,0.0,0.0,-0.1585,-0.1667,-0.1819,0.0,0.0,0.0,0.0,0.0,0.0,0.0,0.0,0.0,0.0,-0.1807,-0.1857,-0.1868,0.0,0.0,-0.1811,-0.1606,-0.1255,-0.1056,-0.0723,-0.0027,0.043,0.0,0.0,0.0,0.0,0.0,0.0,0.0,0.0,0.0,0.0,0.0,0.0,0.0,0.0,0.0,0.0,0.0,0.0,0.0,0.0,0.0,0.0,0.0,0.0,0.0,0.0,0.0,0.0,0.0,0.0,0.0,0.0,0.0,0.0,0.0,0.0,0.0,0.0,0.0,0.0,0.0,0.0,0.0,0.0,0.0,0.0,0.0,0.0,0.0,0.0,0.0,0.0,0.2132,0.2012,0.1439,0.0711,-0.0107,-0.058,-0.1021,-0.1413,-0.1568,-0.163,0.0,0.0,0.0,0.0,0.0,0.0,0.0,0.0,0.0,0.0,0.0,0.0,0.0,0.0,0.0,0.0,0.0,0.0,0.0,0.0,0.0,0.0,0.0,0.0,0.0,0.0,0.0,0.0,-0.1592,-0.1693,-0.197,0.0,0.0,0.0,0.0,0.0,0.0,0.0,0.0,0.0,0.0,-0.1839,-0.1901,-0.1885,-0.1937,-0.1998,-0.1933,-0.1807,-0.1592,-0.1497,-0.1234,-0.0659,0.0,0.0,0.0,0.0,0.0,0.0,0.0,0.0,0.0,0.0,0.0,0.0,0.0,0.0,0.0,0.0,0.0,0.0,0.0,0.0,0.0,0.0,0.0,0.0,0.0,0.0,0.0,0.3589,0.0,0.0,0.3589,0.0,0.0,0.0,0.0,0.0,0.0,0.0,0.0,0.0,0.0,0.0,0.0,0.0,0.0,0.0,0.0,0.0,0.0,0.0,0.0,0.0,0.0,0.1832,0.2077,0.1306,0.0507,-0.0374,-0.072,-0.1146,-0.1676,-0.1702,-0.1688,-0.1712,0.0,0.0,0.0,0.0,0.0,0.0,0.0,0.0,0.0,0.0,0.0,0.0,0.0,0.0,0.0,0.0,0.0,0.0,0.0,0.0,0.0,0.0,0.0,0.0,0.0,0.0,-0.1568,-0.1592,-0.1693,0.0,0.0,0.0,0.0,0.0,0.0,0.0,0.0,0.0,-0.1821,-0.1804,-0.1839,-0.1901,-0.1885,-0.1937,-0.1967,-0.1949,-0.1889,-0.1861,-0.1801,-0.1563,0.0,0.0,0.0,0.0,0.0,0.0,0.0,0.0,0.0,0.0,0.0,0.0,0.0,0.0,0.0,0.0,0.0,0.0,0.0,0.0,0.0,0.0,0.0,0.0,0.0,0.0,0.0,0.3715,0.3654,0.0,0.0,0.0,0.0,0.0,0.0,0.0,0.0,0.0,0.0,0.0,0.3827,0.3827,0.0,0.0,0.0,0.0,0.0,0.0,0.0,0.0,0.0,0.0,0.0,0.0,0.1759,0.1814,0.1219,0.0381,-0.0689,-0.0845,-0.1165,-0.1761,-0.1705,-0.1786,-0.1972,0.0,0.0,0.0,0.0,0.0,0.0,0.0,0.0,0.0,0.0,0.0,0.0,0.0,0.0,0.0,0.0,0.0,0.0,0.0,0.0,0.0,0.0,0.0,0.0,0.0,-0.0782,0.0,0.0,0.0,0.0,0.0,0.0,0.0,0.0,0.0,0.0,-0.143,-0.1537,-0.1474,-0.1656,-0.1798,-0.182,-0.1873,-0.1841,0.0,0.0,0.0,0.0,0.0,0.0,0.0,0.0,0.0,0.0,0.0,0.0,0.0,0.0,0.3325,0.3325,0.3293,0.3261,0.3239,0.0,0.0,0.0,0.0,0.0,0.0,0.0,0.0,0.0,0.0,0.0,0.0,0.0,0.0,0.3776,0.3743,0.3781,0.0,0.0,0.0,0.0,0.0,0.0,0.0,0.0,0.3823,0.3831,0.3834,0.3834,0.382,0.0,0.379,0.3718,0.0,0.0,0.0,0.0,0.0,0.0,0.0,0.0,0.1865,0.1831,0.123,0.0356,-0.0661,-0.085,-0.1175,-0.1776,-0.1838,-0.2,-0.2279,-0.2434,-0.2615,0.0,0.0,0.0,0.0,0.0,0.0,0.0,0.0,0.0,0.0,0.0,0.0,0.0,0.0,0.0,0.0,0.0,0.0,0.0,0.0,0.0,0.0,0.0,-0.0398,0.0,0.0,0.0,0.0,0.0,0.0,0.0,0.0,0.0,-0.0476,-0.0701,-0.0877,-0.0964,-0.1197,-0.1354,-0.1463,0.0,0.0,0.0,0.0,0.0,0.0,0.0,0.0058,0.0426,0.1065,0.1749,0.2401,0.3062,0.3474,0.3471,0.0,0.0,0.342,0.3352,0.3328,0.3328,0.3322,0.3269,0.3269,0.3269,0.3269,0.0,0.0,0.0,0.0,0.2833,0.0,0.0,0.0,0.3806,0.3806,0.0,0.3806,0.0,0.0,0.0,0.0,0.3806,0.3867,0.0,0.0,0.3921,0.3918,0.3918,0.3915,0.3918,0.3897,0.3919,0.3885,0.3792,0.3342,0.0,0.0,0.0,0.0,0.0,0.0,0.2213,0.2157,0.1337,0.0488,-0.0374,-0.0732,-0.1204,-0.1807,-0.208,-0.2361,-0.2588,-0.2639,-0.2746,-0.2983,-0.3007,0.0,0.0,0.0,0.0,0.0,0.0,0.0,0.0,0.0,0.0,0.0,0.0,0.0,0.0,0.0,0.0,0.0,0.0,0.0,0.0,-0.0107,0.0,0.0,0.0,0.0,0.0,0.0,0.0,0.0,0.0,0.0738,0.0191,0.0082,-0.0055,-0.0336,0.0,0.0,0.0,0.0,-0.077,-0.0482,-0.0458,-0.0215,0.0453,0.0572,0.0745,0.1329,0.0,0.0,0.2977,0.339,0.3611,0.3614,0.358,0.355,0.3415,0.342,0.3388,0.3414,0.3409,0.3382,0.3385,0.3374,0.3377,0.2216,0.0,0.0,0.0,0.0,0.3313,0.3507,0.3869,0.3869,0.3875,0.3867,0.388,0.0,0.0,0.0,0.0,0.0,0.0,0.3893,0.3893,0.3912,0.392,0.392,0.392,0.3909,0.3893,0.391,0.388,0.3861,0.368,0.3413,0.3059,0.0,0.0,0.0,0.0,0.2335,0.212,0.1503,0.0646,-0.0434,-0.0764,-0.1293,-0.206,-0.2589,-0.2872,-0.2934,-0.3119,-0.3264,-0.3281,-0.3278,0.0,0.0,0.0,0.0,0.0,0.0,0.0,0.0,0.0,0.0,0.0,0.0,0.0,0.0,0.0,0.0,0.0,0.0,0.0,0.0773,0.0711,0.057,0.0,0.0,0.0,0.0,0.0,0.0,0.0,0.0,0.0,0.198,0.1417,0.088,0.0,0.0,0.0175,-0.0146,-0.0208,-0.006,0.0512,0.058,0.0,0.1479,0.1717,0.1907,0.2023,0.2447,0.2902,0.3365,0.3558,0.3589,0.3589,0.3589,0.3603,0.3545,0.3529,0.3474,0.3469,0.3441,0.3388,0.3385,0.3385,0.3388,0.2466,0.2841,0.2696,0.2953,0.3533,0.3531,0.3704,0.3988,0.3932,0.3934,0.3929,0.3915,0.388,0.3842,0.388,0.0,0.0,0.0,0.392,0.392,0.392,0.392,0.392,0.392,0.392,0.3918,0.3913,0.3897,0.3897,0.3864,0.3728,0.3454,0.0,0.3186,0.3319,0.2935,0.26,0.2288,0.1776,0.097,-0.0108,-0.0735,-0.1489,-0.2382,-0.2748,-0.304,-0.3289,-0.3451,-0.3515,-0.3485,-0.3482,-0.3471,0.0,0.0,0.0,0.0,0.0,0.0,0.0,0.0,0.0,0.0,0.0,-0.1587,-0.0996,0.0,0.0,0.0,0.0137,0.0473,0.0961,0.0926,0.0,0.0,0.0,0.0,0.0,0.0,0.0,0.2532,0.2672,0.2842,0.313,0.2713,0.2192,0.1568,0.1404,0.1178,0.0912,0.0,0.0995,0.1537,0.1587,0.1843,0.2497,0.2707,0.2831,0.2888,0.3119,0.3388,0.3563,0.3589,0.3589,0.3589,0.3589,0.3589,0.3589,0.3556,0.3531,0.3531,0.3504,0.3482,0.348,0.3482,0.3482,0.265,0.3261,0.287,0.3075,0.3647,0.3647,0.3838,0.4088,0.4034,0.4009,0.4007,0.395,0.3895,0.392,0.392,0.0,0.392,0.392,0.392,0.392,0.392,0.392,0.392,0.392,0.392,0.392,0.392,0.392,0.3915,0.3894,0.3897,0.3894,0.3773,0.371,0.3676,0.3329,0.2971,0.2631,0.2104,0.1355,0.0348,-0.076,-0.1739,-0.2636,-0.2692,-0.2973,-0.353,-0.3589,-0.3589,-0.3586,-0.3589,-0.3561,-0.348,0.0,0.0,0.0,0.0,0.0,0.0,0.0,0.0,0.0,0.0,0.0,0.0,0.0,0.0,-0.0275,0.0,0.0,0.0633,0.0864,0.0,0.0,0.0,0.165,0.1974,0.2003,0.2356,0.3237,0.0,0.0,0.3777,0.3858,0.3575,0.2633,0.2511,0.2391,0.2126,0.2065,0.2203,0.2508,0.2567,0.2775,0.3358,0.3477,0.3529,0.3677,0.3757,0.3668,0.3619,0.36,0.3597,0.3628,0.3591,0.3589,0.3589,0.3614,0.3586,0.3611,0.3583,0.3611,0.3578,0.3606,0.3575,0.2984,0.3392,0.3531,0.3777,0.4033,0.4063,0.4071,0.4093,0.408,0.4072,0.4069,0.4009,0.3961,0.392,0.392,0.392,0.392,0.392,0.392,0.392,0.392,0.392,0.392,0.392,0.392,0.392,0.392,0.392,0.392,0.3907,0.3899,0.3893,0.3807,0.3754,0.3705,0.3517,0.3286,0.3036,0.2417,0.1346,-0.0163,-0.116,-0.1872,-0.2328,-0.2774,-0.3082,-0.3222,-0.3446,-0.3589,-0.3589,-0.3589,-0.3497,-0.3203,-0.3193,0.0,0.0,0.0,0.0,0.0,0.0,0.0,0.0,0.0,-0.0973,0.0027,0.0,0.07,0.0,0.1385,0.1575,0.1904,0.1992,0.0,0.0,0.2502,0.2649,0.2916,0.2974,0.3151,0.3621,0.372,0.3779,0.3869,0.3891,0.3832,0.3572,0.3356,0.3112,0.2808,0.2754,0.2883,0.3191,0.3262,0.3394,0.3699,0.3819,0.3814,0.3872,0.3817,0.3773,0.3757,0.3715,0.3685,0.3683,0.3644,0.3619,0.3591,0.3589,0.3589,0.3589,0.3589,0.3589,0.3589,0.3614,0.3614,0.309,0.3428,0.3801,0.4062,0.4294,0.4234,0.4237,0.4204,0.4177,0.4166,0.4161,0.4042,0.3985,0.3924,0.39,0.392,0.392,0.392,0.392,0.392,0.392,0.392,0.392,0.392,0.392,0.392,0.392,0.392,0.3918,0.3893,0.3893,0.3918,0.3856,0.3836,0.3793,0.3624,0.3415,0.3136,0.2412,0.1446,0.0254,-0.0571,-0.1371,-0.2156,-0.241,-0.2711,-0.3082,-0.3169,-0.3197,-0.3197,-0.3197,-0.3054,-0.2718,-0.2688,-0.2547,0.0,0.0,0.0,0.0,0.0,0.0,0.0,0.0,0.0,0.0,0.0,0.0921,0.1395,0.1465,0.1684,0.2172,0.2233,0.2419,0.2885,0.2945,0.3067,0.3367,0.3397,0.3517,0.382,0.388,0.3902,0.3902,0.3899,0.392,0.392,0.3764,0.3609,0.3455,0.3394,0.3455,0.3671,0.3671,0.3702,0.3889,0.3893,0.3891,0.3894,0.3894,0.3831,0.3803,0.377,0.3748,0.3746,0.3718,0.3696,0.3696,0.3672,0.363,0.3652,0.3633,0.3589,0.3589,0.3564,0.3548,0.3155,0.3441,0.3901,0.4198,0.4414,0.4349,0.4316,0.4303,0.4251,0.4224,0.4177,0.4072,0.4023,0.4012,0.3963,0.3911,0.3911,0.3942,0.3911,0.3911,0.3911,0.3911,0.3911,0.3942,0.3908,0.39,0.39,0.3897,0.3918,0.3897,0.3899,0.3915,0.3897,0.3899,0.3907,0.3709,0.3454,0.3132,0.2295,0.16,0.106,0.0353,-0.0644,-0.1876,-0.1817,-0.209,-0.2822,-0.2683,-0.257,-0.257,-0.257,-0.2429,-0.2118,-0.209,-0.1961,0.0,-0.1637,0.0,0.0,0.0,0.0,0.0,0.0,0.0,0.0,0.0644,0.0798,0.1093,0.1154,0.146,0.2086,0.2179,0.2433,0.3048,0.3114,0.324,0.3517,0.3548,0.364,0.3859,0.392,0.392,0.3918,0.392,0.392,0.392,0.3889,0.3859,0.3889,0.3859,0.3859,0.392,0.392,0.3859,0.3889,0.3918,0.3901,0.3913,0.3905,0.3883,0.3807,0.382,0.3812,0.3809,0.3798,0.3792,0.3798,0.378,0.3779,0.3802,0.3785,0.3743,0.3642,0.3581,0.3507,0.3418,0.3522,0.42,0.4526,0.4567,0.4425,0.4352,0.4308,0.4294,0.4262,0.4215,0.4194,0.4123,0.4077,0.4066,0.4061,0.4061,0.4061,0.4061,0.4061,0.4061,0.4061,0.4061,0.4061,0.4034,0.3991,0.3956,0.3932,0.392,0.3909,0.3909,0.392,0.3907,0.3909,0.3918,0.0,0.0,0.0,0.2666,0.2052,0.1414,0.0471,-0.0235,-0.0733,-0.1173,0.0,-0.1634,-0.1868,-0.1986,-0.1957,-0.1957,0.0,0.0,0.0,0.0,0.0,0.0,0.0,0.0,0.0,0.0,0.0,0.0563,0.077,0.0822,0.1309,0.1652,0.1743,0.2005,0.2387,0.2795,0.3073,0.3354,0.3671,0.3733,0.3764,0.3825,0.3825,0.3859,0.3889,0.392,0.392,0.392,0.392,0.392,0.392,0.392,0.392,0.392,0.392,0.392,0.392,0.392,0.392,0.392,0.392,0.3918,0.3904,0.3904,0.3896,0.388,0.3899,0.3905,0.3902,0.3831,0.383,0.383,0.3992,0.4188,0.4188,0.4306,0.424,0.3709,0.3608,0.3639,0.3685,0.3898,0.4457,0.4666,0.0,0.4578,0.4515,0.439,0.4333,0.4308,0.4272,0.4305,0.4289,0.4259,0.4196,0.4182,0.4182,0.4215,0.4182,0.4182,0.4215,0.4182,0.4182,0.4153,0.4123,0.4091,0.4064,0.4031,0.4004,0.3974,0.3961,0.393,0.3903,0.392,0.392,0.3947,0.3746,0.3415,0.2979,0.2426,0.1769,0.1097,0.0454,-0.0119,-0.0477,0.0,0.0,0.0,0.0,0.0,0.0,0.0,0.0,-0.0861,0.0,-0.0238,-0.003,0.0121,0.0301,0.0573,0.0724,0.0754,0.1063,0.1247,0.1176,0.164,0.1954,0.1954,0.2304,0.2621,0.296,0.3301,0.3609,0.3859,0.392,0.392,0.392,0.392,0.392,0.392,0.392,0.392,0.392,0.392,0.392,0.392,0.392,0.392,0.392,0.392,0.392,0.392,0.392,0.392,0.392,0.392,0.392,0.392,0.392,0.392,0.392,0.3896,0.3935,0.4085,0.4119,0.4129,0.4307,0.4462,0.4611,0.4753,0.4845,0.4872,0.4621,0.4311,0.4033,0.392,0.4248,0.4622,0.4743,0.4644,0.4685,0.4638,0.4491,0.4373,0.0,0.0,0.4387,0.4387,0.4395,0.4346,0.4327,0.4338,0.4338,0.4338,0.4338,0.4338,0.4338,0.4335,0.4289,0.4226,0.4212,0.4199,0.4169,0.4126,0.4074,0.4053,0.4047,0.4015,0.4004,0.4015,0.405,0.3909,0.3589,0.3275,0.2818,0.2217,0.1804,0.1221,0.0397,0.0183,-0.0151,-0.0627,-0.0654,-0.0653,-0.0654,-0.0594,-0.0445,-0.0178,-0.015,0.0061,0.0546,0.0582,0.071,0.0988,0.105,0.1112,0.1174,0.1421,0.1606,0.1606,0.1822,0.2038,0.2068,0.2375,0.2745,0.3053,0.3394,0.364,0.3889,0.392,0.392,0.392,0.392,0.392,0.392,0.392,0.392,0.392,0.392,0.392,0.392,0.392,0.392,0.392,0.392,0.392,0.392,0.392,0.392,0.392,0.392,0.392,0.392,0.392,0.392,0.3982,0.3982,0.4133,0.4435,0.453,0.4681,0.4926,0.5061,0.5203,0.5527,0.5576,0.5663,0.5881,0.5484,0.4993,0.4238,0.4303,0.4643,0.4793,0.4764,0.4721,0.466,0.4586,0.4436,0.439,0.4395,0.4343,0.4349,0.4398,0.439,0.4412,0.4493,0.4493,0.4458,0.4458,0.4458,0.4458,0.4458,0.4484,0.442,0.4373,0.4365,0.4333,0.4286,0.4273,0.4237,0.4273,0.4313,0.4354,0.4401,0.4368,0.4177,0.3835,0.3635,0.3342,0.2958,0.2346,0.183,0.1406,0.0758,0.0408,0.0313,0.0309,0.0307,0.0307,0.0582,0.0767,0.0798,0.0768,0.0861,0.0923,0.0925,0.0957,0.1019,0.1266,0.1544,0.1822,0.1915,0.1915,0.1915,0.1977,0.2099,0.2406,0.2714,0.3053,0.3394,0.3671,0.3856,0.3889,0.392,0.392,0.392,0.392,0.392,0.392,0.392,0.392,0.392,0.392,0.392,0.392,0.392,0.392,0.392,0.392,0.392,0.392,0.392,0.392,0.392,0.392,0.392,0.392,0.392,0.4041,0.4287,0.4376,0.4502,0.4779,0.5087,0.5298,0.5391,0.5812,0.622,0.6607,0.6744,0.6986,0.7273,0.7168,0.6761,0.4512,0.4629,0.4779,0.4823,0.4798,0.4775,0.4717,0.4706,0.4559,0.4531,0.4627,0.4597,0.458,0.4604,0.4604,0.4638,0.4666,0.4666,0.4646,0.4619,0.4616,0.4619,0.4613,0.4583,0.4518,0.4493,0.4458,0.4431,0.4401,0.4371,0.4357,0.4357,0.4354,0.4379,0.4431,0.4412,0.4343,0.4231,0.3895,0.3518,0.3167,0.2643,0.2308,0.2128,0.1474,0.1086,0.1086,0.092,0.0822,0.0822,0.091,0.1,0.1,0.0993,0.1081,0.1266,0.1266,0.1359,0.1514,0.1668,0.1914,0.2253,0.2251,0.2346,0.2531,0.2376,0.2406,0.2745,0.3083,0.3332,0.3486,0.3764,0.392,0.392,0.392,0.392,0.392,0.392,0.392,0.392,0.392,0.392,0.392,0.392,0.392,0.392,0.392,0.392,0.392,0.392,0.392,0.392,0.392,0.392,0.392,0.392,0.3979,0.4133,0.4164,0.4318,0.4626,0.4807,0.5053,0.5394,0.5851,0.6245,0.6434,0.6863,0.7291,0.7617,0.7773,0.7972,0.8226,0.8259,0.7851,0.4757,0.4939,0.4937,0.4896,0.4826,0.4818,0.4828,0.4831,0.4749,0.4747,0.4863,0.4804,0.4756,0.4769,0.478,0.4807,0.4779,0.4777,0.4749,0.4745,0.4706,0.4706,0.4734,0.4679,0.4652,0.4644,0.4589,0.4559,0.4518,0.448,0.4458,0.4455,0.4412,0.4412,0.4458,0.4444,0.4461,0.4493,0.416,0.3785,0.3379,0.2976,0.2723,0.2622,0.1989,0.1625,0.1588,0.1356,0.1226,0.1225,0.1245,0.1238,0.1269,0.122,0.1334,0.1582,0.1608,0.173,0.1977,0.2068,0.2222,0.2467,0.256,0.2745,0.3024,0.2878,0.2816,0.3086,0.3332,0.3517,0.3609,0.3764,0.392,0.392,0.392,0.392,0.392,0.392,0.392,0.392,0.392,0.392,0.392,0.392,0.3895,0.3908,0.395,0.3958,0.4051,0.4085,0.408,0.4156,0.4083,0.4041,0.401,0.4102,0.4256,0.4469,0.4499,0.4718,0.5025,0.5364,0.5728,0.6131,0.6709,0.7164,0.7566,0.7903,0.8208,0.8477,0.8556,0.8714,0.9134,0.9245,0.883,0.5115,0.5101,0.5093,0.4991,0.4894,0.4883,0.4907,0.4961,0.4999,0.5066,0.5033,0.4741,0.4682,0.4721,0.4786,0.4798,0.4796,0.4799,0.4793,0.4788,0.4791,0.4791,0.478,0.4766,0.4775,0.4764,0.4712,0.4685,0.4685,0.4674,0.4674,0.4677,0.4671,0.4666,0.4632,0.4619,0.4597,0.46,0.4501,0.4257,0.3836,0.3521,0.3153,0.2771,0.2058,0.1666,0.1615,0.1591,0.1548,0.158,0.1837,0.1996,0.1993,0.1936,0.192,0.1951,0.1961,0.1977,0.2008,0.2284,0.2471,0.2498,0.2779,0.309,0.3432,0.3409,0.3414,0.3475,0.3489,0.3619,0.3828,0.3892,0.3895,0.3897,0.392,0.392,0.392,0.392,0.392,0.392,0.3895,0.392,0.3931,0.3965,0.3978,0.4053,0.4158,0.4281,0.4537,0.4635,0.4712,0.4816,0.467,0.4416,0.441,0.4626,0.4779,0.4872,0.4902,0.521,0.5671,0.5947,0.6131,0.7016,0.7566,0.7964,0.8238,0.8574,0.8909,0.9153,0.9275,0.9427,1.0004,1.0286,0.9947,0.5221,0.5166,0.5166,0.5117,0.5038,0.4929,0.4929,0.5019,0.5011,0.4988,0.5046,0.4937,0.4886,0.4877,0.4902,0.4869,0.4861,0.4861,0.4842,0.481,0.481,0.481,0.4804,0.4785,0.4807,0.4809,0.4782,0.4771,0.4766,0.4773,0.4756,0.4754,0.4756,0.4773,0.4763,0.4748,0.4718,0.4715,0.4657,0.4556,0.4297,0.3745,0.3322,0.3095,0.2387,0.1997,0.1949,0.1957,0.1943,0.1941,0.2044,0.2091,0.209,0.2063,0.2045,0.2077,0.2258,0.2345,0.2345,0.2662,0.2945,0.3133,0.3293,0.3483,0.3802,0.3854,0.3856,0.387,0.3865,0.3896,0.3986,0.3959,0.3969,0.3966,0.3911,0.392,0.392,0.392,0.39,0.393,0.3938,0.3985,0.4046,0.4213,0.4383,0.4438,0.4596,0.4807,0.4997,0.5154,0.5337,0.5464,0.5618,0.546,0.496,0.4991,0.5241,0.5486,0.5671,0.6035,0.6591,0.6985,0.7322,0.7903,0.836,0.8696,0.8879,0.9396,0.9792,0.9883,1.0088,1.0277,1.055,1.0702,1.0446,0.5297,0.5232,0.521,0.5177,0.5131,0.5007,0.4994,0.5066,0.5004,0.5049,0.5076,0.5136,0.5128,0.5076,0.5071,0.4999,0.495,0.4945,0.4912,0.4861,0.4856,0.4856,0.4856,0.4837,0.4834,0.4829,0.4812,0.4807,0.4804,0.4804,0.4779,0.4779,0.4779,0.4801,0.4799,0.4801,0.4779,0.4777,0.4736,0.4751,0.4593,0.3905,0.3456,0.3352,0.2644,0.222,0.221,0.219,0.2213,0.2211,0.2135,0.2108,0.2133,0.2138,0.2147,0.2228,0.2452,0.2646,0.2743,0.3065,0.3353,0.3576,0.3672,0.3833,0.4032,0.4109,0.4118,0.4118,0.4134,0.4134,0.4091,0.4055,0.4031,0.4023,0.3991,0.3935,0.3969,0.3935,0.3956,0.402,0.4028,0.4105,0.4275,0.462,0.4862,0.4897,0.5173,0.5443,0.5606,0.5938,0.6223,0.6324,0.6859,0.6696,0.5706,0.5846,0.6081,0.6311,0.665,0.7016,0.7566,0.7872,0.8208,0.8513,0.9092,0.9488,0.9609,1.0065,1.0422,1.0482,1.0664,1.0883,1.0936,1.1005,1.1095,0.5398,0.5289,0.5226,0.5202,0.5196,0.5185,0.5188,0.5191,0.524,0.524,0.5199,0.5254,0.5251,0.5194,0.5194,0.5161,0.5106,0.5098,0.5029,0.4977,0.4975,0.5014,0.5008,0.4921,0.4896,0.4896,0.4848,0.4818,0.4812,0.4807,0.4804,0.4804,0.4804,0.4804,0.4815,0.481,0.4804,0.4802,0.4791,0.4793,0.4718,0.3995,0.3588,0.3487,0.2718,0.2278,0.2217,0.221,0.2209,0.2208,0.2201,0.2189,0.2196,0.2201,0.2326,0.2564,0.2619,0.2779,0.3071,0.3394,0.3618,0.368,0.3913,0.4099,0.4112,0.4185,0.418,0.4213,0.4223,0.4245,0.4126,0.4099,0.4091,0.4088,0.4085,0.4077,0.408,0.4098,0.4082,0.4123,0.4193,0.4362,0.4688,0.5024,0.5289,0.5438,0.5649,0.6052,0.6477,0.6985,0.7441,0.7706,0.7998,0.8031,0.7047,0.704,0.7368,0.751,0.7645,0.796,0.8183,0.8446,0.8793,0.9129,0.9579,0.9943,1.0217,1.049,1.0732,1.0914,1.1065,1.1246,1.1277,1.1557,1.1587,0.5525,0.5443,0.5303,0.5262,0.5256,0.5218,0.5224,0.5256,0.524,0.5248,0.5262,0.5283,0.5281,0.5262,0.5303,0.5264,0.5175,0.5169,0.5158,0.5139,0.5136,0.5136,0.5131,0.5037,0.501,0.5038,0.4986,0.4899,0.4866,0.4864,0.4866,0.4866,0.4864,0.4883,0.4907,0.4883,0.4866,0.4864,0.4829,0.481,0.4775,0.4316,0.4021,0.3934,0.2908,0.2333,0.2267,0.2248,0.224,0.2274,0.2221,0.2205,0.2229,0.2461,0.2707,0.303,0.3291,0.3479,0.3585,0.3876,0.4041,0.4044,0.4176,0.421,0.4212,0.4228,0.4275,0.4278,0.4292,0.4281,0.4251,0.4174,0.415,0.4147,0.4118,0.4099,0.4158,0.4318,0.4497,0.4571,0.4741,0.5066,0.5426,0.5819,0.6137,0.6402,0.6931,0.7316,0.7555,0.8084,0.8529,0.8701,0.8987,0.9141,0.8804,0.8414,0.8393,0.8451,0.8606,0.8929,0.9187,0.9342,0.9676,0.9896,1.0261,1.0443,1.0717,1.0883,1.1126,1.1375,1.1557,1.1526,1.1617,1.1708,1.1776,0.558,0.5493,0.5457,0.5379,0.5371,0.5294,0.5283,0.5313,0.5259,0.5256,0.5292,0.5313,0.5324,0.5324,0.5388,0.5313,0.5237,0.5232,0.5221,0.5202,0.5202,0.5202,0.5196,0.5161,0.5142,0.5134,0.5101,0.5018,0.4988,0.4983,0.5022,0.5025,0.4983,0.5002,0.5026,0.4983,0.4956,0.4942,0.4896,0.4864,0.4826,0.452,0.4319,0.4185,0.3361,0.2799,0.2717,0.2719,0.2701,0.2698,0.2642,0.2624,0.2649,0.2847,0.3141,0.346,0.3735,0.3962,0.403,0.4226,0.4362,0.4362,0.4362,0.436,0.4341,0.4338,0.433,0.4313,0.4305,0.4305,0.4434,0.4434,0.4345,0.4273,0.4273,0.4313,0.4346,0.4711,0.4994,0.5198,0.5508,0.5904,0.6347,0.6748,0.7116,0.7488,0.8056,0.839,0.849,0.8989,0.9449,0.9489,0.9881,1.014,1.0115,0.9934,0.9446,0.9427,0.9551,0.9876,1.006,1.0244,1.0433,1.0686,1.0885,1.1012,1.1156,1.1323,1.1526,1.1754,1.1776,1.1708,1.1746,1.1776,1.1806,0.5605,0.5602,0.5599,0.5586,0.5564,0.5428,0.5384,0.5424,0.5327,0.5308,0.5324,0.5399,0.5457,0.5454,0.5499,0.5383,0.5421,0.546,0.5347,0.5215,0.5215,0.5218,0.5218,0.5207,0.5199,0.5194,0.5196,0.5194,0.518,0.5175,0.5177,0.5191,0.5177,0.5172,0.5196,0.5131,0.5067,0.5053,0.5007,0.4983,0.4944,0.4625,0.4483,0.4403,0.3963,0.3691,0.3611,0.349,0.3391,0.3427,0.3423,0.3477,0.3435,0.3433,0.3544,0.3858,0.3928,0.4135,0.4404,0.4469,0.4463,0.4463,0.4471,0.4479,0.4475,0.4467,0.4481,0.4476,0.4454,0.4482,0.4751,0.4806,0.4699,0.4406,0.462,0.4784,0.4857,0.5171,0.5577,0.5938,0.6351,0.6786,0.7383,0.7784,0.8156,0.849,0.8851,0.915,0.925,0.9788,1.0127,1.0352,1.0651,1.0949,1.1214,1.1398,1.0838,1.043,1.058,1.0781,1.0827,1.0955,1.1077,1.1294,1.1432,1.1557,1.1601,1.1731,1.1689,1.1841,1.1847,1.1815,1.1806,1.1806,1.1806,0.5665,0.566,0.5621,0.5602,0.5599,0.5561,0.5547,0.5542,0.5487,0.542,0.5499,0.5771,0.5885,0.5969,0.6115,0.6276,0.6276,0.6231,0.5906,0.5402,0.5349,0.5366,0.5358,0.5325,0.5243,0.5207,0.5202,0.5204,0.5204,0.5204,0.5202,0.5202,0.5204,0.5202,0.5207,0.5183,0.5175,0.5172,0.5155,0.5125,0.5048,0.4966,0.4857,0.4802,0.4609,0.4494,0.4459,0.3887,0.3588,0.3584,0.3518,0.3639,0.3839,0.3896,0.4052,0.4338,0.4403,0.4417,0.4488,0.452,0.4523,0.4517,0.452,0.4652,0.4846,0.4875,0.4967,0.5112,0.5149,0.5185,0.5247,0.5238,0.5221,0.508,0.5144,0.5245,0.5379,0.5815,0.6518,0.7254,0.7522,0.7889,0.8418,0.8756,0.8956,0.9322,0.9655,0.9921,1.022,1.0552,1.1016,1.128,1.1545,1.1611,1.1677,1.1776,1.1567,1.1253,1.1337,1.1401,1.1466,1.1605,1.1728,1.1812,1.1949,1.2011,1.2055,1.2044,1.1979,1.1906,1.1882,1.1872,1.1823,1.1806,1.1806,0.6317,0.6293,0.6251,0.6218,0.6194,0.6173,0.6161,0.6149,0.6092,0.6065,0.6139,0.6318,0.6424,0.646,0.6694,0.6768,0.6768,0.6765,0.6434,0.5921,0.5864,0.5888,0.5885,0.5846,0.5722,0.5563,0.5516,0.5434,0.527,0.527,0.527,0.527,0.527,0.5273,0.5267,0.5248,0.5237,0.5234,0.5213,0.5185,0.5155,0.5145,0.5117,0.506,0.5137,0.5187,0.512,0.4761,0.4427,0.4124,0.4001,0.4083,0.4299,0.4441,0.461,0.4799,0.4964,0.5018,0.4979,0.5053,0.4976,0.4973,0.4973,0.5068,0.5267,0.5328,0.5462,0.5737,0.5771,0.5881,0.6115,0.6149,0.6213,0.6549,0.6088,0.6024,0.6317,0.6786,0.7455,0.8156,0.8451,0.8823,0.9289,0.9522,0.9721,1.016,1.0425,1.0724,1.1016,1.128,1.1578,1.1776,1.1876,1.1942,1.1975,1.2074,1.2173,1.2058,1.2003,1.1939,1.1924,1.2147,1.2304,1.225,1.2298,1.2242,1.2255,1.219,1.2125,1.2052,1.1996,1.1939,1.1898,1.1831,1.1815,0.7442,0.739,0.7383,0.7335,0.7225,0.7156,0.7081,0.7064,0.704,0.7009,0.7049,0.7165,0.7205,0.7148,0.7341,0.7351,0.7095,0.7266,0.7318,0.7141,0.7011,0.6926,0.6618,0.6579,0.6411,0.6191,0.6146,0.5939,0.5687,0.5633,0.5474,0.5591,0.558,0.5505,0.5566,0.5446,0.5462,0.5498,0.5412,0.5384,0.5372,0.5329,0.5298,0.528,0.5553,0.5719,0.5694,0.5884,0.5708,0.4994,0.4819,0.4788,0.4816,0.5071,0.5211,0.5238,0.5607,0.5746,0.5818,0.5837,0.5877,0.5837,0.5834,0.587,0.5908,0.5969,0.6161,0.6493,0.6496,0.6694,0.7253,0.74,0.7708,0.8218,0.7435,0.7242,0.7986,0.8164,0.8515,0.9001,0.9246,0.9467,1.0219,1.0312,1.0618,1.0949,1.1148,1.1347,1.1611,1.1776,1.1843,1.2008,1.2206,1.2279,1.2338,1.2371,1.247,1.2437,1.2404,1.2338,1.2305,1.2504,1.2644,1.2596,1.254,1.2483,1.2426,1.2377,1.2328,1.2288,1.2207,1.2062,1.1973,1.1931,1.1849,0.8581,0.8561,0.8561,0.832,0.7969,0.7846,0.7633,0.7353,0.7591,0.7777,0.781,0.8329,0.8655,0.8642,0.89,0.9028,0.899,0.899,0.902,0.9036,0.8989,0.8091,0.7127,0.6903,0.6927,0.6795,0.6831,0.6716,0.6583,0.6489,0.6469,0.6505,0.634,0.6314,0.6343,0.6295,0.6324,0.6321,0.6308,0.6263,0.6221,0.6215,0.622,0.6156,0.627,0.6311,0.6234,0.6506,0.6392,0.5845,0.5691,0.5652,0.5649,0.568,0.5726,0.5799,0.6047,0.6261,0.6333,0.6551,0.6696,0.67,0.6773,0.6797,0.7066,0.7094,0.7405,0.7835,0.8002,0.8127,0.857,0.8618,0.882,0.9116,0.8716,0.857,0.9011,0.9234,0.9474,1.0079,1.0331,1.0658,1.0967,1.1233,1.1401,1.156,1.1652,1.1776,1.2041,1.2173,1.2206,1.2437,1.2634,1.2642,1.2675,1.27,1.2733,1.27,1.27,1.2634,1.2601,1.2692,1.275,1.2742,1.2694,1.2621,1.2637,1.2605,1.2564,1.2499,1.2369,1.2239,1.2182,1.2109,1.2012,1.031,1.0268,1.0268,0.9921,0.9421,0.9364,0.9065,0.8737,0.9055,0.923,0.9321,0.9941,1.02,1.0151,1.0356,1.0457,1.05,1.0457,1.0431,1.0429,1.0381,0.9544,0.8457,0.8141,0.807,0.7858,0.7685,0.7508,0.7281,0.707,0.6927,0.6917,0.6882,0.6823,0.6783,0.6819,0.6819,0.6816,0.6834,0.679,0.671,0.6884,0.6907,0.6932,0.7118,0.7487,0.7789,0.7932,0.7602,0.6873,0.6593,0.6545,0.6537,0.6614,0.6605,0.6637,0.7083,0.7385,0.7421,0.7711,0.7964,0.7969,0.7969,0.8073,0.8249,0.8326,0.8615,0.9033,0.9159,0.9347,0.9651,0.9806,0.9947,1.0171,1.0265,1.0251,1.0117,1.0184,1.0508,1.0966,1.133,1.1541,1.182,1.1877,1.197,1.2066,1.2046,1.2229,1.2437,1.247,1.2536,1.27,1.2799,1.2741,1.2741,1.2766,1.2799,1.2799,1.2799,1.2799,1.2799,1.2799,1.2799,1.2799,1.2799,1.2791,1.2742,1.2718,1.2726,1.2637,1.2507,1.2426,1.2369,1.2272,1.2174,1.2295,1.2149,1.2149,1.1851,1.1304,1.1233,1.0906,1.0676,1.0967,1.1094,1.1113,1.1594,1.1675,1.1582,1.1632,1.1576,1.1621,1.1621,1.1549,1.1533,1.145,1.0958,1.0251,0.9865,0.9652,0.9348,0.8887,0.8548,0.8248,0.7711,0.7393,0.7555,0.7508,0.7374,0.7611,0.745,0.7335,0.7478,0.7513,0.7525,0.7588,0.7838,0.798,0.7983,0.8455,0.9111,0.9542,0.9701,0.9164,0.7924,0.7663,0.7649,0.767,0.7857,0.7869,0.7989,0.8404,0.8754,0.8837,0.9085,0.9374,0.9338,0.9338,0.941,0.9374,0.9374,0.9554,0.9951,1.0029,1.0221,1.0653,1.0982,1.1149,1.1308,1.1801,1.169,1.1189,1.1136,1.1483,1.1787,1.214,1.2325,1.2322,1.2293,1.2307,1.2645,1.2559,1.2572,1.2698,1.2699,1.2683,1.2733,1.2799,1.2799,1.2766,1.2766,1.2799,1.2799,1.2799,1.2799,1.2799,1.2799,1.2799,1.2799,1.2799,1.2799,1.2791,1.2783,1.2783,1.275,1.2621,1.2613,1.2604,1.2442,1.232,1.3387,1.3357,1.3357,1.3011,1.2548,1.2458,1.2135,1.1712,1.2081,1.2266,1.2363,1.2774,1.2938,1.2902,1.2845,1.2914,1.2845,1.2839,1.2843,1.2741,1.2729,1.2562,1.2063,1.1505,1.1064,1.0789,1.0401,1.0136,0.9901,0.9488,0.9272,0.9223,0.9126,0.9198,0.9164,0.9091,0.9198,0.9194,0.9128,0.9076,0.9158,0.9473,0.9658,0.96,0.9957,1.0353,1.0748,1.0844,1.0708,1.0465,0.9855,0.9404,0.9286,0.9269,0.918,0.9224,0.9512,0.977,0.9727,1.0035,1.0239,1.0275,1.0311,1.0239,1.0239,1.0311,1.0455,1.0678,1.0786,1.1109,1.1649,1.2187,1.2259,1.2323,1.2466,1.2588,1.2379,1.2385,1.2442,1.2568,1.274,1.2916,1.2916,1.3003,1.3088,1.3193,1.3088,1.3,1.2928,1.2904,1.288,1.288,1.2856,1.2856,1.2799,1.2799,1.2799,1.2799,1.2799,1.2799,1.2799,1.2799,1.2799,1.2799,1.2799,1.2799,1.2799,1.2799,1.2791,1.2775,1.2767,1.2726,1.2686,1.2572,1.2507,1.4952,1.4717,1.4717,1.4294,1.3664,1.3556,1.3245,1.2952,1.326,1.3425,1.3468,1.3876,1.4028,1.3958,1.3958,1.3958,1.3958,1.3958,1.3925,1.3861,1.3848,1.381,1.372,1.3181,1.2747,1.2155,1.1688,1.1531,1.1375,1.1031,1.0733,1.0717,1.0615,1.0497,1.0564,1.0559,1.0526,1.0511,1.0508,1.0526,1.0565,1.0896,1.124,1.1237,1.137,1.16,1.2009,1.1855,1.2102,1.2262,1.1964,1.1229,1.0653,1.0422,1.0324,1.0341,1.0557,1.0694,1.0699,1.1055,1.1362,1.1296,1.1462,1.157,1.157,1.1563,1.1642,1.1785,1.19,1.2079,1.2438,1.2617,1.2789,1.2824,1.2968,1.3039,1.3039,1.3039,1.3039,1.3103,1.3275,1.342,1.3533,1.351,1.3488,1.3413,1.3309,1.323,1.3222,1.3165,1.3068,1.3035,1.2994,1.2913,1.2831,1.2799,1.2799,1.2799,1.2799,1.2799,1.2799,1.2799,1.2799,1.2799,1.2799,1.2799,1.2799,1.2799,1.2799,1.2791,1.2791,1.2799,1.2775,1.2678,1.2613,1.6469,1.6032,1.6032,1.5509,1.4798,1.4751,1.4557,1.4288,1.457,1.4752,1.4646,1.5097,1.5167,1.5071,1.5057,1.5043,1.5004,1.505,1.5057,1.5009,1.5002,1.4968,1.4888,1.4717,1.4371,1.3407,1.2867,1.2689,1.2509,1.2193,1.1944,1.1899,1.1788,1.1732,1.1688,1.1682,1.1716,1.1677,1.1654,1.1588,1.1604,1.1911,1.2335,1.2773,1.2745,1.2897,1.3211,1.3169,1.322,1.3824,1.3817,1.3039,1.2148,1.1631,1.1473,1.153,1.1735,1.1803,1.1794,1.212,1.2437,1.2381,1.2561,1.2726,1.2733,1.2596,1.2574,1.2646,1.2681,1.2753,1.286,1.3039,1.3039,1.3075,1.3253,1.3361,1.3396,1.3396,1.3396,1.3432,1.3587,1.3713,1.3724,1.375,1.3682,1.3625,1.3514,1.3451,1.3443,1.3394,1.3254,1.3223,1.3157,1.3059,1.2937,1.2815,1.2807,1.2815,1.2815,1.2799,1.2799,1.2799,1.2799,1.2799,1.2799,1.2799,1.2799,1.2799,1.2799,1.2799,1.2799,1.2799,1.2799,1.2799,1.271,1.6808,1.654,1.6587,1.6447,1.6346,1.6299,1.6158,1.6213,1.6166,1.6292,1.6216,1.6356,1.6334,1.6297,1.6359,1.6312,1.6182,1.6121,1.6131,1.6097,1.6075,1.5986,1.5853,1.58,1.5682,1.5366,1.4517,1.3847,1.3698,1.3287,1.3236,1.3099,1.3063,1.3045,1.3084,1.3017,1.3035,1.3008,1.2959,1.2904,1.2913,1.3167,1.3611,1.4164,1.4143,1.4238,1.4506,1.4579,1.4517,1.439,1.4338,1.4132,1.3757,1.3504,1.3278,1.3008,1.296,1.2853,1.2836,1.303,1.3126,1.3111,1.308,1.3042,1.3004,1.2929,1.3007,1.2977,1.3149,1.3241,1.3225,1.3487,1.3662,1.3734,1.3706,1.3769,1.3761,1.3753,1.3718,1.3726,1.3833,1.3896,1.3872,1.3855,1.3823,1.3731,1.3677,1.3604,1.3595,1.3506,1.3427,1.3386,1.3362,1.3214,1.31,1.2913,1.2823,1.2831,1.2831,1.2807,1.2799,1.2799,1.2799,1.2799,1.2799,1.2799,1.2799,1.2799,1.2799,1.2799,1.2799,1.2799,1.2799,1.2799,1.2799,1.7545,1.7224,1.7093,1.6915,1.6728,1.6673,1.6673,1.6673,1.6673,1.6673,1.6673,1.6673,1.6673,1.6673,1.6673,1.6673,1.672,1.6673,1.6675,1.6616,1.6608,1.6586,1.6481,1.6481,1.6442,1.6258,1.5704,1.5324,1.5275,1.5131,1.4894,1.492,1.4872,1.4824,1.4824,1.4849,1.4699,1.4683,1.467,1.4642,1.4554,1.4761,1.5034,1.5111,1.5176,1.513,1.517,1.5061,1.5074,1.5089,1.5023,1.5008,1.503,1.489,1.4553,1.3959,1.3708,1.355,1.3492,1.3567,1.3678,1.3616,1.365,1.3722,1.3699,1.3681,1.3574,1.3655,1.3699,1.3881,1.3897,1.4055,1.4095,1.4066,1.4042,1.4002,1.3937,1.3912,1.392,1.392,1.3904,1.3904,1.3904,1.3888,1.3896,1.3863,1.3815,1.3755,1.3723,1.3642,1.3555,1.3498,1.3465,1.3394,1.3238,1.3092,1.2946,1.2888,1.2864,1.284,1.2799,1.2799,1.2799,1.2799,1.2799,1.2799,1.2799,1.2799,1.2799,1.2799,1.2799,1.2799,1.2799,1.2799,1.2799,1.8319,1.786,1.7687,1.7374,1.7055,1.7008,1.7008,1.7008,1.7008,1.7055,1.7008,1.7048,1.7055,1.7001,1.7055,1.7055,1.7008,1.7048,1.7094,1.7087,1.7087,1.704,1.7001,1.7008,1.7071,1.708,1.7002,1.6847,1.6378,1.6302,1.6448,1.6287,1.63,1.6293,1.6178,1.6024,1.6286,1.6294,1.6287,1.6234,1.6159,1.6077,1.598,1.5889,1.5768,1.5706,1.5788,1.5619,1.5605,1.5698,1.5664,1.5638,1.578,1.5837,1.5353,1.4537,1.4174,1.3953,1.3931,1.4075,1.4255,1.4198,1.4335,1.4423,1.439,1.4284,1.4326,1.4395,1.4379,1.4317,1.4301,1.4379,1.4314,1.4278,1.4221,1.4188,1.4099,1.405,1.4042,1.401,1.3945,1.3912,1.392,1.3904,1.3904,1.3904,1.3855,1.3855,1.3804,1.3812,1.3758,1.3669,1.3587,1.349,1.3376,1.3271,1.3124,1.3027,1.2978,1.2896,1.2848,1.2799,1.2807,1.2807,1.2799,1.2799,1.2799,1.2807,1.2799,1.2799,1.2799,1.2799,1.2799,1.2799,1.2799,1.8736,1.8405,1.838,1.8228,1.7997,1.7989,1.7989,1.7943,1.7943,1.8036,1.7896,1.7989,1.7943,1.7943,1.7943,1.7989,1.7989,1.7896,1.7849,1.7803,1.7849,1.7849,1.7989,1.8036,1.7849,1.7803,1.7896,1.7468,1.7002,1.6815,1.6729,1.6754,1.6785,1.6699,1.6786,1.6825,1.6593,1.6535,1.6505,1.6437,1.6295,1.619,1.6324,1.6402,1.6419,1.6351,1.651,1.6376,1.6377,1.6197,1.6174,1.6095,1.5983,1.5853,1.578,1.5546,1.5256,1.4936,1.4784,1.4782,1.4788,1.4708,1.4749,1.4692,1.4651,1.4562,1.4452,1.4395,1.4419,1.4444,1.4497,1.4427,1.4387,1.4379,1.4399,1.4346,1.429,1.4221,1.4205,1.4148,1.4099,1.3993,1.3945,1.392,1.3904,1.3904,1.3896,1.3896,1.3904,1.3904,1.3904,1.379,1.3725,1.3636,1.3563,1.3441,1.3327,1.3189,1.31,1.3027,1.2946,1.2864,1.2815,1.2815,1.2815,1.2831,1.2856,1.2848,1.2815,1.2799,1.2799,1.2799,1.2799,1.2799,1.2799,1.8931,1.8598,1.854,1.8394,1.8184,1.8176,1.8176,1.8176,1.8176,1.8176,1.8176,1.8176,1.8176,1.8176,1.8176,1.8176,1.8176,1.8176,1.8176,1.8176,1.8176,1.8176,1.8176,1.8176,1.8176,1.8176,1.8176,1.8028,1.7616,1.7523,1.7523,1.7523,1.7515,1.76,1.7429,1.7523,1.753,1.7521,1.7451,1.7373,1.7186,1.7068,1.7041,1.7084,1.6996,1.6949,1.6935,1.6841,1.676,1.6534,1.6454,1.6276,1.617,1.6024,1.5894,1.5756,1.5642,1.5375,1.5132,1.513,1.5065,1.5015,1.4933,1.4901,1.4876,1.4781,1.4716,1.4741,1.4741,1.4724,1.4716,1.4732,1.4667,1.4589,1.4549,1.4484,1.4452,1.4395,1.4367,1.4265,1.4201,1.4131,1.3977,1.3807,1.379,1.3779,1.3787,1.3831,1.3863,1.3904,1.3904,1.3888,1.3839,1.379,1.3725,1.3644,1.352,1.339,1.3303,1.3206,1.3059,1.2986,1.2929,1.2904,1.2954,1.2962,1.297,1.2904,1.2872,1.284,1.2799,1.2823,1.284,1.2799,1.2799,1.9077,1.8777,1.859,1.8459,1.8288,1.8247,1.8176,1.8176,1.8176,1.8176,1.8176,1.8176,1.8176,1.8176,1.8176,1.8176,1.8176,1.8176,1.8176,1.8176,1.8176,1.8176,1.8176,1.8176,1.8176,1.8176,1.8176,1.8129,1.8129,1.8129,1.8083,1.8176,1.8036,1.8083,1.8129,1.8083,1.8067,1.8067,1.8067,1.8002,1.7897,1.7832,1.7716,1.7583,1.7429,1.7323,1.7177,1.6971,1.6882,1.6736,1.6574,1.6404,1.6292,1.617,1.6032,1.591,1.5821,1.5691,1.5447,1.5293,1.5179,1.5074,1.5015,1.4982,1.499,1.5006,1.4998,1.4958,1.4966,1.4974,1.4998,1.4982,1.4879,1.4806,1.4765,1.4676,1.4611,1.4603,1.4562,1.4452,1.4363,1.4278,1.4075,1.3758,1.366,1.3674,1.3698,1.3774,1.3823,1.3896,1.3904,1.3904,1.3888,1.3863,1.3831,1.3739,1.3674,1.3593,1.3506,1.3376,1.3214,1.3149,1.3141,1.3116,1.3084,1.3116,1.3165,1.3059,1.2945,1.3019,1.3035,1.2913,1.288,1.284,1.2807,1.9192,1.8948,1.8777,1.8598,1.8459,1.8296,1.8176,1.8176,1.8176,1.8176,1.8176,1.8176,1.8176,1.8176,1.8176,1.8176,1.8176,1.8176,1.8176,1.8176,1.8176,1.8176,1.8176,1.8176,1.8176,1.8176,1.8176,1.8176,1.8176,1.8176,1.8176,1.8176,1.8176,1.8176,1.8176,1.8176,1.8176,1.8176,1.8176,1.8176,1.8103,1.8022,1.79,1.7811,1.7575,1.738,1.7356,1.7185,1.6979,1.6858,1.6744,1.659,1.6438,1.63,1.6162,1.6064,1.595,1.5878,1.5707,1.5424,1.5229,1.5179,1.509,1.5031,1.5006,1.5006,1.5006,1.5006,1.5006,1.5006,1.5006,1.4998,1.4982,1.4958,1.4917,1.4901,1.4852,1.4884,1.4789,1.4684,1.4549,1.4481,1.4359,1.4083,1.3872,1.3876,1.388,1.392,1.3863,1.3904,1.3904,1.3904,1.3904,1.3896,1.3896,1.3804,1.3739,1.3658,1.3552,1.3474,1.3386,1.3353,1.3262,1.3295,1.3271,1.3353,1.3394,1.3336,1.3311,1.3321,1.3264,1.3108,1.2969,1.2921,1.2864,1.9265,1.9183,1.8956,1.8712,1.8491,1.8426,1.8328,1.8184,1.8176,1.8176,1.8176,1.8176,1.8176,1.8176,1.8176,1.8176,1.8176,1.8176,1.8176,1.8176,1.8176,1.8176,1.8176,1.8176,1.8176,1.8176,1.8176,1.8176,1.8176,1.8176,1.8176,1.8176,1.8176,1.8176,1.8176,1.8176,1.8176,1.8176,1.8176,1.8176,1.816,1.8119,1.8022,1.79,1.7797,1.7583,1.7421,1.7331,1.7185,1.7039,1.6874,1.672,1.6566,1.6446,1.63,1.6153,1.6072,1.5975,1.5926,1.5642,1.5488,1.5213,1.5171,1.509,1.5039,1.5006,1.5006,1.5006,1.5006,1.5006,1.5006,1.5006,1.4998,1.5006,1.5006,1.5006,1.5006,1.5006,1.499,1.4814,1.4781,1.4732,1.4611,1.4464,1.427,1.4123,1.4083,1.405,1.4002,1.3961,1.3949,1.3957,1.4002,1.3977,1.3977,1.3912,1.3839,1.3723,1.3642,1.3555,1.3449,1.341,1.3378,1.3427,1.3457,1.3482,1.3539,1.3636,1.3647,1.3516,1.3386,1.3272,1.3141,1.3051,1.2978,1.9314,1.9297,1.9167,1.8939,1.867,1.8605,1.846,1.8347,1.8337,1.8263,1.8176,1.8176,1.8176,1.8176,1.8176,1.8176,1.8176,1.8176,1.8176,1.8176,1.8176,1.8176,1.8176,1.8176,1.8176,1.8176,1.8176,1.8176,1.8176,1.8176,1.8176,1.8176,1.8176,1.8176,1.8176,1.8176,1.8176,1.8176,1.8176,1.8176,1.8176,1.8168,1.8135,1.7997,1.7932,1.7811,1.7591,1.7461,1.7323,1.7177,1.7003,1.6874,1.6736,1.6582,1.6438,1.6308,1.6161,1.6072,1.5975,1.5861,1.5634,1.5351,1.5213,1.5171,1.5082,1.5047,1.5006,1.5006,1.5006,1.5006,1.5006,1.5006,1.5006,1.5006,1.5006,1.5006,1.5006,1.5006,1.5006,1.4966,1.4949,1.4917,1.4868,1.4692,1.4521,1.4351,1.4261,1.4229,1.4196,1.412,1.4103,1.4103,1.4103,1.4071,1.4075,1.4042,1.4002,1.3912,1.3807,1.3593,1.3514,1.3441,1.3419,1.3427,1.3474,1.3569,1.3642,1.3717,1.3677,1.3595,1.349,1.3409,1.3313,1.3189,1.3092,1.9314,1.9314,1.9297,1.9134,1.8988,1.8785,1.8704,1.8639,1.8509,1.841,1.8288,1.8225,1.8225,1.8225,1.8265,1.8273,1.8265,1.8241,1.8241,1.8257,1.8241,1.8208,1.8192,1.8192,1.8176,1.8176,1.8176,1.8176,1.8176,1.8176,1.8176,1.8176,1.8176,1.8176,1.8176,1.8176,1.8176,1.8176,1.8176,1.8176,1.8176,1.8176,1.8152,1.8111,1.8022,1.7908,1.7786,1.7599,1.7461,1.7315,1.7193,1.7003,1.6841,1.6785,1.6598,1.6347,1.6332,1.6185,1.6031,1.5886,1.5707,1.5536,1.5375,1.527,1.5173,1.5106,1.5039,1.5072,1.5023,1.5006,1.5006,1.5006,1.5006,1.5006,1.5006,1.5006,1.5006,1.5006,1.5006,1.5006,1.5006,1.4998,1.4998,1.4941,1.477,1.4586,1.4435,1.4363,1.4322,1.4282,1.4249,1.4241,1.4225,1.4233,1.4237,1.4205,1.4156,1.4066,1.3945,1.3774,1.3577,1.3506,1.3457,1.3443,1.3484,1.3555,1.3669,1.3774,1.3742,1.3725,1.365,1.3561,1.3457,1.3378,1.3262,1.9314,1.9314,1.9314,1.9273,1.9192,1.8972,1.8834,1.868,1.8655,1.8598,1.855,1.8541,1.8541,1.8541,1.8525,1.8517,1.8525,1.8541,1.8541,1.8517,1.8467,1.8418,1.8377,1.8288,1.8184,1.8176,1.8176,1.8176,1.8176,1.8176,1.8176,1.8176,1.8176,1.8176,1.8176,1.8176,1.8176,1.8176,1.8176,1.8176,1.8176,1.8176,1.8176,1.8168,1.8103,1.803,1.794,1.7754,1.7624,1.7453,1.7315,1.7193,1.6987,1.6914,1.676,1.659,1.6576,1.6405,1.6235,1.6056,1.5878,1.5731,1.561,1.5512,1.5431,1.5213,1.5132,1.5114,1.5041,1.5047,1.5006,1.5006,1.5006,1.5006,1.5006,1.5006,1.5006,1.5006,1.5006,1.5006,1.5006,1.5006,1.5006,1.5006,1.4876,1.4773,1.4667,1.4538,1.4473,1.4387,1.4346,1.4346,1.4346,1.4371,1.4371,1.4383,1.4318,1.4221,1.4099,1.3945,1.3782,1.362,1.3506,1.3449,1.3465,1.3498,1.3652,1.3755,1.3855,1.3855,1.3763,1.3698,1.3612,1.3522,1.3465,1.9314,1.9314,1.9314,1.9314,1.9289,1.9183,1.898,1.8834,1.8809,1.8785,1.868,1.872,1.872,1.872,1.8728,1.8728,1.8728,1.8672,1.8672,1.8712,1.8615,1.8565,1.8467,1.8377,1.8249,1.8208,1.8176,1.8176,1.8176,1.8176,1.8176,1.8176,1.8176,1.8176,1.8176,1.8176,1.8176,1.8176,1.8176,1.8176,1.8176,1.8176,1.8176,1.8176,1.8152,1.8166,1.8022,1.7924,1.7811,1.7607,1.7453,1.7348,1.7185,1.7011,1.6882,1.6785,1.6682,1.6495,1.6308,1.6219,1.6048,1.5845,1.5821,1.5764,1.5601,1.5439,1.5327,1.5245,1.5155,1.5098,1.5065,1.5096,1.5023,1.5023,1.5006,1.5006,1.5006,1.5006,1.5006,1.5006,1.5006,1.5006,1.5006,1.5006,1.4966,1.4933,1.4862,1.4732,1.4611,1.4586,1.4562,1.457,1.4594,1.4643,1.4627,1.457,1.4489,1.4383,1.4253,1.4131,1.3928,1.3766,1.3628,1.3506,1.3539,1.3561,1.3658,1.3763,1.3795,1.3872,1.388,1.3779,1.3706,1.3693,1.3644,1.9314,1.9314,1.9314,1.9314,1.9306,1.9289,1.9192,1.8996,1.8996,1.8899,1.8713,1.8793,1.8809,1.8777,1.8769,1.8785,1.8801,1.8793,1.8801,1.8777,1.8761,1.8647,1.8597,1.8499,1.8394,1.8288,1.8231,1.8176,1.8176,1.8176,1.8176,1.8176,1.8176,1.8176,1.8176,1.8176,1.8176,1.8176,1.8176,1.8176,1.8176,1.8176,1.8176,1.8176,1.8168,1.816,1.8103,1.8022,1.794,1.7786,1.7616,1.7469,1.7331,1.7218,1.7003,1.6833,1.6706,1.6544,1.6422,1.6373,1.6185,1.6023,1.5926,1.5829,1.574,1.5626,1.5545,1.5463,1.5358,1.5254,1.5205,1.513,1.5055,1.5039,1.5023,1.5015,1.5006,1.5006,1.5006,1.5006,1.5006,1.5006,1.5006,1.5006,1.5006,1.499,1.4966,1.4949,1.4852,1.4876,1.486,1.4868,1.4901,1.4941,1.4901,1.4757,1.4716,1.4656,1.451,1.4371,1.4123,1.3928,1.3758,1.3625,1.3609,1.3633,1.3682,1.3714,1.3739,1.3787,1.3896,1.3888,1.3779,1.3831,1.379,1.9314,1.9314,1.9314,1.9314,1.9314,1.9314,1.9273,1.9232,1.9232,1.9192,1.9102,1.9159,1.9069,1.911,1.911,1.9094,1.9143,1.9151,1.9159,1.911,1.8956,1.8883,1.8753,1.8638,1.8499,1.8385,1.8304,1.8176,1.8176,1.8176,1.8176,1.8176,1.8176,1.8176,1.8176,1.8176,1.8176,1.8176,1.8176,1.8176,1.8176,1.8176,1.8176,1.8176,1.8176,1.8176,1.8144,1.8119,1.8046,1.7892,1.7827,1.7689,1.738,1.7323,1.7226,1.7003,1.6841,1.6704,1.6639,1.6568,1.6422,1.6276,1.6154,1.6081,1.5967,1.5821,1.5715,1.5642,1.5545,1.5455,1.5351,1.5285,1.5187,1.5155,1.5114,1.5112,1.5104,1.5104,1.5104,1.5047,1.5047,1.5006,1.5006,1.5006,1.5006,1.5006,1.5006,1.5006,1.5006,1.5006,1.5006,1.5006,1.5006,1.5006,1.5006,1.4917,1.4925,1.4892,1.4738,1.4591,1.4383,1.418,1.3901,1.3763,1.3706,1.3666,1.3642,1.3674,1.3723,1.3795,1.3904,1.3904,1.3904,1.3896,1.3896,1.9314,1.9314,1.9314,1.9314,1.9314,1.9314,1.9314,1.9314,1.9314,1.9314,1.9314,1.9297,1.9314,1.9297,1.924,1.9289,1.9289,1.9273,1.9273,1.924,1.9192,1.9086,1.8947,1.876,1.8589,1.8467,1.8337,1.8176,1.8176,1.8176,1.8176,1.8176,1.8176,1.8176,1.8176,1.8176,1.8176,1.8176,1.8176,1.8176,1.8176,1.8176,1.8176,1.8176,1.8176,1.8176,1.8176,1.8176,1.8111,1.8014,1.7981,1.7794,1.7486,1.7372,1.7258,1.7088,1.6979,1.6858,1.6777,1.6704,1.6592,1.6454,1.6349,1.6243,1.6129,1.5991,1.5926,1.5853,1.5715,1.5601,1.5536,1.548,1.5367,1.531,1.5277,1.5243,1.5234,1.5234,1.5155,1.509,1.5041,1.5023,1.5006,1.5006,1.5006,1.5006,1.5006,1.5006,1.5006,1.5006,1.5006,1.5006,1.5006,1.5006,1.5006,1.5006,1.499,1.4974,1.4941,1.4795,1.4619,1.4464,1.4253,1.4026,1.3823,1.3798,1.3747,1.3706,1.3731,1.3847,1.3904,1.3904,1.3904,1.3904,1.3896,1.9314,1.9314,1.9314,1.9314,1.9314,1.9314,1.9314,1.9314,1.9314,1.9314,1.9314,1.9314,1.9314,1.9314,1.9314,1.9314,1.9314,1.9314,1.9314,1.9314,1.9281,1.9208,1.9013,1.8809,1.8631,1.8499,1.8345,1.8176,1.8176,1.8176,1.8176,1.8176,1.8176,1.8176,1.8176,1.8176,1.8176,1.8176,1.8176,1.8176,1.8176,1.8176,1.8176,1.8176,1.8176,1.8176,1.8176,1.8176,1.8176,1.8119,1.803,1.7859,1.7554,1.7364,1.721,1.7112,1.7036,1.6979,1.6906,1.6841,1.6779,1.6617,1.6446,1.6357,1.6259,1.6047,1.5999,1.5975,1.5853,1.5804,1.5707,1.5642,1.5553,1.5504,1.5439,1.539,1.5366,1.5358,1.5325,1.5268,1.5212,1.5147,1.5096,1.5065,1.5063,1.5031,1.5006,1.5006,1.5006,1.5006,1.5006,1.5006,1.5006,1.5006,1.5006,1.5006,1.5006,1.5006,1.5006,1.499,1.4844,1.473,1.457,1.4294,1.4018,1.3961,1.3928,1.3872,1.3823,1.3855,1.3904,1.3904,1.3904,1.3904,1.3904,1.9314,1.9314,1.9314,1.9314,1.9314,1.9314,1.9314,1.9314,1.9314,1.9314,1.9314,1.9314,1.9314,1.9314,1.9314,1.9314,1.9314,1.9314,1.9314,1.9314,1.9314,1.9289,1.9118,1.8866,1.8712,1.8566,1.8387,1.8176,1.8176,1.8176,1.8176,1.8176,1.8176,1.8176,1.8176,1.8176,1.8176,1.8176,1.8176,1.8176,1.8176,1.8176,1.8176,1.8176,1.8176,1.8176,1.8176,1.8176,1.8176,1.8152,1.8144,1.7949,1.7611,1.7437,1.7258,1.7145,1.712,1.7071,1.7047,1.6963,1.6933,1.6801,1.6655,1.6527,1.6365,1.612,1.6007,1.5991,1.5966,1.5942,1.5885,1.5804,1.5707,1.5658,1.5618,1.5585,1.5545,1.552,1.5504,1.5455,1.5407,1.5309,1.5204,1.5139,1.5082,1.508,1.5023,1.5006,1.5006,1.5006,1.5006,1.5006,1.5006,1.5006,1.5006,1.5006,1.5006,1.5006,1.5006,1.5006,1.5006,1.4876,1.4676,1.4456,1.4245,1.418,1.4091,1.3969,1.3937,1.3953,1.3937,1.3953,1.3912,1.3904,1.3904,1.9314,1.9314,1.9314,1.9314,1.9314,1.9314,1.9314,1.9314,1.9314,1.9314,1.9314,1.9314,1.9314,1.9314,1.9314,1.9314,1.9314,1.9314,1.9314,1.9314,1.9314,1.9314,1.911,1.8899,1.8777,1.8631,1.8355,1.8176,1.8176,1.8176,1.8176,1.8176,1.8176,1.8176,1.8176,1.8176,1.8176,1.8176,1.8176,1.8176,1.8176,1.8176,1.8176,1.8176,1.8176,1.8176,1.8176,1.8176,1.8176,1.8135,1.8087,1.7997,1.7746,1.7518,1.7356,1.7242,1.7177,1.7112,1.7112,1.7052,1.702,1.6939,1.6825,1.6674,1.6487,1.63,1.608,1.6056,1.5999,1.5966,1.5966,1.5877,1.5902,1.5869,1.5813,1.5788,1.5772,1.5715,1.5683,1.5634,1.5553,1.5439,1.5366,1.5358,1.5285,1.5124,1.5098,1.5072,1.5055,1.5039,1.5031,1.5015,1.5015,1.5015,1.5006,1.5006,1.5006,1.5006,1.5006,1.5006,1.4998,1.4925,1.4803,1.4594,1.4464,1.4399,1.4294,1.4164,1.4075,1.4083,1.405,1.4018,1.3969,1.3945,1.3945,1.9314,1.9314,1.9314,1.9314,1.9314,1.9314,1.9314,1.9314,1.9314,1.9314,1.9314,1.9314,1.9314,1.9314,1.9314,1.9314,1.9314,1.9314,1.9314,1.9314,1.9314,1.9265,1.9086,1.8891,1.8728,1.8541,1.8306,1.8208,1.8176,1.8176,1.8176,1.8176,1.8176,1.8176,1.8176,1.8176,1.8176,1.8176,1.8176,1.8176,1.8176,1.8176,1.8176,1.8176,1.8176,1.8176,1.8176,1.8176,1.8176,1.8144,1.807,1.7973,1.7867,1.7664,1.7486,1.7364,1.725,1.7177,1.7128,1.7112,1.7104,1.702,1.6906,1.676,1.6625,1.6446,1.6226,1.6104,1.6056,1.5999,1.5999,1.5999,1.5991,1.5991,1.5983,1.5975,1.5902,1.5886,1.5845,1.5804,1.5715,1.5601,1.5553,1.5545,1.5463,1.5294,1.5197,1.5163,1.5145,1.5098,1.5082,1.5072,1.5047,1.5031,1.5006,1.5006,1.5006,1.5006,1.5006,1.5006,1.4998,1.4949,1.4901,1.4789,1.4676,1.4578,1.4497,1.4383,1.431,1.4229,1.4205,1.418,1.414,1.4071,1.4014,1.9314,1.9314,1.9314,1.9314,1.9314,1.9314,1.9314,1.9314,1.9314,1.9314,1.9314,1.9314,1.9314,1.9314,1.9314,1.9314,1.9314,1.9314,1.9314,1.9314,1.9314,1.9216,1.9013,1.8801,1.8558,1.8363,1.8233,1.82,1.8176,1.8176,1.8176,1.8176,1.8176,1.8176,1.8176,1.8176,1.8176,1.8176,1.8176,1.8176,1.8176,1.8176,1.8176,1.8176,1.8176,1.8176,1.8176,1.8176,1.8176,1.816,1.8135,1.8046,1.794,1.7819,1.7664,1.7486,1.7372,1.725,1.7193,1.7128,1.712,1.7112,1.6963,1.6906,1.6771,1.66,1.638,1.6201,1.612,1.6007,1.5983,1.5999,1.5999,1.5999,1.5991,1.5991,1.5958,1.595,1.5934,1.5918,1.5894,1.578,1.5731,1.5699,1.5642,1.5536,1.5424,1.539,1.5333,1.526,1.5148,1.5139,1.509,1.5039,1.5006,1.5006,1.5006,1.5006,1.5006,1.5006,1.5006,1.5006,1.4958,1.4901,1.4789,1.4692,1.4619,1.4586,1.4481,1.4408,1.4391,1.4322,1.4273,1.4233,1.4176]},{"header":{"parameterUnit":"m.s-1","parameterCategory":1,"la1":31.0,"la2":29.5877,"lo1":-88.7671,"lo2":-86.6584,"dy":0.0162,"dx":0.0185,"nx":115,"ny":88,"refTime":"2023-04-21T12:00:00:Z","depth":0,"parameterNumber":3,"parameterNumberName":"V-component_of_WINDS"},"data":[0.0,0.0,0.0,0.0,0.0,0.0,0.0,0.0,0.0,0.0,0.0,0.0,0.0,0.0,0.0,0.0,0.0,0.0,0.0,0.0,0.0,0.0,0.0,0.0,0.0,0.0,0.0,0.0,0.0,0.0,0.0,0.0,0.0,0.0,0.0,0.0,0.0,0.0,0.0,0.0,0.0,0.0,0.0,0.0,0.0,0.0,0.0,0.0,0.0,0.0,0.0,0.0,0.0,0.0,0.0,0.0,0.0,0.0,0.0,0.0,0.0,0.0,0.0,0.0,0.0,0.0,0.0,0.0,0.0,0.0,0.0,0.0,0.0,0.0,0.0,0.0,0.0,0.0,0.0,0.0,0.0,0.0,0.0,0.0,0.0,0.0,0.0,0.0,0.0,0.0,0.0,0.0,0.0,0.0,0.0,0.0,0.0,0.0,0.0,0.0,0.0,0.0,0.0,0.0,0.0,0.0,0.0,0.0,0.0,0.0,0.0,0.0,0.0,0.0,0.0,0.0,0.0,0.0,0.0,0.0,0.0,0.0,0.0,0.0,0.0,0.0,0.0,0.0,0.0,0.0,0.0,0.0,0.0,0.0,0.0,0.0,0.0,0.0,0.0,0.0,0.0,0.0,0.0,0.0,0.0,0.0,0.0,0.0,0.0,0.0,0.0,0.0,0.0,0.0,0.0,0.0,0.0,0.0,0.0,0.0,0.0,0.0,0.0,0.0,0.0,0.0,0.0,0.0,0.0,0.0,0.0,0.0,0.0,0.0,0.0,0.0,0.0,0.0,0.0,0.0,0.0,0.0,0.0,0.0,0.0,0.0,0.0,0.0,0.0,0.0,0.0,0.0,0.0,0.0,0.0,0.0,0.0,0.0,0.0,0.0,0.0,0.0,0.0,0.0,0.0,0.0,0.0,0.0,0.0,0.0,0.0,0.0,0.0,0.0,0.0,0.0,0.0,0.0,0.0,0.0,0.0,0.0,0.0,0.0,0.0,0.0,0.0,0.0,0.0,0.0,0.0,0.0,0.0,0.0,0.0,0.0,0.0,0.0,0.0,0.0,0.0,0.0,0.0,0.0,0.0,0.0,0.0,0.0,0.0,0.0,0.0,0.0,0.0,0.0,0.0,0.0,0.0,0.0,0.0,0.0,0.0,0.0,0.0,0.0,0.0,0.0,0.0,0.0,0.0,0.0,0.0,0.0,0.0,0.0,0.0,0.0,0.0,0.0,0.0,0.0,0.0,0.0,0.0,0.0,0.0,0.0,0.0,0.0,0.0,0.0,0.0,0.0,0.0,0.0,0.0,0.0,0.0,0.0,0.0,0.0,0.0,0.0,0.0,0.0,0.0,0.0,0.0,0.0,0.0,0.0,0.0,0.0,0.0,0.0,0.0,0.0,0.0,0.0,0.0,0.0,0.0,0.0,0.0,0.0,0.0,0.0,0.0,0.0,0.0,0.0,0.0,0.0,0.0,0.0,0.0,0.0,0.0,0.0,0.0,0.0,0.0,0.0,0.0,0.0,0.0,0.0,0.0,0.0,0.0,0.0,0.0,0.0,0.0,0.0,0.0,0.0,0.0,0.0,0.0,0.0,0.0,0.0,0.0,0.0,0.0,0.0,0.0,0.0,0.0,0.0,0.0,0.0,0.0,0.0,0.0,0.0,0.0,0.0,0.0,0.0,0.0,0.0,0.0,0.0,0.0,0.0,0.0,0.0,0.0,0.0,0.0,0.0,0.0,0.0,0.0,0.0,0.0,0.0,0.0,0.0,0.0,0.0,0.0,0.0,0.0,0.0,0.0,0.0,0.0,0.0,0.0,0.0,0.0,0.0,0.0,0.0,0.0,0.0,0.0,0.0,0.0,0.0,0.0,0.0,0.0,0.0,0.0,0.0,0.0,0.0,0.0,0.0,0.0,0.0,0.0,0.0,0.0,0.0,0.0,0.0,0.0,0.0,0.0,0.0,0.0,0.0,0.0,0.0,0.0,0.0,0.0,0.0,0.0,0.0,0.0,0.0,0.0,0.0,0.0,0.0,0.0,0.0,0.0,0.0,0.0,0.0,0.0,0.0,0.0,0.0,0.0,0.0,0.0,0.0,0.0,0.0,0.0,0.0,0.0,0.0,0.0,0.0,0.0,0.0,0.0,0.0,0.0,0.0,0.0,0.0,0.0,0.0,0.0,0.0,0.0,0.0,0.0,0.0,0.0,0.0,0.0,0.0,0.0,0.0,0.0,0.0,0.0,0.0,0.0,0.0,0.0,0.0,0.0,0.0,0.0,0.0,0.0,0.0,0.0,0.0,0.0,0.0,0.0,0.0,0.0,0.0,0.0,0.0,0.0,0.0,0.0,0.0,0.0,0.0,0.0,0.0,0.0,0.0,0.0,0.0,0.0,0.0,0.0,0.0,0.0,0.0,0.0,0.0,0.0,0.0,0.0,0.0,0.0,0.0,0.0,0.0,0.0,0.0,0.0,0.0,0.0,0.0,0.0,0.0,0.0,0.0,0.0,0.0,0.0,0.0,0.0,0.0,0.0,0.0,0.0,0.0,0.0,0.0,0.0,0.0,0.0,0.0,0.0,0.0,0.0,0.0,0.0,0.0,0.0,0.0,0.0,0.0,0.0,0.0,0.0,0.0,0.0,0.0,0.0,0.0,0.0,0.0,0.0,0.0,0.0,0.0,0.0,0.0,0.0,0.0,0.0,0.0,0.0,0.0,0.0,0.0,0.0,0.0,0.0,0.0,0.0,0.0,0.0,0.0,0.0,0.0,0.0,0.0,0.0,0.0,0.0,0.0,0.0,0.0,0.0,0.0,0.0,0.0,0.0,0.0,0.0,0.0,0.0,0.0,0.0,0.0,0.0,0.0,0.0,0.0,0.0,0.0,0.0,0.0,0.0,0.0,0.0,0.0,0.0,0.0,0.0,0.0,0.0,0.0,0.0,0.0,0.0,0.0,0.0,0.0,0.0,0.0,0.0,0.0,0.0,0.0,0.0,0.0,0.0,0.0,0.0,0.0,0.0,0.0,0.0,0.0,0.0,0.0,0.0,0.0,0.0,0.0,0.0,0.0,0.0,0.0,0.0,0.0,0.0,0.0,0.0,0.0,0.0,0.0,0.0,0.0,0.0,0.0,0.0,0.0,0.0,0.0,0.0,0.0,0.0,0.0,0.0,0.0,0.0,0.0,0.0,0.0,0.0,0.0,0.0,0.0,0.0,0.0,0.0,0.0,0.0,0.0,0.0,0.0,0.0,0.0,0.0,0.0,0.0,0.0,0.0,0.0,0.0,0.0,0.0,0.0,0.0,0.0,0.0,0.0,0.0,0.0,0.0,0.0,0.0,0.0,0.0,0.0,0.0,0.0,0.0,0.0,0.0,0.0,0.0,0.0,0.0,0.0,0.0,0.0,0.0,0.0,0.0,0.0,0.0,0.0,0.0,0.0,0.0,0.0,0.0,0.0,0.0,0.0,0.0,0.0,0.0,0.0,0.0,0.0,0.0,0.0,0.0,0.0,0.0,0.0,0.0,0.0,0.0,0.0,0.0,0.0,0.0,0.0,0.0,0.0,0.0,0.0,0.0,0.0,0.0,0.0,0.0,0.0,0.0,0.0,0.0,0.0,0.0,0.0,0.0,0.0,0.0,0.0,0.0,0.0,0.0,0.0,0.0,0.0,0.0,0.0,0.0,0.0,0.0,0.0,0.0,0.0,0.0,0.0,0.0,0.0,0.0,0.0,0.0,0.0,0.0,0.0,0.0,0.0,0.0,0.0,0.0,0.0,0.0,0.0,0.0,0.0,0.0,0.0,0.0,0.0,0.0,0.0,0.0,0.0,0.0,0.0,0.0,0.0,0.0,0.0,0.0,0.0,0.0,0.0,0.0,0.0,0.0,0.0,0.0,0.0,0.0,0.0,0.0,0.0,0.0,0.0,0.0,0.0,0.0,0.0,0.0,0.0,0.0,0.0,0.0,0.0,0.0,0.0,0.0,0.0,0.0,0.0,0.0,0.0,0.0,0.0,0.0,0.0,0.0,0.0,0.0,0.0,0.0,0.0,0.0,0.0,0.0,0.0,0.0,0.0,0.0,0.0,0.0,0.0,0.0,0.0,0.0,0.0,0.0,0.0,0.0,0.0,0.0,0.0,0.0,0.0,0.0,0.0,0.0,0.0,0.0,0.0,0.0,0.0,0.0,0.0,0.0,0.0,0.0,0.0,0.0,0.0,0.0,0.0,0.0,0.0,0.0,0.0,0.0,0.0,0.0,0.0,0.0,0.0,4.1125,0.0,0.0,0.0,0.0,0.0,0.0,0.0,0.0,0.0,0.0,0.0,0.0,0.0,0.0,0.0,0.0,0.0,0.0,0.0,0.0,0.0,0.0,0.0,0.0,0.0,0.0,0.0,0.0,0.0,0.0,0.0,0.0,0.0,0.0,0.0,0.0,0.0,0.0,0.0,0.0,0.0,0.0,0.0,0.0,0.0,0.0,0.0,0.0,0.0,0.0,0.0,0.0,0.0,0.0,0.0,0.0,0.0,0.0,0.0,0.0,0.0,0.0,0.0,0.0,0.0,0.0,0.0,0.0,0.0,0.0,0.0,0.0,0.0,0.0,0.0,0.0,0.0,0.0,0.0,0.0,0.0,0.0,0.0,0.0,0.0,0.0,0.0,0.0,0.0,0.0,0.0,0.0,0.0,0.0,0.0,0.0,0.0,0.0,0.0,0.0,0.0,0.0,0.0,0.0,0.0,0.0,0.0,0.0,0.0,0.0,4.0824,4.1619,4.1655,4.1288,4.0467,0.0,0.0,0.0,0.0,0.0,0.0,0.0,0.0,0.0,0.0,0.0,0.0,0.0,0.0,0.0,0.0,0.0,0.0,0.0,0.0,0.0,0.0,0.0,0.0,0.0,0.0,0.0,0.0,0.0,0.0,0.0,0.0,0.0,0.0,0.0,0.0,0.0,0.0,0.0,0.0,0.0,0.0,0.0,0.0,0.0,0.0,0.0,0.0,0.0,0.0,0.0,0.0,0.0,0.0,0.0,0.0,0.0,0.0,0.0,0.0,0.0,0.0,0.0,0.0,0.0,0.0,0.0,0.0,0.0,0.0,0.0,0.0,0.0,0.0,0.0,0.0,0.0,0.0,0.0,0.0,0.0,0.0,0.0,0.0,0.0,0.0,0.0,0.0,0.0,0.0,0.0,0.0,0.0,0.0,0.0,0.0,0.0,0.0,0.0,0.0,0.0,0.0,0.0,0.0,0.0,0.0,0.0,0.0,0.0,0.0,0.0,0.0,4.1042,4.0665,3.9672,0.0,0.0,0.0,0.0,0.0,0.0,0.0,0.0,0.0,0.0,0.0,0.0,0.0,0.0,0.0,0.0,0.0,0.0,0.0,0.0,0.0,0.0,0.0,0.0,0.0,0.0,0.0,0.0,0.0,0.0,0.0,0.0,0.0,0.0,0.0,0.0,0.0,0.0,0.0,0.0,0.0,0.0,0.0,0.0,0.0,0.0,0.0,0.0,0.0,0.0,0.0,0.0,0.0,0.0,0.0,0.0,0.0,0.0,0.0,0.0,0.0,0.0,0.0,0.0,0.0,0.0,0.0,0.0,0.0,0.0,0.0,0.0,0.0,0.0,0.0,0.0,0.0,0.0,0.0,0.0,0.0,0.0,0.0,0.0,0.0,0.0,0.0,0.0,0.0,0.0,0.0,0.0,0.0,0.0,0.0,0.0,0.0,0.0,0.0,0.0,0.0,0.0,0.0,0.0,0.0,0.0,0.0,0.0,0.0,0.0,4.0178,4.02,4.09,0.0,3.8968,0.0,0.0,0.0,0.0,0.0,0.0,0.0,0.0,0.0,0.0,0.0,0.0,0.0,0.0,0.0,0.0,0.0,0.0,0.0,0.0,0.0,0.0,0.0,0.0,0.0,0.0,0.0,0.0,0.0,0.0,0.0,0.0,0.0,0.0,0.0,0.0,0.0,0.0,0.0,0.0,0.0,0.0,0.0,0.0,0.0,0.0,0.0,0.0,0.0,0.0,0.0,0.0,0.0,0.0,0.0,0.0,0.0,0.0,0.0,0.0,0.0,0.0,0.0,0.0,0.0,0.0,0.0,0.0,0.0,0.0,0.0,0.0,0.0,0.0,0.0,0.0,0.0,0.0,0.0,0.0,0.0,0.0,0.0,0.0,0.0,0.0,0.0,0.0,0.0,0.0,0.0,0.0,0.0,0.0,0.0,0.0,0.0,0.0,0.0,0.0,0.0,0.0,0.0,0.0,0.0,0.0,0.0,0.0,0.0,0.0,3.9571,3.9515,3.9812,3.9443,0.0,0.0,0.0,0.0,0.0,0.0,0.0,0.0,0.0,0.0,0.0,0.0,0.0,0.0,0.0,0.0,0.0,0.0,0.0,0.0,0.0,0.0,0.0,0.0,0.0,0.0,0.0,0.0,0.0,0.0,0.0,0.0,0.0,0.0,0.0,0.0,0.0,0.0,0.0,0.0,0.0,0.0,0.0,0.0,0.0,0.0,0.0,0.0,0.0,0.0,0.0,0.0,0.0,0.0,0.0,0.0,0.0,0.0,0.0,0.0,0.0,0.0,0.0,0.0,0.0,0.0,0.0,0.0,0.0,0.0,0.0,0.0,0.0,0.0,0.0,0.0,0.0,0.0,0.0,0.0,0.0,0.0,0.0,0.0,0.0,0.0,0.0,0.0,0.0,0.0,0.0,0.0,0.0,0.0,0.0,0.0,0.0,0.0,0.0,0.0,0.0,0.0,0.0,0.0,0.0,0.0,0.0,0.0,0.0,0.0,3.8934,3.9308,3.9202,3.8959,3.8545,3.7969,0.0,0.0,0.0,0.0,0.0,0.0,0.0,0.0,0.0,0.0,0.0,0.0,0.0,0.0,0.0,0.0,0.0,0.0,0.0,0.0,0.0,0.0,0.0,0.0,0.0,0.0,0.0,0.0,0.0,0.0,0.0,0.0,0.0,0.0,0.0,0.0,0.0,0.0,0.0,0.0,0.0,0.0,0.0,0.0,0.0,0.0,0.0,0.0,0.0,0.0,0.0,0.0,0.0,0.0,0.0,0.0,0.0,0.0,0.0,0.0,0.0,0.0,0.0,0.0,0.0,0.0,0.0,0.0,0.0,0.0,0.0,0.0,0.0,0.0,0.0,0.0,0.0,0.0,0.0,0.0,0.0,0.0,0.0,0.0,0.0,0.0,0.0,0.0,0.0,0.0,0.0,0.0,0.0,0.0,0.0,0.0,0.0,0.0,0.0,0.0,0.0,0.0,0.0,0.0,0.0,0.0,0.0,0.0,3.8504,3.9219,3.9612,3.9444,3.8634,3.8121,0.0,0.0,0.0,0.0,0.0,0.0,0.0,0.0,0.0,0.0,0.0,0.0,0.0,0.0,0.0,0.0,0.0,0.0,0.0,0.0,0.0,0.0,0.0,0.0,0.0,0.0,0.0,0.0,0.0,0.0,0.0,0.0,0.0,0.0,0.0,0.0,0.0,0.0,0.0,0.0,0.0,0.0,0.0,0.0,0.0,0.0,0.0,0.0,0.0,0.0,0.0,0.0,0.0,0.0,0.0,0.0,0.0,0.0,0.0,0.0,0.0,0.0,0.0,0.0,0.0,0.0,0.0,0.0,0.0,0.0,0.0,0.0,0.0,0.0,0.0,0.0,0.0,0.0,0.0,0.0,0.0,0.0,0.0,0.0,0.0,0.0,0.0,0.0,0.0,0.0,0.0,0.0,0.0,0.0,0.0,0.0,0.0,0.0,0.0,0.0,0.0,0.0,0.0,0.0,0.0,0.0,0.0,0.0,0.0,3.8766,3.8953,3.9051,3.898,3.8627,3.842,0.0,0.0,0.0,0.0,0.0,0.0,0.0,0.0,0.0,0.0,0.0,0.0,0.0,0.0,0.0,0.0,0.0,0.0,0.0,0.0,0.0,0.0,0.0,0.0,0.0,0.0,0.0,0.0,0.0,0.0,0.0,0.0,0.0,0.0,0.0,0.0,0.0,0.0,0.0,0.0,0.0,0.0,0.0,0.0,0.0,0.0,0.0,0.0,0.0,0.0,0.0,0.0,0.0,0.0,0.0,0.0,0.0,0.0,0.0,0.0,0.0,0.0,0.0,0.0,0.0,0.0,0.0,0.0,0.0,0.0,0.0,0.0,0.0,0.0,0.0,0.0,0.0,0.0,0.0,0.0,0.0,0.0,0.0,0.0,0.0,0.0,0.0,0.0,0.0,0.0,0.0,0.0,0.0,0.0,0.0,0.0,0.0,0.0,0.0,0.0,0.0,0.0,0.0,0.0,0.0,0.0,0.0,0.0,0.0,3.9,0.0,3.884,3.884,3.8803,3.8759,0.0,0.0,0.0,0.0,0.0,0.0,0.0,0.0,0.0,0.0,0.0,0.0,0.0,0.0,0.0,0.0,0.0,0.0,0.0,0.0,0.0,0.0,0.0,0.0,0.0,0.0,0.0,0.0,0.0,0.0,0.0,0.0,0.0,0.0,0.0,0.0,0.0,0.0,0.0,0.0,0.0,0.0,0.0,0.0,0.0,0.0,0.0,0.0,0.0,0.0,0.0,0.0,0.0,0.0,0.0,0.0,0.0,0.0,0.0,0.0,0.0,0.0,0.0,0.0,0.0,0.0,0.0,0.0,0.0,0.0,0.0,0.0,0.0,0.0,0.0,0.0,0.0,0.0,0.0,0.0,0.0,0.0,0.0,0.0,0.0,0.0,0.0,0.0,0.0,0.0,0.0,0.0,0.0,0.0,0.0,0.0,0.0,0.0,0.0,0.0,0.0,0.0,0.0,0.0,0.0,0.0,0.0,0.0,3.9346,3.9229,3.9198,3.9238,3.912,3.9164,3.9126,0.0,0.0,0.0,0.0,0.0,0.0,0.0,0.0,0.0,0.0,0.0,0.0,0.0,0.0,0.0,0.0,0.0,0.0,0.0,0.0,0.0,0.0,0.0,0.0,0.0,0.0,0.0,0.0,0.0,0.0,0.0,0.0,0.0,0.0,0.0,0.0,0.0,0.0,0.0,0.0,0.0,0.0,0.0,0.0,0.0,0.0,0.0,0.0,0.0,0.0,0.0,0.0,0.0,0.0,0.0,0.0,0.0,0.0,0.0,0.0,0.0,0.0,0.0,0.0,0.0,0.0,0.0,0.0,0.0,0.0,0.0,0.0,0.0,0.0,0.0,0.0,0.0,0.0,0.0,0.0,0.0,0.0,0.0,0.0,0.0,0.0,0.0,0.0,0.0,0.0,0.0,0.0,0.0,0.0,0.0,0.0,0.0,0.0,0.0,0.0,0.0,0.0,0.0,0.0,0.0,0.0,0.0,0.0,0.0,4.039,4.0844,4.1111,4.1074,4.0556,4.0263,0.0,0.0,0.0,0.0,0.0,0.0,0.0,0.0,0.0,0.0,0.0,0.0,0.0,0.0,0.0,0.0,0.0,0.0,0.0,0.0,0.0,0.0,0.0,0.0,0.0,0.0,0.0,0.0,0.0,0.0,0.0,0.0,0.0,0.0,0.0,0.0,0.0,0.0,0.0,0.0,0.0,0.0,0.0,0.0,0.0,0.0,0.0,0.0,0.0,0.0,0.0,0.0,0.0,0.0,0.0,0.0,0.0,0.0,0.0,0.0,0.0,0.0,0.0,0.0,0.0,0.0,0.0,0.0,0.0,0.0,0.0,0.0,0.0,0.0,0.0,0.0,0.0,0.0,0.0,0.0,0.0,0.0,0.0,0.0,0.0,0.0,0.0,0.0,0.0,0.0,0.0,0.0,0.0,0.0,0.0,0.0,0.0,0.0,0.0,0.0,0.0,0.0,0.0,0.0,0.0,0.0,0.0,0.0,0.0,4.2016,4.2065,4.2064,4.2102,4.1582,4.1174,4.0867,0.0,0.0,0.0,0.0,0.0,0.0,0.0,0.0,0.0,0.0,0.0,0.0,0.0,0.0,0.0,0.0,0.0,0.0,0.0,0.0,0.0,0.0,0.0,0.0,0.0,0.0,0.0,0.0,0.0,0.0,0.0,0.0,0.0,0.0,0.0,0.0,0.0,0.0,0.0,0.0,0.0,0.0,0.0,0.0,0.0,0.0,0.0,0.0,0.0,0.0,0.0,0.0,0.0,0.0,0.0,0.0,0.0,0.0,0.0,0.0,0.0,0.0,0.0,0.0,0.0,0.0,0.0,0.0,0.0,0.0,0.0,0.0,0.0,0.0,0.0,0.0,0.0,0.0,0.0,0.0,0.0,0.0,0.0,0.0,0.0,0.0,0.0,0.0,0.0,0.0,0.0,0.0,0.0,0.0,0.0,0.0,0.0,0.0,0.0,0.0,0.0,0.0,0.0,0.0,0.0,0.0,0.0,0.0,4.3977,4.292,4.2409,4.2397,4.2328,4.1906,0.0,0.0,0.0,0.0,0.0,0.0,0.0,0.0,0.0,0.0,0.0,0.0,0.0,0.0,0.0,0.0,0.0,0.0,0.0,0.0,0.0,0.0,0.0,0.0,0.0,0.0,0.0,0.0,0.0,0.0,0.0,0.0,0.0,0.0,0.0,0.0,0.0,0.0,0.0,0.0,0.0,0.0,0.0,0.0,0.0,0.0,0.0,0.0,0.0,0.0,0.0,0.0,0.0,0.0,0.0,0.0,0.0,0.0,0.0,0.0,0.0,0.0,0.0,0.0,0.0,0.0,0.0,0.0,0.0,0.0,0.0,0.0,0.0,0.0,0.0,0.0,0.0,0.0,0.0,0.0,0.0,0.0,0.0,0.0,0.0,0.0,0.0,0.0,0.0,0.0,0.0,0.0,0.0,0.0,0.0,0.0,0.0,0.0,0.0,0.0,0.0,0.0,0.0,0.0,0.0,0.0,0.0,0.0,0.0,4.4897,4.4647,4.4423,4.4332,4.3757,4.304,0.0,0.0,0.0,0.0,0.0,0.0,0.0,0.0,0.0,0.0,0.0,0.0,0.0,0.0,0.0,0.0,0.0,0.0,0.0,0.0,0.0,0.0,0.0,0.0,0.0,0.0,0.0,0.0,0.0,0.0,0.0,0.0,0.0,0.0,0.0,0.0,0.0,0.0,0.0,0.0,0.0,0.0,0.0,0.0,0.0,0.0,0.0,0.0,0.0,0.0,0.0,0.0,0.0,0.0,0.0,0.0,0.0,0.0,0.0,0.0,0.0,0.0,0.0,0.0,0.0,0.0,0.0,0.0,0.0,0.0,0.0,0.0,0.0,0.0,0.0,0.0,0.0,0.0,0.0,0.0,0.0,0.0,0.0,0.0,0.0,0.0,0.0,0.0,0.0,0.0,0.0,0.0,0.0,0.0,0.0,0.0,0.0,0.0,0.0,0.0,0.0,0.0,0.0,0.0,0.0,0.0,0.0,0.0,4.4547,4.541,4.5434,4.539,4.5291,4.4782,4.408,0.0,0.0,0.0,0.0,0.0,0.0,0.0,0.0,0.0,0.0,0.0,0.0,0.0,0.0,0.0,0.0,0.0,0.0,0.0,0.0,0.0,0.0,0.0,0.0,0.0,0.0,0.0,0.0,0.0,0.0,0.0,0.0,0.0,0.0,0.0,0.0,0.0,0.0,0.0,0.0,0.0,0.0,0.0,0.0,0.0,0.0,0.0,0.0,0.0,0.0,0.0,0.0,0.0,0.0,0.0,0.0,0.0,0.0,0.0,0.0,0.0,0.0,0.0,0.0,0.0,0.0,0.0,0.0,0.0,0.0,0.0,0.0,0.0,0.0,0.0,0.0,0.0,0.0,0.0,0.0,0.0,0.0,0.0,0.0,0.0,0.0,0.0,0.0,0.0,0.0,0.0,0.0,0.0,0.0,0.0,0.0,0.0,0.0,0.0,0.0,0.0,0.0,0.0,0.0,0.0,0.0,0.0,0.0,4.4829,4.5602,4.5646,4.562,4.5616,4.5434,4.4903,0.0,0.0,0.0,0.0,0.0,0.0,0.0,0.0,0.0,0.0,0.0,0.0,0.0,0.0,0.0,0.0,0.0,0.0,0.0,0.0,0.0,0.0,0.0,0.0,0.0,0.0,0.0,0.0,0.0,0.0,0.0,0.0,0.0,0.0,0.0,0.0,0.0,0.0,0.0,0.0,0.0,0.0,0.0,0.0,0.0,0.0,0.0,0.0,0.0,0.0,0.0,0.0,0.0,0.0,0.0,0.0,0.0,0.0,0.0,0.0,0.0,0.0,0.0,0.0,0.0,0.0,0.0,0.0,0.0,0.0,0.0,0.0,0.0,0.0,0.0,0.0,0.0,0.0,0.0,0.0,0.0,0.0,0.0,0.0,0.0,0.0,0.0,0.0,0.0,0.0,0.0,0.0,0.0,0.0,0.0,0.0,0.0,0.0,0.0,0.0,0.0,0.0,0.0,0.0,0.0,0.0,0.0,0.0,4.5567,4.5768,4.576,4.5757,4.5757,4.5624,4.5149,0.0,0.0,0.0,0.0,0.0,0.0,0.0,0.0,0.0,0.0,0.0,0.0,0.0,0.0,0.0,0.0,0.0,0.0,0.0,0.0,0.0,0.0,0.0,0.0,0.0,0.0,0.0,0.0,0.0,0.0,0.0,0.0,0.0,0.0,0.0,0.0,0.0,0.0,0.0,0.0,0.0,0.0,0.0,0.0,0.0,0.0,0.0,0.0,4.3052,0.0,0.0,0.0,0.0,0.0,0.0,0.0,0.0,0.0,0.0,0.0,0.0,0.0,0.0,0.0,0.0,0.0,0.0,0.0,0.0,0.0,0.0,0.0,0.0,0.0,0.0,0.0,0.0,0.0,0.0,0.0,0.0,0.0,0.0,0.0,0.0,0.0,0.0,0.0,0.0,0.0,0.0,0.0,0.0,0.0,0.0,0.0,0.0,0.0,0.0,0.0,0.0,0.0,0.0,0.0,0.0,0.0,0.0,0.0,4.5871,4.5902,4.589,4.5886,4.5899,4.5867,4.5564,0.0,0.0,0.0,0.0,0.0,0.0,0.0,0.0,0.0,0.0,0.0,0.0,0.0,0.0,0.0,0.0,0.0,0.0,0.0,0.0,0.0,0.0,0.0,0.0,0.0,0.0,0.0,0.0,0.0,0.0,0.0,0.0,0.0,0.0,0.0,0.0,0.0,0.0,0.0,0.0,0.0,0.0,0.0,0.0,0.0,0.0,0.0,0.0,0.0,0.0,0.0,0.0,0.0,0.0,0.0,0.0,0.0,0.0,0.0,0.0,0.0,0.0,0.0,0.0,0.0,0.0,0.0,0.0,0.0,0.0,0.0,0.0,0.0,0.0,0.0,0.0,0.0,0.0,0.0,0.0,0.0,0.0,0.0,0.0,0.0,0.0,0.0,0.0,0.0,0.0,0.0,0.0,0.0,0.0,0.0,0.0,0.0,0.0,0.0,0.0,0.0,0.0,0.0,0.0,0.0,0.0,0.0,4.5592,4.5958,4.601,4.6033,4.6033,4.6017,4.6088,4.6012,4.5848,0.0,0.0,0.0,0.0,0.0,0.0,0.0,0.0,0.0,0.0,0.0,0.0,0.0,0.0,0.0,0.0,0.0,0.0,0.0,0.0,0.0,0.0,0.0,0.0,0.0,0.0,0.0,0.0,0.0,0.0,0.0,0.0,0.0,0.0,0.0,0.0,0.0,0.0,4.6012,4.678,0.0,0.0,0.0,0.0,0.0,0.0,0.0,0.0,4.5844,0.0,0.0,0.0,0.0,0.0,0.0,0.0,0.0,0.0,0.0,0.0,0.0,0.0,0.0,0.0,0.0,0.0,0.0,0.0,0.0,0.0,0.0,0.0,0.0,0.0,0.0,0.0,0.0,0.0,0.0,0.0,0.0,0.0,0.0,0.0,0.0,0.0,0.0,0.0,0.0,0.0,0.0,0.0,0.0,0.0,0.0,0.0,0.0,0.0,0.0,0.0,0.0,0.0,0.0,0.0,0.0,4.5833,4.5986,4.6073,4.6063,4.608,4.6091,4.6095,4.6169,4.6141,4.6086,0.0,0.0,0.0,0.0,0.0,0.0,0.0,0.0,0.0,0.0,0.0,0.0,0.0,0.0,0.0,0.0,0.0,0.0,0.0,0.0,0.0,0.0,0.0,0.0,0.0,0.0,0.0,0.0,0.0,0.0,0.0,0.0,0.0,0.0,0.0,0.0,0.0,0.0,0.0,4.7813,4.8354,0.0,0.0,0.0,0.0,0.0,0.0,0.0,0.0,4.5908,0.0,0.0,0.0,0.0,0.0,0.0,0.0,0.0,0.0,0.0,0.0,0.0,0.0,0.0,0.0,0.0,0.0,0.0,0.0,0.0,0.0,0.0,0.0,0.0,0.0,0.0,0.0,0.0,0.0,0.0,0.0,0.0,0.0,0.0,0.0,0.0,0.0,0.0,0.0,0.0,0.0,0.0,0.0,0.0,0.0,0.0,0.0,0.0,0.0,0.0,0.0,0.0,0.0,0.0,0.0,4.6042,4.6104,4.6128,4.615,4.6139,4.6157,4.6167,4.6156,4.6208,0.0,0.0,0.0,0.0,0.0,0.0,0.0,0.0,0.0,0.0,0.0,0.0,0.0,0.0,0.0,0.0,0.0,0.0,0.0,0.0,0.0,0.0,0.0,0.0,0.0,0.0,0.0,0.0,0.0,0.0,0.0,0.0,0.0,0.0,0.0,0.0,0.0,0.0,0.0,0.0,4.9058,4.9488,4.9939,0.0,0.0,0.0,0.0,0.0,0.0,4.7434,4.7308,0.0,0.0,0.0,0.0,0.0,0.0,0.0,0.0,0.0,0.0,0.0,0.0,0.0,0.0,0.0,0.0,0.0,0.0,0.0,0.0,0.0,0.0,0.0,0.0,0.0,0.0,0.0,0.0,0.0,0.0,0.0,0.0,0.0,0.0,0.0,0.0,0.0,0.0,0.0,0.0,0.0,0.0,0.0,0.0,0.0,0.0,0.0,0.0,0.0,0.0,0.0,0.0,0.0,0.0,0.0,4.6102,4.6099,4.6128,4.6195,4.6185,4.6245,4.6216,4.6195,4.6202,0.0,0.0,0.0,0.0,0.0,0.0,0.0,0.0,0.0,0.0,0.0,0.0,0.0,0.0,0.0,0.0,0.0,0.0,0.0,0.0,0.0,0.0,0.0,0.0,0.0,0.0,0.0,0.0,0.0,0.0,0.0,0.0,0.0,0.0,0.0,0.0,0.0,0.0,0.0,0.0,0.0,5.0544,5.1219,5.0588,0.0,0.0,0.0,0.0,4.8718,4.8709,0.0,0.0,0.0,0.0,0.0,0.0,0.0,0.0,0.0,0.0,0.0,0.0,0.0,0.0,0.0,0.0,0.0,0.0,0.0,0.0,0.0,0.0,0.0,0.0,0.0,0.0,0.0,0.0,0.0,0.0,0.0,0.0,0.0,0.0,0.0,0.0,0.0,0.0,0.0,0.0,0.0,0.0,0.0,0.0,0.0,0.0,0.0,0.0,0.0,0.0,0.0,0.0,0.0,0.0,0.0,0.0,4.6206,4.6212,4.62,4.6199,4.6261,4.6273,4.628,4.6289,4.6289,0.0,0.0,0.0,0.0,0.0,0.0,0.0,0.0,0.0,0.0,0.0,0.0,0.0,0.0,0.0,0.0,0.0,0.0,0.0,0.0,0.0,0.0,0.0,0.0,0.0,0.0,0.0,0.0,0.0,0.0,0.0,0.0,0.0,0.0,0.0,0.0,0.0,0.0,0.0,0.0,0.0,5.1286,5.1366,5.0624,5.0077,0.0,0.0,4.8774,4.8795,4.8783,0.0,0.0,0.0,0.0,0.0,0.0,0.0,0.0,0.0,0.0,0.0,0.0,0.0,0.0,0.0,0.0,0.0,0.0,0.0,0.0,0.0,0.0,0.0,0.0,0.0,0.0,0.0,0.0,0.0,0.0,0.0,0.0,0.0,0.0,0.0,0.0,0.0,0.0,0.0,0.0,0.0,0.0,0.0,0.0,0.0,0.0,0.0,0.0,0.0,0.0,0.0,0.0,0.0,0.0,0.0,4.6162,4.6217,4.6207,4.6194,4.6254,4.6279,4.6287,4.6288,4.6287,4.6281,0.0,0.0,0.0,0.0,0.0,0.0,0.0,0.0,0.0,0.0,0.0,0.0,0.0,0.0,0.0,0.0,0.0,0.0,0.0,0.0,0.0,0.0,0.0,0.0,0.0,0.0,0.0,0.0,0.0,0.0,0.0,0.0,0.0,0.0,0.0,0.0,0.0,0.0,0.0,0.0,0.0,0.0,5.2654,5.2146,0.0,0.0,0.0,5.1014,5.1004,0.0,0.0,0.0,0.0,0.0,0.0,0.0,0.0,0.0,0.0,0.0,0.0,0.0,0.0,0.0,0.0,0.0,0.0,0.0,0.0,0.0,0.0,0.0,0.0,0.0,0.0,0.0,0.0,0.0,0.0,0.0,0.0,0.0,0.0,0.0,0.0,0.0,0.0,0.0,0.0,0.0,0.0,0.0,0.0,0.0,0.0,0.0,0.0,0.0,0.0,0.0,0.0,0.0,0.0,0.0,0.0,0.0,4.6193,4.6194,4.6257,4.631,4.6287,4.6289,4.6288,4.6279,0.0,0.0,0.0,0.0,0.0,0.0,0.0,0.0,0.0,0.0,0.0,0.0,0.0,0.0,0.0,0.0,0.0,0.0,0.0,0.0,0.0,0.0,0.0,0.0,0.0,0.0,0.0,4.355,0.0,0.0,0.0,0.0,0.0,0.0,0.0,0.0,0.0,0.0,0.0,0.0,0.0,0.0,5.0964,5.3347,5.3113,5.2997,0.0,0.0,5.2693,5.2694,5.199,5.0814,0.0,0.0,0.0,0.0,0.0,0.0,0.0,0.0,0.0,0.0,0.0,0.0,0.0,0.0,0.0,0.0,0.0,0.0,0.0,0.0,0.0,0.0,0.0,0.0,0.0,0.0,0.0,0.0,0.0,0.0,0.0,0.0,0.0,0.0,0.0,0.0,0.0,0.0,0.0,0.0,0.0,0.0,0.0,0.0,0.0,0.0,0.0,0.0,0.0,0.0,0.0,0.0,0.0,0.0,4.6224,4.6187,4.6249,4.6311,4.6286,4.6289,4.6285,4.6315,4.6306,4.6302,0.0,0.0,0.0,0.0,0.0,0.0,0.0,0.0,0.0,0.0,0.0,0.0,0.0,0.0,0.0,0.0,0.0,0.0,0.0,0.0,0.0,0.0,0.0,0.0,0.0,0.0,0.0,0.0,0.0,0.0,0.0,0.0,0.0,0.0,0.0,0.0,0.0,0.0,0.0,0.0,0.0,5.0751,5.2549,5.2744,5.3017,0.0,5.3259,5.272,5.2689,5.195,5.082,4.9096,0.0,0.0,0.0,0.0,0.0,0.0,0.0,0.0,0.0,0.0,0.0,0.0,0.0,0.0,0.0,0.0,0.0,0.0,0.0,0.0,0.0,0.0,0.0,0.0,0.0,0.0,0.0,0.0,0.0,0.0,0.0,0.0,0.0,0.0,0.0,0.0,0.0,0.0,0.0,0.0,0.0,0.0,0.0,0.0,0.0,0.0,0.0,0.0,0.0,0.0,0.0,0.0,0.0,4.6465,4.6982,4.7042,4.7373,4.7851,4.7381,4.7102,4.7092,4.6578,4.6301,0.0,0.0,0.0,0.0,0.0,0.0,0.0,0.0,0.0,0.0,0.0,0.0,0.0,0.0,0.0,0.0,0.0,0.0,0.0,0.0,0.0,0.0,0.0,0.0,0.0,0.0,0.0,0.0,4.6105,4.6298,4.6292,0.0,0.0,0.0,0.0,0.0,0.0,0.0,0.0,0.0,0.0,5.0944,5.3171,5.3483,0.0,0.0,5.4423,5.353,5.3501,5.2333,5.101,4.9844,4.9217,0.0,0.0,0.0,0.0,0.0,0.0,0.0,0.0,0.0,0.0,0.0,0.0,0.0,0.0,0.0,0.0,0.0,0.0,0.0,0.0,0.0,0.0,0.0,0.0,0.0,0.0,0.0,0.0,0.0,0.0,0.0,0.0,0.0,0.0,0.0,0.0,0.0,0.0,0.0,0.0,0.0,0.0,0.0,0.0,0.0,0.0,0.0,0.0,0.0,0.0,0.0,0.0,4.7061,4.7887,4.7947,4.8276,4.8867,4.8317,4.7997,4.7948,4.7122,4.669,0.0,0.0,0.0,0.0,0.0,0.0,0.0,0.0,0.0,0.0,0.0,0.0,0.0,0.0,0.0,0.0,0.0,0.0,0.0,0.0,0.0,0.0,0.0,0.0,0.0,0.0,0.0,0.0,4.6301,4.6297,4.6286,0.0,0.0,0.0,0.0,0.0,0.0,0.0,0.0,0.0,0.0,5.1061,5.3599,5.399,5.4614,5.6332,5.5357,5.4306,5.4039,5.2752,5.143,5.0347,0.0,0.0,0.0,0.0,0.0,0.0,0.0,0.0,0.0,0.0,0.0,0.0,0.0,0.0,0.0,0.0,0.0,0.0,0.0,0.0,0.0,0.0,0.0,0.0,0.0,0.0,0.0,5.132,0.0,0.0,5.132,0.0,0.0,0.0,0.0,0.0,0.0,0.0,0.0,0.0,0.0,0.0,0.0,0.0,0.0,0.0,0.0,0.0,0.0,0.0,0.0,0.0,0.0,4.7973,4.8784,4.885,4.8904,4.8944,4.8862,4.8854,4.876,4.7978,4.7587,4.7547,0.0,0.0,0.0,0.0,0.0,0.0,0.0,0.0,0.0,0.0,0.0,0.0,0.0,0.0,0.0,0.0,0.0,0.0,0.0,0.0,0.0,0.0,0.0,0.0,0.0,0.0,4.6341,4.6301,4.6297,0.0,0.0,0.0,0.0,0.0,0.0,0.0,0.0,0.0,4.981,5.0085,5.1061,5.3599,5.399,5.4614,5.6333,5.5825,5.4967,5.4148,5.3251,5.2086,0.0,0.0,0.0,0.0,0.0,0.0,0.0,0.0,0.0,0.0,0.0,0.0,0.0,0.0,0.0,0.0,0.0,0.0,0.0,0.0,0.0,0.0,0.0,0.0,0.0,0.0,0.0,5.2721,5.2255,0.0,0.0,0.0,0.0,0.0,0.0,0.0,0.0,0.0,0.0,0.0,5.3888,5.3888,0.0,0.0,0.0,0.0,0.0,0.0,0.0,0.0,0.0,0.0,0.0,0.0,4.8835,4.9615,4.9672,4.9959,5.0542,4.9993,4.9674,4.9656,4.8837,4.8131,4.7537,0.0,0.0,0.0,0.0,0.0,0.0,0.0,0.0,0.0,0.0,0.0,0.0,0.0,0.0,0.0,0.0,0.0,0.0,0.0,0.0,0.0,0.0,0.0,0.0,0.0,4.7806,0.0,0.0,0.0,0.0,0.0,0.0,0.0,0.0,0.0,0.0,4.8534,4.9429,5.0017,5.0598,5.1492,5.2937,5.3639,5.4422,0.0,0.0,0.0,0.0,0.0,0.0,0.0,0.0,0.0,0.0,0.0,0.0,0.0,0.0,4.7932,4.7932,4.7464,4.6996,4.6685,0.0,0.0,0.0,0.0,0.0,0.0,0.0,0.0,0.0,0.0,0.0,0.0,0.0,0.0,5.3578,5.311,5.3656,0.0,0.0,0.0,0.0,0.0,0.0,0.0,0.0,5.4671,5.4788,5.4827,5.4827,5.4632,0.0,5.3773,5.276,0.0,0.0,0.0,0.0,0.0,0.0,0.0,0.0,4.9535,5.0084,5.0102,5.0233,5.0503,5.0266,5.0103,5.0086,4.9536,4.8865,4.7993,4.7946,4.7428,0.0,0.0,0.0,0.0,0.0,0.0,0.0,0.0,0.0,0.0,0.0,0.0,0.0,0.0,0.0,0.0,0.0,0.0,0.0,0.0,0.0,0.0,0.0,4.867,0.0,0.0,0.0,0.0,0.0,0.0,0.0,0.0,0.0,4.8474,4.9409,5.0227,5.0498,5.1041,5.1701,5.2597,0.0,0.0,0.0,0.0,0.0,0.0,0.0,5.3164,5.2029,5.1356,5.0868,5.0568,5.0063,4.9683,4.9644,0.0,0.0,4.8904,4.8321,4.7971,4.7971,4.7501,4.7113,4.7113,4.7113,4.7113,0.0,0.0,0.0,0.0,5.4066,0.0,0.0,0.0,5.4007,5.4007,0.0,5.4007,0.0,0.0,0.0,0.0,5.4007,5.4864,0.0,0.0,5.6074,5.6466,5.6466,5.6427,5.6035,5.5292,5.5173,5.4706,5.3812,5.1415,0.0,0.0,0.0,0.0,0.0,0.0,5.0068,5.0032,5.0021,4.9685,4.9022,4.9721,5.0142,5.0163,5.0152,4.9709,4.8877,4.8835,4.8829,4.8776,4.8735,0.0,0.0,0.0,0.0,0.0,0.0,0.0,0.0,0.0,0.0,0.0,0.0,0.0,0.0,0.0,0.0,0.0,0.0,0.0,0.0,4.8945,0.0,0.0,0.0,0.0,0.0,0.0,0.0,0.0,0.0,5.0112,5.0156,5.0195,5.0508,5.1327,0.0,0.0,0.0,0.0,5.433,5.5193,5.6014,5.6249,5.5311,5.5192,5.4604,5.2952,0.0,0.0,5.1437,5.1294,5.124,5.1279,5.1203,5.0774,4.9218,4.8904,4.8828,4.8826,4.8748,4.875,4.8789,4.8633,4.8672,5.9724,0.0,0.0,0.0,0.0,5.67,5.6336,5.5764,5.5764,5.5411,5.4864,5.5489,0.0,0.0,0.0,0.0,0.0,0.0,5.6115,5.6115,5.6388,5.6505,5.6505,5.6505,5.6349,5.6115,5.5487,5.5059,5.4786,5.3467,5.2506,5.1863,0.0,0.0,0.0,0.0,4.9163,4.9173,4.9196,4.9371,4.9764,4.9994,5.0413,5.1013,5.0989,5.0582,4.9757,4.9668,4.9384,4.8835,4.8796,0.0,0.0,0.0,0.0,0.0,0.0,0.0,0.0,0.0,0.0,0.0,0.0,0.0,0.0,0.0,0.0,0.0,0.0,0.0,5.0619,5.0112,4.9762,0.0,0.0,0.0,0.0,0.0,0.0,0.0,0.0,0.0,5.1837,5.1934,5.2024,0.0,0.0,5.3359,5.3593,5.4374,5.5039,5.5271,5.5973,0.0,5.5332,5.5208,5.4615,5.2969,5.213,5.1598,5.1335,5.1283,5.132,5.132,5.132,5.1123,5.0696,5.0071,4.9683,4.9605,4.9216,4.8828,4.8789,4.8789,4.8828,6.1904,6.0519,5.9509,5.8793,5.8291,5.8252,5.7968,5.7479,5.713,5.67,5.6191,5.6427,5.592,5.4944,5.5489,0.0,0.0,0.0,5.6505,5.6505,5.6505,5.6505,5.6505,5.6505,5.6505,5.6466,5.5957,5.5723,5.5723,5.4825,5.4169,5.36,0.0,5.162,5.1064,5.0227,4.9619,4.9322,4.9304,4.9404,4.9609,4.9916,5.0525,5.1351,5.1372,5.1081,5.0596,5.0546,5.0268,4.9839,4.98,4.9644,0.0,0.0,0.0,0.0,0.0,0.0,0.0,0.0,0.0,0.0,0.0,4.7669,4.8036,0.0,0.0,0.0,5.0117,5.0974,5.1827,5.1437,0.0,0.0,0.0,0.0,0.0,0.0,0.0,5.1539,5.208,5.2579,5.3072,5.3447,5.3549,5.3219,5.3614,5.3971,5.3937,0.0,5.5264,5.5252,5.5954,5.6298,5.5803,5.5715,5.5162,5.3438,5.2407,5.1686,5.1361,5.132,5.132,5.132,5.132,5.132,5.132,5.0852,5.0502,5.0502,5.0112,4.98,4.9761,4.98,4.98,6.389,6.2884,6.044,5.9295,5.9106,5.9106,5.9055,5.8921,5.8141,5.7791,5.7752,5.6933,5.6585,5.6505,5.6505,0.0,5.6505,5.6505,5.6505,5.6505,5.6505,5.6505,5.6505,5.6505,5.6505,5.6505,5.6505,5.6505,5.6427,5.5684,5.5292,5.5253,5.3539,5.2643,5.2567,5.1651,5.0851,5.0204,5.0073,4.9669,4.9022,4.976,5.0595,5.1378,5.1375,5.1359,5.1285,5.132,5.132,5.1281,5.132,5.093,5.0153,0.0,0.0,0.0,0.0,0.0,0.0,0.0,0.0,0.0,0.0,0.0,0.0,0.0,0.0,5.039,5.1133,0.0,5.273,5.2805,0.0,0.0,0.0,5.3998,5.3987,5.3986,5.3972,5.3887,0.0,0.0,5.4009,5.4747,5.5001,5.4194,5.4121,5.4088,5.4099,5.4844,5.5308,5.5373,5.5996,5.6494,5.6423,5.6338,5.5708,5.429,5.3305,5.245,5.1749,5.1476,5.1437,5.1474,5.1359,5.132,5.132,5.1279,5.1281,5.124,5.1242,5.124,5.1164,5.1162,5.1125,6.5088,6.4716,6.2791,6.1212,6.0021,5.998,5.9627,5.8999,5.8804,5.8687,5.8648,5.7791,5.7089,5.6505,5.6505,5.6505,5.6505,5.6505,5.6505,5.6505,5.6505,5.6505,5.6505,5.6505,5.6505,5.6505,5.6505,5.6505,5.6505,5.631,5.6193,5.6115,5.4437,5.3266,5.2565,5.109,5.0557,5.1003,4.9746,4.9357,4.9804,5.0651,5.1216,5.1392,5.1331,5.1314,5.1305,5.129,5.132,5.132,5.132,5.1209,5.0993,5.0407,0.0,0.0,0.0,0.0,0.0,0.0,0.0,0.0,0.0,4.9561,4.9766,0.0,5.1362,0.0,5.2872,5.3453,5.3677,5.3674,0.0,0.0,5.3926,5.3919,5.3945,5.3941,5.3931,5.3902,5.4482,5.4909,5.4903,5.5645,5.6119,5.5901,5.5876,5.589,5.5906,5.6065,5.6176,5.6198,5.6351,5.65,5.6441,5.5924,5.5416,5.4942,5.4162,5.3539,5.3305,5.2721,5.2292,5.2253,5.1708,5.1357,5.1359,5.132,5.132,5.132,5.132,5.132,5.132,5.1279,5.1279,6.5826,6.5418,6.4458,6.3033,6.1412,6.1025,6.0594,6.0126,5.9737,5.9581,5.9503,5.8258,5.744,5.7013,5.6663,5.6505,5.6505,5.6505,5.6505,5.6505,5.6505,5.6505,5.6505,5.6505,5.6505,5.6505,5.6505,5.6505,5.6466,5.6115,5.6115,5.6466,5.5139,5.4435,5.4242,5.1826,5.0823,5.1271,5.0802,5.0956,5.1796,5.2301,5.2365,5.1986,5.1936,5.1726,5.1314,5.1348,5.1346,5.1346,5.1346,5.1315,5.1334,5.1297,5.1265,0.0,0.0,0.0,0.0,0.0,0.0,0.0,0.0,0.0,0.0,0.0,5.2765,5.3263,5.3691,5.4153,5.4527,5.4564,5.4712,5.5042,5.5038,5.5071,5.5053,5.5051,5.5044,5.5063,5.5489,5.5801,5.5801,5.6193,5.6505,5.6505,5.6476,5.6486,5.6496,5.65,5.6496,5.6482,5.6482,5.648,5.6507,5.6115,5.5645,5.5253,5.4823,5.4357,5.3968,5.35,5.3188,5.3149,5.276,5.2448,5.2448,5.2097,5.1904,5.1824,5.1552,5.132,5.132,5.0969,5.0735,6.6448,6.5652,6.5548,6.459,6.3127,6.2192,6.1724,6.1529,6.0789,6.0399,6.0207,5.8687,5.7985,5.783,5.7128,5.6819,5.6819,5.6816,5.6819,5.6819,5.6819,5.6819,5.6819,5.6816,5.678,5.6663,5.6663,5.6624,5.6466,5.5723,5.5762,5.6427,5.5723,5.5762,5.631,5.3465,5.1838,5.1663,5.2567,5.3335,5.3974,5.3983,5.3629,5.2896,5.2859,5.2458,5.1681,5.1727,5.1733,5.1733,5.1733,5.174,5.1753,5.2458,5.2854,0.0,5.3569,0.0,0.0,0.0,0.0,0.0,0.0,0.0,0.0,5.3668,5.4174,5.4169,5.4245,5.4629,5.539,5.5465,5.5728,5.6402,5.6477,5.6509,5.6492,5.649,5.6484,5.6509,5.6505,5.6505,5.6466,5.6505,5.6505,5.6505,5.6507,5.6509,5.6507,5.6509,5.6509,5.6505,5.6505,5.6509,5.6507,5.6466,5.6232,5.5526,5.5409,5.5098,5.4437,5.4201,5.4084,5.4046,5.389,5.3812,5.389,5.3225,5.2795,5.2715,5.2089,5.1505,5.1277,5.0811,5.0151,6.7335,6.6508,6.5725,6.5234,6.48,6.3283,6.2231,6.1607,6.1412,6.0945,6.0282,5.9971,5.9427,5.8765,5.8609,5.8531,5.8531,5.8531,5.8531,5.8531,5.8531,5.8531,5.8531,5.8531,5.8141,5.7518,5.7481,5.713,5.6505,5.6349,5.6349,5.6505,5.631,5.6349,5.6466,0.0,0.0,0.0,5.427,5.4493,5.4005,5.3982,5.3945,5.3745,5.3737,0.0,5.3491,5.3483,5.3518,5.3519,5.3519,0.0,0.0,0.0,0.0,0.0,0.0,0.0,0.0,0.0,0.0,0.0,5.4333,5.433,5.3822,5.4554,5.5053,5.5089,5.5667,5.6082,5.6259,5.6283,5.6345,5.6482,5.6478,5.6476,5.6472,5.6472,5.6509,5.6507,5.6505,5.6505,5.6505,5.6505,5.6505,5.6505,5.6505,5.6505,5.6505,5.6505,5.6505,5.6505,5.6505,5.6505,5.6505,5.6505,5.6466,5.6271,5.6271,5.6154,5.592,5.5331,5.4979,5.494,5.4357,5.3927,5.3927,5.3719,5.3586,5.3586,5.2872,5.2054,5.1429,5.1201,5.0846,6.8182,6.7348,6.6883,6.6203,0.0,6.4956,6.406,6.2776,6.1958,6.1607,6.1571,6.1568,6.1334,6.0906,6.0479,6.0285,6.0285,6.0282,6.0285,6.0285,6.0282,6.0285,6.0285,5.9856,5.9427,5.896,5.857,5.8102,5.7713,5.7284,5.7089,5.7091,5.6702,5.6505,5.6505,5.6894,5.6673,5.5833,5.6249,5.6276,5.5909,5.5888,5.5467,5.4687,5.4646,0.0,0.0,0.0,0.0,0.0,0.0,0.0,0.0,5.4407,0.0,5.4648,5.5039,5.5273,5.5272,5.527,5.5269,5.5307,5.5693,5.5767,5.53,5.5679,5.5942,5.5942,5.6281,5.6502,5.6485,5.6505,5.6486,5.6509,5.6505,5.6505,5.6505,5.6505,5.6505,5.6505,5.6505,5.6505,5.6505,5.6505,5.6505,5.6505,5.6505,5.6505,5.6505,5.6505,5.6505,5.6505,5.6505,5.6505,5.6505,5.6505,5.6505,5.6505,5.6505,5.6505,5.6505,5.6154,5.5838,5.5788,5.5433,5.5158,5.5105,5.4779,5.4414,5.4324,5.3688,5.3019,5.2492,5.1539,5.0542,6.9029,6.8227,6.8242,6.7294,6.5891,6.6476,6.5813,6.4218,6.2542,0.0,0.0,6.2737,6.2737,6.2854,6.2153,6.188,6.2036,6.2036,6.2036,6.2036,6.2036,6.2036,6.1997,6.1334,6.0908,6.0713,6.0049,5.962,5.9466,5.8726,5.8414,5.8336,5.7869,5.7713,5.7869,5.8375,5.8659,5.8679,5.8228,5.8017,5.8043,5.8019,5.737,5.5975,5.582,5.5429,5.4723,5.4527,5.4449,5.4488,5.445,5.4451,5.4492,5.5156,5.5547,5.5583,5.6208,5.6597,5.6593,5.6631,5.663,5.6628,5.6623,5.6618,5.6618,5.6611,5.6604,5.6564,5.6513,5.6496,5.648,5.65,5.6484,5.6507,5.6505,5.6505,5.6505,5.6505,5.6505,5.6505,5.6505,5.6505,5.6505,5.6505,5.6505,5.6505,5.6505,5.6505,5.6505,5.6505,5.6505,5.6505,5.6505,5.6505,5.6505,5.6505,5.6505,5.6505,5.6505,5.6505,5.65,5.65,5.645,5.6349,5.6381,5.6329,5.6308,5.5747,5.5302,5.5193,5.4481,5.3883,5.3702,5.2173,5.0692,6.9911,6.9124,6.9102,6.8543,6.7606,6.6982,6.6125,6.5073,6.3439,6.2776,6.2854,6.2114,6.2192,6.2893,6.2776,6.3088,6.3748,6.3748,6.375,6.375,6.375,6.375,6.375,6.3631,6.3205,6.2542,6.2426,6.1958,6.1295,6.1101,6.1064,6.1101,6.1685,6.227,6.2932,6.2465,6.2164,6.2147,5.9968,5.885,5.891,5.8898,5.8839,5.8577,5.7886,5.7498,5.7343,5.664,5.6249,5.6249,5.6208,5.6245,5.6244,5.6323,5.64,5.6399,5.6555,5.6593,5.6631,5.6626,5.6619,5.6611,5.6608,5.6608,5.6608,5.6606,5.6563,5.6511,5.6497,5.648,5.65,5.6482,5.647,5.6507,5.6505,5.6505,5.6505,5.6505,5.6505,5.6505,5.6505,5.6505,5.6505,5.6505,5.6505,5.6505,5.6505,5.6505,5.6505,5.6505,5.6505,5.6505,5.6505,5.6505,5.6505,5.6505,5.6505,5.6505,5.6505,5.6457,5.6439,5.6393,5.6422,5.6399,5.6372,5.6314,5.6305,5.6184,5.5944,5.5821,5.5175,5.4673,5.4556,5.3546,5.2457,7.1224,7.0042,6.9993,6.952,6.8621,6.7761,6.7452,6.7296,6.5192,6.4803,6.5657,6.5738,6.6013,6.6364,6.6364,6.6322,6.6203,6.6203,6.593,6.554,6.5501,6.554,6.5462,6.5034,6.4608,6.4257,6.375,6.3361,6.2932,6.2503,6.2309,6.2309,6.227,6.262,6.3361,6.3088,6.3093,6.3492,6.1478,6.021,5.9799,5.9785,5.9565,5.9102,5.8731,5.8544,5.8544,5.8157,5.7963,5.7963,5.7532,5.7296,5.7296,5.6866,5.663,5.6626,5.6626,5.6624,5.662,5.6616,5.6569,5.6557,5.6518,5.6553,5.6545,5.6552,5.6511,5.6496,5.6478,5.6503,5.6494,5.6476,5.6505,5.6505,5.6505,5.6505,5.6505,5.6505,5.6505,5.6505,5.6505,5.6505,5.6505,5.6505,5.6505,5.6505,5.6505,5.6505,5.6505,5.6505,5.6505,5.6505,5.6505,5.6505,5.6505,5.6505,5.6461,5.645,5.6448,5.6437,5.6412,5.6358,5.6336,5.6344,5.6259,5.6177,5.6195,5.6145,5.609,5.5968,5.575,5.5406,5.525,5.4653,5.3529,7.2578,7.1196,7.1157,7.0572,6.9559,6.8894,6.905,6.9637,6.792,6.7881,6.9008,6.8699,6.8546,6.8741,6.8897,6.8738,6.8349,6.831,6.792,6.7333,6.7296,6.7296,6.7177,6.6398,6.6008,6.5891,6.5112,6.4683,6.4608,6.4062,6.375,6.3711,6.3088,6.3088,6.375,6.3556,6.3789,6.4257,6.2948,6.1876,6.1274,6.1256,6.0837,6.006,5.9771,5.9587,5.9393,5.9203,5.9128,5.9089,5.8502,5.819,5.815,5.7331,5.6859,5.6853,5.6696,5.6614,5.6606,5.6564,5.6558,5.6509,5.6504,5.6496,5.6521,5.6685,5.6688,5.6517,5.6503,5.6492,5.6486,5.6476,5.6505,5.6505,5.6505,5.6505,5.6505,5.6505,5.6505,5.6505,5.6505,5.6505,5.6505,5.6505,5.6585,5.678,5.6933,5.705,5.7044,5.708,5.7002,5.6762,5.6611,5.6457,5.6459,5.6453,5.6441,5.6386,5.6383,5.6404,5.6378,5.6347,5.6272,5.6268,5.6163,5.6068,5.6054,5.6008,5.5964,5.5884,5.5793,5.5808,5.5701,5.5247,5.4405,7.3729,7.2947,7.283,7.1936,7.0533,7.0378,7.0728,7.1508,7.2053,7.244,7.1973,6.7803,6.6437,6.6982,6.7917,6.8621,6.9131,6.917,6.9092,6.9014,6.9053,6.9053,6.8897,6.8154,6.7761,6.7606,6.6865,6.6476,6.6476,6.632,6.632,6.6359,6.6281,6.6203,6.6244,6.554,6.5229,6.5268,6.4374,6.3882,6.3869,6.3848,6.3476,6.2673,6.1841,6.1071,6.0408,5.951,5.912,5.9119,5.9073,5.899,5.8911,5.8171,5.7702,5.7662,5.7036,5.6606,5.6605,5.6555,5.6587,5.6507,5.6572,5.6595,5.6615,5.7281,5.7359,5.6808,5.6533,5.6642,5.6511,5.6546,5.6585,5.6624,5.6505,5.6505,5.6505,5.6505,5.6505,5.6505,5.6585,5.6505,5.6661,5.6697,5.6892,5.7513,5.8093,5.8476,5.8457,5.8488,5.8247,5.7572,5.6957,5.6507,5.6429,5.6412,5.6399,5.6391,5.6389,5.6361,5.6317,5.6288,5.6268,5.6126,5.6054,5.5999,5.5959,5.5909,5.5856,5.5817,5.5797,5.5771,5.5671,5.55,5.5006,7.4661,7.3882,7.3882,7.3181,7.205,7.104,7.104,7.1778,7.1661,7.1897,7.2167,7.0609,6.9868,6.9751,7.0102,7.0183,7.0066,7.0066,6.9793,6.9325,6.9325,6.9325,6.9247,6.8975,6.8738,6.8777,6.8388,6.8232,6.8154,6.7722,6.7489,6.745,6.7489,6.7722,6.8115,6.7372,6.6943,6.6904,6.6086,6.5662,6.5562,6.4696,6.4054,6.3714,6.3392,6.3093,6.2665,6.1844,6.1414,6.1336,6.0434,5.9885,5.9846,5.9065,5.8558,5.8557,5.8276,5.8078,5.8078,5.8064,5.8011,5.7962,5.7992,5.7981,5.8,5.831,5.8349,5.8074,5.7996,5.7994,5.791,5.752,5.7206,5.7167,5.6819,5.6505,5.6505,5.6505,5.6663,5.7091,5.7208,5.744,5.7866,5.7972,5.8116,5.8425,5.8805,5.9023,5.8968,5.8915,5.8782,5.8417,5.801,5.7358,5.6697,5.6342,5.6358,5.6335,5.6317,5.6239,5.6216,5.6129,5.6086,5.6008,5.5941,5.589,5.5861,5.5776,5.5708,5.5692,5.5616,5.5621,5.557,5.5541,5.5351,7.5752,7.4817,7.4505,7.4038,7.3375,7.217,7.1975,7.244,7.2131,7.2206,7.2596,7.3453,7.3336,7.2596,7.2518,7.2053,7.1352,7.1274,7.0806,7.0066,6.9988,6.9988,6.9988,6.9715,6.9676,6.9598,6.9364,6.9286,6.9247,6.8699,6.8349,6.8349,6.8349,6.866,6.917,6.866,6.8349,6.831,6.7725,6.7411,6.7265,6.6213,6.526,6.464,6.4594,6.4571,6.4298,6.3712,6.336,6.3321,6.2112,6.1331,6.1095,6.0274,5.961,5.9177,5.9129,5.912,5.9116,5.91,5.9045,5.8993,5.8987,5.8977,5.9042,5.9232,5.9349,5.9349,5.9583,5.9583,5.896,5.8453,5.8102,5.7985,5.7518,5.7169,5.7206,5.7169,5.7481,5.7947,5.8063,5.8254,5.8829,5.9116,5.9293,5.9329,5.9502,5.9596,5.958,5.9627,5.9519,5.9234,5.9056,5.8485,5.7295,5.6809,5.6667,5.6484,5.6445,5.6126,5.6054,5.6012,5.5964,5.5918,5.5827,5.5761,5.574,5.566,5.5554,5.5543,5.5508,5.5505,5.5455,5.5482,5.5463,7.7194,7.5635,7.4739,7.4388,7.4311,7.4155,7.4194,7.4233,7.4934,7.4934,7.435,7.5129,7.509,7.4272,7.4272,7.3804,7.3025,7.2908,7.2482,7.1741,7.1702,7.17,7.1622,7.0923,7.0572,7.0572,6.9871,6.9442,6.9364,6.9286,6.9247,6.9247,6.9247,6.9247,6.9403,6.9325,6.9247,6.9208,6.9053,6.9092,6.9097,6.9025,6.7756,6.5845,6.5529,6.5234,6.4493,6.4298,6.4259,6.422,6.4025,6.3673,6.2891,6.207,6.0893,5.9476,5.9239,5.9192,5.9217,5.92,5.9147,5.9104,5.9207,5.9077,5.9271,5.9854,6.0246,6.0243,6.0869,6.0711,5.9466,5.9077,5.896,5.8921,5.8882,5.8765,5.8804,5.8607,5.8843,5.8957,5.9031,5.9136,5.915,5.9672,6.008,6.0263,6.0753,6.1107,6.0985,6.1008,6.0599,6.0054,5.974,5.9499,5.8719,5.7854,5.742,5.7283,5.6871,5.6197,5.6007,5.5889,5.5914,5.586,5.5745,5.5682,5.5632,5.5581,5.5535,5.5499,5.547,5.5433,5.5427,5.5409,5.5403,7.8399,7.723,7.583,7.5246,7.5168,7.4622,7.47,7.5168,7.4934,7.5051,7.5246,7.5558,7.5519,7.5246,7.583,7.5285,7.3999,7.3921,7.3765,7.3492,7.3453,7.3453,7.3375,7.2599,7.2209,7.205,7.131,7.0611,7.0144,7.0105,7.0144,7.0144,7.0105,7.0378,7.0728,7.0378,7.0144,7.0105,6.9598,6.9325,6.9367,6.9319,6.8828,6.7972,6.7437,6.6795,6.5937,6.5391,6.5157,6.5116,6.461,6.4142,6.3828,6.3507,6.2793,6.1683,6.1513,6.1268,6.0793,6.0657,6.0647,6.0686,6.0677,6.0674,6.0713,6.0947,6.114,6.1179,6.1373,6.1218,6.0789,6.0168,5.9817,5.9778,5.9349,5.9077,5.8994,5.8983,5.9204,5.9747,6.0243,6.057,6.0499,6.0777,6.0942,6.0914,6.1132,6.1244,6.1254,6.1147,6.0929,6.0708,6.0587,6.0485,6.0259,5.8934,5.8108,5.806,5.78,5.7593,5.7394,5.6776,5.668,5.6483,5.622,5.5669,5.5617,5.5505,5.5457,5.5447,5.5409,5.5415,5.5396,5.5377,5.5403,7.9178,7.8558,7.7425,7.6921,7.6804,7.5713,7.5558,7.5986,7.5207,7.5168,7.5674,7.5986,7.6142,7.6142,7.6451,7.5986,7.4895,7.4817,7.4661,7.4388,7.4388,7.4388,7.4311,7.3804,7.3531,7.3414,7.2947,7.2326,7.1897,7.1819,7.1817,7.1856,7.1819,7.2092,7.2443,7.1819,7.143,7.1235,7.0572,7.0105,7.0107,7.0128,6.9984,6.9679,6.9176,6.838,6.7289,6.6429,6.5999,6.5921,6.5415,6.4986,6.4711,6.439,6.3946,6.3382,6.3327,6.3079,6.2526,6.2396,6.2387,6.2387,6.2387,6.2348,6.2075,6.2036,6.1919,6.1685,6.1568,6.1568,6.1481,6.1011,6.0704,6.0631,6.0161,5.9805,5.9803,5.9854,6.0105,6.0558,6.1041,6.1318,6.1352,6.1309,6.1268,6.1263,6.1191,6.1146,6.1132,6.106,6.0951,6.0985,6.0883,6.0801,6.0647,5.9766,5.9014,5.8899,5.8443,5.8429,5.8358,5.7731,5.734,5.7134,5.6659,5.5998,5.5611,5.5497,5.5415,5.5447,5.5403,5.5377,5.5409,5.5403,5.5396,7.9529,7.949,7.9451,7.9256,7.8945,7.7623,7.6999,7.6957,7.6181,7.5908,7.6142,7.6607,7.6838,7.6799,7.6247,7.5785,7.5744,7.5702,7.5279,7.4583,7.4583,7.4622,7.4622,7.4466,7.435,7.4272,7.4311,7.4272,7.4077,7.3999,7.4038,7.4233,7.4038,7.396,7.4311,7.3375,7.3027,7.2833,7.217,7.1819,7.1822,7.1765,7.1383,7.0722,7.0474,6.9707,6.8186,6.7292,6.6789,6.6787,6.6709,6.6354,6.5535,6.4831,6.4277,6.422,6.4216,6.4164,6.3989,6.3906,6.3828,6.3828,6.3945,6.3553,6.3005,6.2888,6.2613,6.2065,6.1754,6.1673,6.1653,6.1492,6.1422,6.1561,6.1271,6.1219,6.1292,6.1423,6.1427,6.1315,6.1391,6.1344,6.1236,6.1186,6.1177,6.1132,6.1041,6.0997,6.0982,6.0938,6.0922,6.0844,6.0793,6.074,6.0691,6.0577,6.0125,5.9721,5.906,5.8706,5.8777,5.8395,5.8173,5.7933,5.7308,5.6645,5.6238,5.6091,5.5741,5.5708,5.5587,5.5435,5.5396,5.5396,5.5396,8.0386,8.0308,7.9763,7.949,7.9451,7.8906,7.8711,7.8633,7.7854,7.7506,7.7422,7.7089,7.6923,7.6917,7.6631,7.654,7.654,7.6504,7.6099,7.5471,7.5905,7.6139,7.6022,7.5555,7.4973,7.4466,7.4388,7.4427,7.4427,7.4427,7.4388,7.4388,7.4427,7.4388,7.4466,7.4116,7.3999,7.396,7.3726,7.3297,7.2755,7.2721,7.2298,7.1479,7.0905,7.0325,6.9779,6.8444,6.7756,6.7678,6.7134,6.6658,6.6334,6.6057,6.5656,6.509,6.5007,6.4693,6.4179,6.4138,6.4177,6.4099,6.4138,6.4011,6.38,6.372,6.3556,6.3192,6.2797,6.2402,6.2318,6.181,6.1615,6.1548,6.1504,6.1495,6.1484,6.1444,6.1373,6.1291,6.1259,6.1212,6.1102,6.1094,6.1065,6.101,6.0959,6.0916,6.0867,6.081,6.0728,6.0679,6.0629,6.0617,6.0604,6.0585,6.0386,6.0167,5.9714,5.9344,5.9332,5.9185,5.8962,5.8547,5.7921,5.7429,5.7021,5.6664,5.6358,5.6014,5.5899,5.5702,5.5473,5.5396,5.5396,8.1983,8.1672,8.1127,8.0698,8.0387,8.0114,7.9958,7.9802,7.9062,7.8712,7.8549,7.8104,7.7821,7.774,7.7485,7.7361,7.7361,7.7322,7.6919,7.6294,7.6651,7.6962,7.6923,7.6417,7.5878,7.542,7.5345,7.5351,7.5363,7.5363,7.5363,7.5363,7.5363,7.5402,7.5324,7.5051,7.4895,7.4856,7.4544,7.4155,7.3726,7.357,7.3181,7.2362,7.1769,7.1374,7.0987,6.972,6.8685,6.8039,6.7225,6.675,6.6697,6.6649,6.6442,6.6037,6.5829,6.5589,6.5083,6.5117,6.5044,6.5005,6.5005,6.4841,6.4669,6.4546,6.4456,6.3962,6.3567,6.3243,6.3142,6.2785,6.2387,6.2313,6.181,6.1502,6.1394,6.1344,6.1267,6.1177,6.1098,6.1085,6.1016,6.098,6.0948,6.0916,6.0871,6.0819,6.0728,6.0679,6.0623,6.0585,6.0565,6.0552,6.0546,6.0526,6.0506,6.045,6.0341,6.0194,6.0118,5.9874,5.9642,5.9055,5.8486,5.8059,5.7657,5.7351,5.7046,5.6702,5.6434,5.6167,5.5976,5.5511,5.5435,8.4007,8.3423,8.3345,8.2801,8.2065,8.1287,8.0941,8.0746,7.9964,7.9614,7.9571,7.9404,7.9361,7.9209,7.8485,7.8131,7.8155,7.8139,7.7781,7.7249,7.7221,7.7229,7.7099,7.7142,7.7156,7.7056,7.7021,7.7076,7.7095,7.6942,7.7071,7.6945,7.679,7.6912,7.6595,7.6094,7.5741,7.566,7.5039,7.465,7.4494,7.4458,7.4029,7.3208,7.311,7.2666,7.1845,7.081,6.961,6.8216,6.7328,6.6899,6.678,6.6761,6.6672,6.6552,6.66,6.651,6.6504,6.6306,6.6342,6.6306,6.6267,6.6264,6.5476,6.5353,6.51,6.4478,6.4164,6.4026,6.3965,6.3712,6.3636,6.3494,6.2528,6.1764,6.1436,6.1492,6.1562,6.1375,6.118,6.1067,6.1065,6.1009,6.0798,6.074,6.0703,6.0667,6.0617,6.0585,6.0572,6.0539,6.05,6.0525,6.0473,6.0466,6.0446,6.0453,6.0459,6.0473,6.048,6.0279,6.013,5.9581,5.9154,5.8727,5.8459,5.823,5.8001,5.781,5.7428,5.6899,5.6479,5.6129,5.5747,8.4291,8.4096,8.4096,8.4003,8.3723,8.2911,8.2577,8.2485,8.164,8.123,8.1109,8.0508,8.0238,8.0121,7.9267,7.886,7.8903,7.8903,7.8782,7.8544,7.851,7.8215,7.8034,7.8407,7.868,7.8652,7.8571,7.8737,7.8709,7.809,7.7857,7.7775,7.7318,7.7007,7.6848,7.6773,7.6614,7.6575,7.642,7.5875,7.5368,7.5291,7.4859,7.408,7.3992,7.3519,7.2623,7.1227,6.9982,6.8971,6.8043,6.7576,6.7537,6.7025,6.6708,6.6701,6.6601,6.6542,6.6535,6.6514,6.65,6.6538,6.6531,6.6411,6.6186,6.6105,6.5953,6.5588,6.5174,6.4726,6.4551,6.4111,6.3768,6.3608,6.3269,6.2974,6.2873,6.2959,6.2923,6.275,6.2155,6.1822,6.1609,6.1164,6.0776,6.0706,6.0649,6.0585,6.0533,6.0506,6.05,6.0453,6.0412,6.045,6.0443,6.0398,6.0391,6.0398,6.0398,6.0412,6.0418,6.036,6.0307,6.0109,5.988,5.9536,5.9453,5.93,5.9109,5.8803,5.8192,5.7581,5.7313,5.6969,5.6511,8.512,8.4771,8.4771,8.4615,8.4319,8.3814,8.3611,8.3568,8.3102,8.2611,8.2207,8.1702,8.1237,8.0849,8.0351,8.0101,8.0096,8.0101,7.9908,7.9553,7.952,7.9153,7.8805,7.9113,7.9278,7.9338,7.9355,7.9333,7.9236,7.8824,7.868,7.8563,7.8174,7.7983,7.8026,7.7944,7.7944,7.7905,7.7629,7.7123,7.6699,7.6291,7.5623,7.4993,7.4779,7.435,7.3337,7.2065,7.0843,6.9779,6.8865,6.8359,6.8281,6.7528,6.7058,6.7016,6.6695,6.6427,6.6422,6.6389,6.636,6.6398,6.6398,6.6346,6.6285,6.6315,6.6278,6.6104,6.5693,6.5469,6.5306,6.4888,6.4629,6.4674,6.458,6.4266,6.3654,6.3406,6.3432,6.3196,6.2854,6.2458,6.2446,6.1639,6.1223,6.1006,6.0731,6.0615,6.0453,6.0446,6.0432,6.0398,6.0377,6.0429,6.0429,6.0384,6.0377,6.0377,6.0377,6.0377,6.0377,6.0377,6.0377,6.0377,6.0377,6.0339,6.0109,5.9995,5.9873,5.9453,5.8842,5.8459,5.8192,5.7734,5.7275,8.6119,8.5429,8.5429,8.4998,8.4442,8.4254,8.4258,8.4287,8.4014,8.3563,8.3009,8.2825,8.2419,8.1762,8.1794,8.1723,8.1717,8.1717,8.1214,8.0782,8.0518,8.0192,7.9537,7.9625,7.9691,7.9727,7.9544,7.966,7.9731,7.9627,7.9501,7.9368,7.9333,7.9306,7.9048,7.9181,7.9349,7.9022,7.8469,7.8154,7.7912,7.7417,7.6734,7.5949,7.5308,7.4877,7.4036,7.307,7.2036,7.0572,6.9618,6.9148,6.8989,6.8299,6.7748,6.7497,6.6935,6.6496,6.6288,6.6215,6.6175,6.618,6.618,6.617,6.6175,6.6175,6.6149,6.6091,6.6119,6.5931,6.5863,6.5848,6.5741,6.5595,6.5667,6.5052,6.4069,6.3563,6.3501,6.3406,6.3379,6.3224,6.3025,6.2514,6.1874,6.1806,6.1385,6.0943,6.0717,6.0558,6.0481,6.0391,6.0377,6.0377,6.0384,6.0384,6.0377,6.0377,6.0377,6.0377,6.0377,6.0377,6.0377,6.0377,6.0377,6.0377,6.0339,6.03,6.03,6.0148,5.9536,5.9338,5.914,5.8536,5.7963,8.6351,8.6158,8.6158,8.6093,8.5885,8.5266,8.4997,8.5017,8.4295,8.3952,8.3662,8.36,8.3456,8.3224,8.3154,8.3302,8.3154,8.3116,8.2838,8.2182,8.2105,8.1617,8.1021,8.0905,8.0966,8.0924,8.1054,8.1088,8.0999,8.0537,8.0208,8.0174,7.9713,7.9194,7.9277,7.9403,7.9194,7.9155,7.8966,7.8894,7.8845,7.8571,7.7958,7.7139,7.5951,7.5149,7.4699,7.3935,7.3008,7.1898,7.0683,6.9957,6.9657,6.895,6.8292,6.7774,6.7418,6.6868,6.6322,6.6157,6.6047,6.6041,6.6036,6.6047,6.6047,6.6036,6.6013,6.6017,6.5999,6.5946,6.5853,6.5755,6.5742,6.569,6.5663,6.552,6.5202,6.5042,6.4952,6.4848,6.4416,6.4022,6.4022,6.3207,6.2751,6.2569,6.2073,6.1492,6.1148,6.0874,6.0759,6.0759,6.0644,6.0644,6.0377,6.0377,6.0377,6.0377,6.0377,6.0377,6.0377,6.0377,6.0377,6.0377,6.0377,6.0377,6.0377,6.0377,6.0339,6.0262,6.0224,6.0033,5.9682,5.9147,5.8682,8.6173,8.6214,8.6214,8.6285,8.6268,8.589,8.5741,8.5706,8.5224,8.4764,8.444,8.4335,8.4111,8.3688,8.3688,8.3688,8.3688,8.3688,8.3495,8.311,8.3033,8.2801,8.2539,8.235,8.2221,8.1639,8.1865,8.2045,8.1909,8.172,8.1523,8.1407,8.0632,8.0411,8.0245,8.0206,8.0289,8.0173,7.9819,7.962,7.9575,7.9097,7.8733,7.8102,7.6938,7.6192,7.6089,7.4848,7.4057,7.3278,7.2219,7.115,7.0489,6.9733,6.9076,6.8679,6.8093,6.7518,6.6844,6.6509,6.6339,6.5954,6.5846,6.5827,6.5827,6.5788,6.5814,6.5788,6.5808,6.5775,6.5708,6.5674,6.5601,6.5594,6.5566,6.5552,6.5552,6.5552,6.5552,6.5499,6.5066,6.4876,6.4534,6.39,6.3625,6.3441,6.2784,6.2242,6.2204,6.1936,6.1478,6.1325,6.1134,6.0912,6.053,6.0377,6.0377,6.0377,6.0377,6.0377,6.0377,6.0377,6.0377,6.0377,6.0377,6.0377,6.0377,6.0377,6.0377,6.0339,6.0339,6.0377,6.0262,5.9804,5.9338,8.5976,8.5979,8.5979,8.6035,8.612,8.6129,8.6122,8.6246,8.6199,8.5573,8.5235,8.5077,8.4668,8.4129,8.4052,8.3976,8.4022,8.4014,8.4052,8.3783,8.3745,8.3553,8.3368,8.32,8.2825,8.1759,8.24,8.2743,8.2771,8.2818,8.2696,8.2703,8.2245,8.1859,8.1865,8.1826,8.1743,8.1472,8.1002,8.0538,8.0338,7.9701,7.928,7.8697,7.7989,7.733,7.6881,7.5897,7.4976,7.4589,7.3875,7.2786,7.1633,7.069,6.9964,6.9836,6.897,6.8244,6.7532,6.7236,6.69,6.6196,6.5963,6.5852,6.589,6.5757,6.5642,6.5629,6.5622,6.5608,6.5587,6.5552,6.5552,6.5544,6.5509,6.5487,6.5479,6.5479,6.5479,6.5472,6.5321,6.5214,6.5092,6.4688,6.4542,6.4275,6.3579,6.3114,6.3075,6.2846,6.2357,6.2044,6.1898,6.144,6.1027,6.0453,6.0415,6.0453,6.0453,6.0377,6.0377,6.0377,6.0377,6.0377,6.0377,6.0377,6.0377,6.0377,6.0377,6.0377,6.0377,6.0377,6.0377,6.0377,5.9957,8.6467,8.5843,8.5834,8.5861,8.584,8.5849,8.5876,8.5905,8.5914,8.5811,8.5666,8.5639,8.5524,8.5332,8.54,8.5409,8.5235,8.5167,8.4966,8.4535,8.442,8.4199,8.3747,8.3717,8.3342,8.3162,8.3394,8.3587,8.3533,8.3599,8.3568,8.3589,8.3357,8.3242,8.3196,8.3365,8.2887,8.2417,8.2108,8.1761,8.1246,8.0849,8.026,7.9569,7.87,7.8008,7.7323,7.6792,7.6009,7.4681,7.4412,7.3776,7.2893,7.1986,7.0995,6.9973,6.9505,6.8929,6.8217,6.8021,6.7923,6.7647,6.7096,6.6706,6.6514,6.6131,6.5956,6.5803,6.5729,6.5631,6.5554,6.574,6.5504,6.5489,6.5535,6.5482,6.5444,6.5405,6.5413,6.5451,6.5429,6.5375,6.5261,6.5184,6.5031,6.4771,6.4344,6.4,6.3962,6.3541,6.2999,6.2808,6.2693,6.2166,6.1631,6.0912,6.0492,6.053,6.053,6.0415,6.0377,6.0377,6.0377,6.0377,6.0377,6.0377,6.0377,6.0377,6.0377,6.0377,6.0377,6.0377,6.0377,6.0377,6.0377,8.6719,8.6346,8.5933,8.577,8.5806,8.5777,8.5777,8.5777,8.5777,8.5777,8.5777,8.5777,8.5777,8.5777,8.5777,8.5777,8.5768,8.5777,8.5538,8.5231,8.5193,8.5078,8.4541,8.4541,8.4588,8.4624,8.4729,8.4481,8.4212,8.4198,8.42,8.4077,8.3808,8.3538,8.3538,8.3415,8.3362,8.3008,8.2931,8.2777,8.2277,8.1883,8.1118,8.0309,7.9462,7.8755,7.827,7.7256,7.6657,7.5857,7.5313,7.4599,7.3877,7.3188,7.2339,7.0984,7.0317,6.9711,6.9006,6.8792,6.8571,6.8065,6.766,6.7446,6.7331,6.7056,6.6719,6.6742,6.6773,6.6736,6.6812,6.6659,6.6491,6.6178,6.6063,6.5872,6.5566,6.5452,6.549,6.549,6.5413,6.5413,6.5413,6.5337,6.5375,6.5222,6.4993,6.4886,6.4733,6.4351,6.377,6.3503,6.335,6.2846,6.228,6.1593,6.0905,6.0797,6.0683,6.0568,6.0377,6.0377,6.0377,6.0377,6.0377,6.0377,6.0377,6.0377,6.0377,6.0377,6.0377,6.0377,6.0377,6.0377,6.0377,8.7118,8.6815,8.6212,8.5877,8.5742,8.5751,8.5751,8.5751,8.5751,8.5742,8.5751,8.5704,8.5742,8.5713,8.5742,8.5742,8.5751,8.5704,8.5694,8.5656,8.5656,8.5665,8.5713,8.5751,8.5579,8.5378,8.5474,8.5425,8.4999,8.4854,8.4866,8.4778,8.4099,8.3822,8.3963,8.4152,8.3783,8.3583,8.3544,8.3515,8.3131,8.2471,8.1734,8.1035,8.0183,7.9638,7.9144,7.8301,7.7348,7.6731,7.614,7.5387,7.4639,7.4307,7.3611,7.2462,7.1459,7.0547,6.9835,6.9567,6.9291,6.8824,6.8357,6.8218,6.8066,6.7928,6.776,6.7905,6.7828,6.7722,6.7645,6.7828,6.7523,6.7171,6.6904,6.6751,6.633,6.6101,6.6063,6.591,6.5605,6.5452,6.549,6.5413,6.5413,6.5413,6.5184,6.5184,6.5115,6.5154,6.4726,6.4305,6.3923,6.3465,6.293,6.2433,6.1745,6.1287,6.1058,6.0835,6.0606,6.0377,6.0415,6.0415,6.0377,6.0377,6.0377,6.0415,6.0377,6.0377,6.0377,6.0377,6.0377,6.0377,6.0377,8.8148,8.682,8.6706,8.6219,8.5589,8.5551,8.5551,8.5561,8.5561,8.5541,8.557,8.5551,8.5561,8.5561,8.5561,8.5551,8.5551,8.557,8.558,8.559,8.558,8.558,8.5551,8.5541,8.558,8.559,8.557,8.5619,8.5474,8.5511,8.5567,8.5443,8.5357,8.5414,8.5118,8.5071,8.5116,8.457,8.4417,8.4072,8.3344,8.2568,8.2064,8.153,8.0929,8.0146,7.9595,7.8944,7.8306,7.7026,7.6712,7.613,7.5395,7.4584,7.424,7.3531,7.2554,7.1224,7.0498,7.0298,7.0137,6.9755,6.9387,6.912,6.8929,6.8508,6.8172,6.7905,6.802,6.8134,6.8203,6.8058,6.7867,6.7828,6.7744,6.7676,6.7408,6.6904,6.6827,6.656,6.633,6.5834,6.5605,6.549,6.5413,6.5413,6.5375,6.5375,6.5413,6.5413,6.5413,6.4879,6.4573,6.4153,6.3809,6.3236,6.2701,6.2051,6.1631,6.1287,6.0905,6.0683,6.0453,6.0453,6.0453,6.053,6.0644,6.0606,6.0453,6.0377,6.0377,6.0377,6.0377,6.0377,6.0377,8.9065,8.7498,8.6991,8.6304,8.555,8.5511,8.5511,8.5511,8.5511,8.5511,8.5511,8.5511,8.5511,8.5511,8.5511,8.5511,8.5511,8.5511,8.5511,8.5511,8.5511,8.5511,8.5511,8.5511,8.5511,8.5511,8.5511,8.5503,8.5628,8.5648,8.5648,8.5648,8.5609,8.5552,8.5667,8.5648,8.5447,8.5169,8.5064,8.4681,8.4002,8.3428,8.2835,8.1909,8.1488,8.082,8.0104,7.9445,7.9063,7.7993,7.7411,7.657,7.6074,7.5386,7.4775,7.4125,7.359,7.2529,7.1382,7.1183,7.0877,7.0449,7.0067,6.9914,6.9799,6.954,6.9234,6.9349,6.9349,6.9273,6.9234,6.9311,6.9005,6.8822,6.8631,6.8325,6.8172,6.7905,6.7591,6.7293,6.6988,6.6483,6.5757,6.4955,6.4879,6.5001,6.5039,6.507,6.5222,6.5413,6.5413,6.5337,6.5108,6.4879,6.4573,6.4191,6.3778,6.3166,6.2586,6.2128,6.144,6.1096,6.0988,6.0874,6.0943,6.0981,6.1019,6.0874,6.0721,6.0568,6.0377,6.0492,6.0568,6.0377,6.0377,8.9752,8.8339,8.746,8.6609,8.5807,8.5616,8.5511,8.5511,8.5511,8.5511,8.5511,8.5511,8.5511,8.5511,8.5511,8.5511,8.5511,8.5511,8.5511,8.5511,8.5511,8.5511,8.5511,8.5511,8.5511,8.5511,8.5511,8.5521,8.5521,8.5521,8.5531,8.5511,8.5541,8.5531,8.5521,8.5531,8.5455,8.5455,8.5455,8.5149,8.4652,8.4346,8.3572,8.2722,8.1996,8.1499,8.0812,8.0057,7.9636,7.8949,7.8184,7.7382,7.6647,7.6074,7.5424,7.4851,7.4431,7.3819,7.2673,7.1947,7.1412,7.0916,7.0449,7.0296,7.0334,7.0411,7.0372,7.0181,7.022,7.0258,7.0372,7.0296,6.9999,6.9655,6.9464,6.9043,6.8738,6.8699,6.8508,6.8172,6.7752,6.7171,6.6216,6.4726,6.4267,6.4504,6.4619,6.4802,6.5031,6.5375,6.5413,6.5413,6.5337,6.5222,6.507,6.481,6.4504,6.4122,6.3541,6.293,6.2166,6.186,6.1822,6.1707,6.1554,6.1707,6.1936,6.144,6.1065,6.1249,6.1325,6.0912,6.0759,6.0568,6.0415,9.0048,8.9141,8.8339,8.7498,8.6609,8.5845,8.5511,8.5511,8.5511,8.5511,8.5511,8.5511,8.5511,8.5511,8.5511,8.5511,8.5511,8.5511,8.5511,8.5511,8.5511,8.5511,8.5511,8.5511,8.5511,8.5511,8.5511,8.5511,8.5511,8.5511,8.5511,8.5511,8.5511,8.5511,8.5511,8.5511,8.5511,8.5511,8.5511,8.5511,8.5167,8.4785,8.4212,8.3792,8.2684,8.1767,8.1652,8.085,8.0095,7.9522,7.8987,7.8261,7.7335,7.6685,7.6036,7.5577,7.5242,7.4698,7.3896,7.2758,7.1841,7.1412,7.0992,7.0525,7.0411,7.0411,7.0411,7.0411,7.0411,7.0411,7.0411,7.0372,7.0296,7.0181,6.999,6.9914,6.9685,6.9838,6.9578,6.9082,6.8631,6.8126,6.7553,6.6254,6.5261,6.5459,6.5299,6.549,6.5222,6.5413,6.5413,6.5413,6.5413,6.5375,6.5375,6.5115,6.481,6.4428,6.3931,6.3388,6.2808,6.2655,6.2395,6.2548,6.2433,6.2655,6.2846,6.2739,6.2624,6.2502,6.2235,6.1669,6.1179,6.095,6.0683,9.0392,9.0009,8.9179,8.8033,8.6762,8.6456,8.5998,8.555,8.5511,8.5511,8.5511,8.5511,8.5511,8.5511,8.5511,8.5511,8.5511,8.5511,8.5511,8.5511,8.5511,8.5511,8.5511,8.5511,8.5511,8.5511,8.5511,8.5511,8.5511,8.5511,8.5511,8.5511,8.5511,8.5511,8.5511,8.5511,8.5511,8.5511,8.5511,8.5511,8.5435,8.5244,8.4785,8.4212,8.3954,8.2722,8.1958,8.1538,8.085,8.0162,7.9598,7.8872,7.8146,7.7373,7.6685,7.6197,7.5815,7.5356,7.4927,7.379,7.2864,7.1764,7.1374,7.0992,7.0563,7.0411,7.0411,7.0411,7.0411,7.0411,7.0411,7.0411,7.0372,7.0411,7.0411,7.0411,7.0411,7.0411,7.0334,6.9693,6.954,6.9311,6.8738,6.805,6.7133,6.6445,6.6254,6.6101,6.5872,6.5681,6.5803,6.5841,6.5872,6.5757,6.5757,6.5452,6.5108,6.4733,6.4351,6.377,6.3274,6.2923,6.277,6.2999,6.3312,6.3427,6.3694,6.4153,6.4031,6.3419,6.2808,6.2273,6.1822,6.1402,6.1058,9.0621,9.0544,8.9933,8.8863,8.7603,8.7297,8.6849,8.6314,8.6036,8.5692,8.5511,8.5511,8.5511,8.5511,8.5511,8.5511,8.5511,8.5511,8.5511,8.5511,8.5511,8.5511,8.5511,8.5511,8.5511,8.5511,8.5511,8.5511,8.5511,8.5511,8.5511,8.5511,8.5511,8.5511,8.5511,8.5511,8.5511,8.5511,8.5511,8.5511,8.5511,8.5473,8.532,8.4671,8.4365,8.3792,8.276,8.2149,8.1499,8.0812,8.021,7.9598,7.8949,7.8222,7.7335,7.6723,7.6235,7.5815,7.5356,7.4622,7.3552,7.2414,7.1764,7.1374,7.0954,7.0602,7.0411,7.0411,7.0411,7.0411,7.0411,7.0411,7.0411,7.0411,7.0411,7.0411,7.0411,7.0411,7.0411,7.022,7.0143,6.999,6.9761,6.912,6.8317,6.7515,6.7095,6.6942,6.6789,6.6606,6.6529,6.6529,6.6529,6.6376,6.6216,6.6063,6.5872,6.5452,6.4955,6.4122,6.3579,6.3236,6.2961,6.2999,6.3388,6.4007,6.4351,6.4535,6.4344,6.3962,6.3465,6.3083,6.2464,6.2051,6.1593,9.0621,9.0621,9.0544,9.002,8.9093,8.8377,8.7995,8.7689,8.7078,8.638,8.5807,8.5741,8.5741,8.5741,8.5932,8.597,8.5932,8.5817,8.5817,8.5893,8.5817,8.5664,8.5588,8.5588,8.5511,8.5511,8.5511,8.5511,8.5511,8.5511,8.5511,8.5511,8.5511,8.5511,8.5511,8.5511,8.5511,8.5511,8.5511,8.5511,8.5511,8.5511,8.5397,8.5206,8.4785,8.425,8.3677,8.2798,8.2149,8.1461,8.0888,8.021,7.9445,7.9178,7.8299,7.7114,7.6838,7.635,7.5624,7.4736,7.3896,7.3093,7.2529,7.2032,7.1573,7.1068,7.0563,7.0716,7.0487,7.0411,7.0411,7.0411,7.0411,7.0411,7.0411,7.0411,7.0411,7.0411,7.0411,7.0411,7.0411,7.0372,7.0372,7.0105,6.9303,6.8623,6.8096,6.7752,6.7561,6.737,6.7217,6.7179,6.7102,6.7141,6.698,6.6827,6.6598,6.6178,6.5605,6.4802,6.4045,6.3541,6.3312,6.3075,6.3266,6.377,6.4305,6.4802,6.4649,6.4573,6.4389,6.3969,6.3312,6.277,6.2395,9.0621,9.0621,9.0621,9.043,9.0048,8.9256,8.8606,8.812,8.7766,8.7498,8.7269,8.7231,8.7231,8.7231,8.7154,8.7116,8.7154,8.7231,8.7231,8.7116,8.6648,8.6418,8.6227,8.5807,8.555,8.5511,8.5511,8.5511,8.5511,8.5511,8.5511,8.5511,8.5511,8.5511,8.5511,8.5511,8.5511,8.5511,8.5511,8.5511,8.5511,8.5511,8.5511,8.5473,8.5167,8.4824,8.4403,8.3524,8.2913,8.2111,8.1461,8.0888,8.0133,7.9789,7.9063,7.8261,7.7984,7.7182,7.6379,7.5539,7.4698,7.401,7.3437,7.2979,7.2597,7.1764,7.1382,7.1107,7.0763,7.0602,7.0411,7.0411,7.0411,7.0411,7.0411,7.0411,7.0411,7.0411,7.0411,7.0411,7.0411,7.0411,7.0411,7.0411,6.9799,6.9502,6.9005,6.8394,6.8088,6.7867,6.7676,6.7676,6.7676,6.779,6.779,6.7668,6.7362,6.6904,6.633,6.5605,6.484,6.4076,6.3541,6.3274,6.335,6.3503,6.4229,6.4886,6.5184,6.5184,6.4924,6.4619,6.4038,6.3618,6.335,9.0621,9.0621,9.0621,9.0621,9.0506,9.0009,8.9294,8.8606,8.8492,8.8377,8.812,8.8071,8.8071,8.8071,8.811,8.811,8.811,8.8081,8.8081,8.8033,8.7575,8.7106,8.6648,8.6227,8.5855,8.5664,8.5511,8.5511,8.5511,8.5511,8.5511,8.5511,8.5511,8.5511,8.5511,8.5511,8.5511,8.5511,8.5511,8.5511,8.5511,8.5511,8.5511,8.5511,8.5397,8.5234,8.4785,8.4327,8.3792,8.2837,8.2111,8.1614,8.085,8.0248,7.9636,7.9178,7.8481,7.7602,7.6723,7.6303,7.5501,7.4745,7.4431,7.3964,7.3399,7.2635,7.2299,7.1917,7.1298,7.103,7.0877,7.0831,7.0487,7.0487,7.0411,7.0411,7.0411,7.0411,7.0411,7.0411,7.0411,7.0411,7.0411,7.0411,7.022,7.0067,6.9922,6.9311,6.8738,6.8623,6.8508,6.8547,6.8661,6.889,6.8814,6.8547,6.8165,6.7668,6.7056,6.6483,6.5528,6.4764,6.4114,6.3541,6.3694,6.3969,6.4428,6.4924,6.5077,6.5261,6.5299,6.5001,6.4657,6.442,6.4191,9.0621,9.0621,9.0621,9.0621,9.0583,9.0506,9.0048,8.937,8.937,8.8912,8.8273,8.8415,8.8492,8.8339,8.8301,8.8377,8.8453,8.8415,8.8453,8.8339,8.8262,8.7727,8.7259,8.68,8.6304,8.5807,8.554,8.5511,8.5511,8.5511,8.5511,8.5511,8.5511,8.5511,8.5511,8.5511,8.5511,8.5511,8.5511,8.5511,8.5511,8.5511,8.5511,8.5511,8.5473,8.5435,8.5167,8.4785,8.4403,8.3677,8.2875,8.2187,8.1538,8.1003,8.021,7.9407,7.8596,7.7831,7.7258,7.7029,7.635,7.5586,7.4927,7.4469,7.4049,7.3514,7.3132,7.275,7.2253,7.1956,7.1726,7.1183,7.064,7.0563,7.0487,7.0449,7.0411,7.0411,7.0411,7.0411,7.0411,7.0411,7.0411,7.0411,7.0411,7.0334,7.022,7.0143,6.9685,6.9799,6.9723,6.9761,6.9914,7.0105,6.9914,6.9425,6.9234,6.8768,6.808,6.7431,6.6445,6.5528,6.4726,6.4275,6.4198,6.4313,6.4542,6.4695,6.481,6.5039,6.5375,6.5337,6.5001,6.507,6.4879,9.0621,9.0621,9.0621,9.0621,9.0621,9.0621,9.043,9.0239,9.0239,9.0048,8.9867,8.9895,8.9714,8.9905,8.9905,8.9829,8.9818,8.9857,8.9895,8.9666,8.9179,8.8835,8.8224,8.745,8.68,8.6265,8.5883,8.5511,8.5511,8.5511,8.5511,8.5511,8.5511,8.5511,8.5511,8.5511,8.5511,8.5511,8.5511,8.5511,8.5511,8.5511,8.5511,8.5511,8.5511,8.5511,8.5358,8.5244,8.49,8.4174,8.3868,8.3219,8.1767,8.1499,8.1041,8.021,7.9445,7.8796,7.849,7.7946,7.7258,7.657,7.5997,7.5653,7.5119,7.4431,7.3934,7.359,7.3132,7.2711,7.2414,7.1909,7.145,7.1298,7.1107,7.0907,7.0869,7.0869,7.0869,7.0602,7.0602,7.0411,7.0411,7.0411,7.0411,7.0411,7.0411,7.0411,7.0411,7.0411,7.0411,7.0411,7.0411,7.0411,7.0411,6.999,7.0029,6.9876,6.915,6.8462,6.7668,6.6713,6.5574,6.4924,6.4657,6.4466,6.4351,6.4504,6.4733,6.5077,6.5413,6.5413,6.5413,6.5375,6.5375,9.0621,9.0621,9.0621,9.0621,9.0621,9.0621,9.0621,9.0621,9.0621,9.0621,9.0621,9.0544,9.0621,9.0544,9.0517,9.0506,9.0506,9.043,9.043,9.0277,9.0048,8.9551,8.8902,8.8023,8.7221,8.6648,8.6036,8.5511,8.5511,8.5511,8.5511,8.5511,8.5511,8.5511,8.5511,8.5511,8.5511,8.5511,8.5511,8.5511,8.5511,8.5511,8.5511,8.5511,8.5511,8.5511,8.5511,8.5511,8.5206,8.4747,8.4594,8.3715,8.2264,8.1729,8.1194,8.0391,8.0095,7.9522,7.914,7.8796,7.8061,7.7411,7.6914,7.6418,7.5883,7.5233,7.4927,7.4584,7.3934,7.3399,7.3093,7.2826,7.249,7.2223,7.1871,7.1519,7.148,7.148,7.1298,7.0992,7.0763,7.0487,7.0411,7.0411,7.0411,7.0411,7.0411,7.0411,7.0411,7.0411,7.0411,7.0411,7.0411,7.0411,7.0411,7.0411,7.0334,7.0258,7.0105,6.9417,6.8776,6.805,6.7056,6.5987,6.5031,6.4917,6.4848,6.4657,6.4771,6.5146,6.5413,6.5413,6.5413,6.5413,6.5375,9.0621,9.0621,9.0621,9.0621,9.0621,9.0621,9.0621,9.0621,9.0621,9.0621,9.0621,9.0621,9.0621,9.0621,9.0621,9.0621,9.0621,9.0621,9.0621,9.0621,9.0468,9.0124,8.9447,8.8492,8.7651,8.68,8.6074,8.5511,8.5511,8.5511,8.5511,8.5511,8.5511,8.5511,8.5511,8.5511,8.5511,8.5511,8.5511,8.5511,8.5511,8.5511,8.5511,8.5511,8.5511,8.5511,8.5511,8.5511,8.5511,8.5244,8.4824,8.4021,8.2808,8.169,8.0964,8.0506,8.0362,8.0095,7.9751,7.9445,7.8939,7.8175,7.7373,7.6953,7.6494,7.57,7.5271,7.5157,7.4584,7.4354,7.4095,7.359,7.317,7.2941,7.2635,7.2406,7.2291,7.2253,7.21,7.1833,7.1565,7.1259,7.0831,7.0877,7.0678,7.0525,7.0411,7.0411,7.0411,7.0411,7.0411,7.0411,7.0411,7.0411,7.0411,7.0411,7.0411,7.0411,7.0411,7.0334,6.9647,6.9112,6.8547,6.7247,6.5948,6.5681,6.5528,6.5261,6.5031,6.5184,6.5413,6.5413,6.5413,6.5413,6.5413,9.0621,9.0621,9.0621,9.0621,9.0621,9.0621,9.0621,9.0621,9.0621,9.0621,9.0621,9.0621,9.0621,9.0621,9.0621,9.0621,9.0621,9.0621,9.0621,9.0621,9.0621,9.0506,8.9944,8.8759,8.8033,8.7345,8.6505,8.5511,8.5511,8.5511,8.5511,8.5511,8.5511,8.5511,8.5511,8.5511,8.5511,8.5511,8.5511,8.5511,8.5511,8.5511,8.5511,8.5511,8.5511,8.5511,8.5511,8.5511,8.5511,8.5397,8.5358,8.4441,8.3076,8.2034,8.1194,8.0659,8.0544,8.0315,8.02,8.0018,7.9665,7.9254,7.8566,7.7755,7.6991,7.6044,7.5509,7.5433,7.5318,7.5204,7.4936,7.4354,7.3896,7.3667,7.3476,7.3323,7.3132,7.3017,7.2941,7.2711,7.2482,7.2024,7.1527,7.1221,7.0954,7.0754,7.0487,7.0411,7.0411,7.0411,7.0411,7.0411,7.0411,7.0411,7.0411,7.0411,7.0411,7.0411,7.0411,7.0411,7.0411,6.9799,6.9043,6.8012,6.7018,6.6713,6.6292,6.5719,6.5566,6.5643,6.5566,6.5643,6.5452,6.5413,6.5413,9.0621,9.0621,9.0621,9.0621,9.0621,9.0621,9.0621,9.0621,9.0621,9.0621,9.0621,9.0621,9.0621,9.0621,9.0621,9.0621,9.0621,9.0621,9.0621,9.0621,9.0621,9.0621,8.9905,8.8912,8.8339,8.7651,8.6352,8.5511,8.5511,8.5511,8.5511,8.5511,8.5511,8.5511,8.5511,8.5511,8.5511,8.5511,8.5511,8.5511,8.5511,8.5511,8.5511,8.5511,8.5511,8.5511,8.5511,8.5511,8.5511,8.532,8.5091,8.4671,8.3486,8.2416,8.1652,8.1117,8.0812,8.0506,8.0506,8.0439,8.0286,7.9904,7.9369,7.8443,7.7564,7.6685,7.5853,7.5739,7.5471,7.5318,7.5318,7.4898,7.4813,7.466,7.4592,7.4478,7.4201,7.3934,7.3781,7.3552,7.317,7.2635,7.2291,7.2253,7.1909,7.1344,7.103,7.0716,7.064,7.0563,7.0525,7.0449,7.0449,7.0449,7.0411,7.0411,7.0411,7.0411,7.0411,7.0411,7.0372,7.0029,6.9456,6.8661,6.805,6.7744,6.7247,6.6636,6.6216,6.6254,6.6101,6.5948,6.5719,6.5605,6.5605,9.0621,9.0621,9.0621,9.0621,9.0621,9.0621,9.0621,9.0621,9.0621,9.0621,9.0621,9.0621,9.0621,9.0621,9.0621,9.0621,9.0621,9.0621,9.0621,9.0621,9.0621,9.0392,8.9791,8.8874,8.811,8.7231,8.6123,8.5664,8.5511,8.5511,8.5511,8.5511,8.5511,8.5511,8.5511,8.5511,8.5511,8.5511,8.5511,8.5511,8.5511,8.5511,8.5511,8.5511,8.5511,8.5511,8.5511,8.5511,8.5511,8.5358,8.5015,8.4556,8.4059,8.3104,8.2264,8.169,8.1156,8.0812,8.0582,8.0506,8.0468,8.0286,7.9751,7.9063,7.8213,7.7373,7.6541,7.5968,7.5739,7.5471,7.5471,7.5471,7.5433,7.5433,7.5395,7.5356,7.5013,7.4736,7.4545,7.4354,7.3934,7.3399,7.317,7.3132,7.275,7.2147,7.1688,7.1336,7.106,7.103,7.0954,7.0716,7.0602,7.0525,7.0411,7.0411,7.0411,7.0411,7.0411,7.0411,7.0372,7.0143,6.9914,6.9578,6.9043,6.8585,6.8203,6.7668,6.7324,6.6942,6.6827,6.6713,6.6522,6.6376,6.6109,9.0621,9.0621,9.0621,9.0621,9.0621,9.0621,9.0621,9.0621,9.0621,9.0621,9.0621,9.0621,9.0621,9.0621,9.0621,9.0621,9.0621,9.0621,9.0621,9.0621,9.0621,9.0162,8.9447,8.8453,8.7307,8.639,8.5779,8.5626,8.5511,8.5511,8.5511,8.5511,8.5511,8.5511,8.5511,8.5511,8.5511,8.5511,8.5511,8.5511,8.5511,8.5511,8.5511,8.5511,8.5511,8.5511,8.5511,8.5511,8.5511,8.5435,8.532,8.49,8.4403,8.383,8.3104,8.2264,8.1729,8.1156,8.0888,8.0582,8.0544,8.0506,8.0018,7.9751,7.8901,7.8099,7.7267,7.6426,7.6044,7.5509,7.5395,7.5471,7.5471,7.5471,7.5433,7.5433,7.528,7.5242,7.5165,7.5089,7.4974,7.4439,7.401,7.3858,7.359,7.3093,7.2758,7.2406,7.2138,7.1794,7.1459,7.1221,7.0992,7.0563,7.0411,7.0411,7.0411,7.0411,7.0411,7.0411,7.0411,7.0411,7.0181,6.9914,6.9578,6.912,6.8776,6.8623,6.8126,6.7782,6.7706,6.7561,6.7332,6.7141,6.6873]}]]